[[{"header":{"parameterUnit":"m.s-1","parameterCategory":1,"la1":30.6,"la2":28.766,"lo1":-90.7593,"lo2":-88.6598,"dy":0.0162,"dx":0.0183,"nx":116,"ny":114,"refTime":"2023-06-01T06:00:00:Z","depth":0,"parameterNumber":2,"parameterNumberName":"U-component_of_WINDS"},"data":[0.0,0.0,0.0,0.0,0.0,0.0,0.0,0.0,0.0,0.0,0.0,0.0,0.0,0.0,0.0,0.0,0.0,0.0,0.0,0.0,0.0,0.0,0.0,0.0,0.0,0.0,0.0,0.0,0.0,0.0,0.0,0.0,0.0,0.0,0.0,0.0,0.0,0.0,0.0,0.0,0.0,0.0,0.0,0.0,0.0,0.0,0.0,0.0,0.0,0.0,0.0,0.0,0.0,0.0,0.0,0.0,0.0,0.0,0.0,0.0,0.0,0.0,0.0,0.0,0.0,0.0,0.0,0.0,0.0,0.0,0.0,0.0,0.0,0.0,0.0,0.0,0.0,0.0,0.0,0.0,0.0,0.0,0.0,0.0,0.0,0.0,0.0,0.0,0.0,0.0,0.0,0.0,0.0,0.0,0.0,0.0,0.0,0.0,0.0,0.0,0.0,0.0,0.0,0.0,0.0,0.0,0.0,0.0,0.0,0.0,0.0,0.0,0.0,0.0,0.0,0.0,0.0,0.0,0.0,0.0,0.0,0.0,0.0,0.0,0.0,0.0,0.0,0.0,0.0,0.0,0.0,0.0,0.0,0.0,0.0,0.0,0.0,0.0,0.0,0.0,0.0,0.0,0.0,0.0,0.0,0.0,0.0,0.0,0.0,0.0,0.0,0.0,0.0,0.0,0.0,0.0,0.0,0.0,0.0,0.0,0.0,0.0,0.0,0.0,0.0,0.0,0.0,0.0,0.0,0.0,0.0,0.0,0.0,0.0,0.0,0.0,0.0,0.0,0.0,0.0,0.0,0.0,0.0,0.0,0.0,0.0,0.0,0.0,0.0,0.0,0.0,0.0,0.0,0.0,0.0,0.0,0.0,0.0,0.0,0.0,0.0,0.0,0.0,0.0,0.0,0.0,0.0,0.0,0.0,0.0,0.0,0.0,0.0,0.0,0.0,0.0,0.0,0.0,0.0,0.0,0.0,0.0,0.0,0.0,0.0,0.0,0.0,0.0,0.0,0.0,0.0,0.0,0.0,0.0,0.0,0.0,0.0,0.0,0.0,0.0,0.0,0.0,0.0,0.0,0.0,0.0,0.0,0.0,0.0,0.0,0.0,0.0,0.0,0.0,0.0,0.0,0.0,0.0,0.0,0.0,0.0,0.0,0.0,0.0,0.0,0.0,0.0,0.0,0.0,0.0,0.0,0.0,0.0,0.0,0.0,0.0,0.0,0.0,0.0,0.0,0.0,0.0,0.0,0.0,0.0,0.0,0.0,0.0,0.0,0.0,0.0,0.0,0.0,0.0,0.0,0.0,0.0,0.0,0.0,0.0,0.0,0.0,0.0,0.0,0.0,0.0,0.0,0.0,0.0,0.0,0.0,0.0,0.0,0.0,0.0,0.0,0.0,0.0,0.0,0.0,0.0,0.0,0.0,0.0,0.0,0.0,0.0,0.0,0.0,0.0,0.0,0.0,0.0,0.0,0.0,0.0,0.0,0.0,0.0,0.0,0.0,0.0,0.0,0.0,0.0,0.0,0.0,0.0,0.0,0.0,0.0,0.0,0.0,0.0,0.0,0.0,0.0,0.0,0.0,0.0,0.0,0.0,0.0,0.0,0.0,0.0,0.0,0.0,0.0,0.0,0.0,0.0,0.0,0.0,0.0,0.0,0.0,0.0,0.0,0.0,0.0,0.0,0.0,0.0,0.0,0.0,0.0,0.0,0.0,0.0,0.0,0.0,0.0,0.0,0.0,0.0,0.0,0.0,0.0,0.0,0.0,0.0,0.0,0.0,0.0,0.0,0.0,0.0,0.0,0.0,0.0,0.0,0.0,0.0,0.0,0.0,0.0,0.0,0.0,0.0,0.0,0.0,0.0,0.0,0.0,0.0,0.0,0.0,0.0,0.0,0.0,0.0,0.0,0.0,0.0,0.0,0.0,0.0,0.0,0.0,0.0,0.0,0.0,0.0,0.0,0.0,0.0,0.0,0.0,0.0,0.0,0.0,0.0,0.0,0.0,0.0,0.0,0.0,0.0,0.0,0.0,0.0,0.0,0.0,0.0,0.0,0.0,0.0,0.0,0.0,0.0,0.0,0.0,0.0,0.0,0.0,0.0,0.0,0.0,0.0,0.0,0.0,0.0,0.0,0.0,0.0,0.0,0.0,0.0,0.0,0.0,0.0,0.0,0.0,0.0,0.0,0.0,0.0,0.0,0.0,0.0,0.0,0.0,0.0,0.0,0.0,0.0,0.0,0.0,0.0,0.0,0.0,0.0,0.0,0.0,0.0,0.0,0.0,0.0,0.0,0.0,0.0,0.0,0.0,0.0,0.0,0.0,0.0,0.0,0.0,0.0,0.0,0.0,0.0,0.0,0.0,0.0,0.0,0.0,0.0,0.0,0.0,0.0,0.0,0.0,0.0,0.0,0.0,0.0,0.0,0.0,0.0,0.0,0.0,0.0,0.0,0.0,0.0,0.0,0.0,0.0,0.0,0.0,0.0,0.0,0.0,0.0,0.0,0.0,0.0,0.0,0.0,0.0,0.0,0.0,0.0,0.0,0.0,0.0,0.0,0.0,0.0,0.0,0.0,0.0,0.0,0.0,0.0,0.0,0.0,0.0,0.0,0.0,0.0,0.0,0.0,0.0,0.0,0.0,0.0,0.0,0.0,0.0,0.0,0.0,0.0,0.0,0.0,0.0,0.0,0.0,0.0,0.0,0.0,0.0,0.0,0.0,0.0,0.0,0.0,0.0,0.0,0.0,0.0,0.0,0.0,0.0,0.0,0.0,0.0,0.0,0.0,0.0,0.0,0.0,0.0,0.0,0.0,0.0,0.0,0.0,0.0,0.0,0.0,0.0,0.0,0.0,0.0,0.0,0.0,0.0,0.0,0.0,0.0,0.0,0.0,0.0,0.0,0.0,0.0,0.0,0.0,0.0,0.0,0.0,0.0,0.0,0.0,0.0,0.0,0.0,0.0,0.0,0.0,0.0,0.0,0.0,0.0,0.0,0.0,0.0,0.0,0.0,0.0,0.0,0.0,0.0,0.0,0.0,0.0,0.0,0.0,0.0,0.0,0.0,0.0,0.0,0.0,0.0,0.0,0.0,0.0,0.0,0.0,0.0,0.0,0.0,0.0,0.0,0.0,0.0,0.0,0.0,0.0,0.0,0.0,0.0,0.0,0.0,0.0,0.0,0.0,0.0,0.0,0.0,0.0,0.0,0.0,0.0,0.0,0.0,0.0,0.0,0.0,0.0,0.0,0.0,0.0,0.0,0.0,0.0,0.0,0.0,0.0,0.0,0.0,0.0,0.0,0.0,0.0,0.0,0.0,0.0,0.0,0.0,0.0,0.0,0.0,0.0,0.0,0.0,0.0,0.0,0.0,0.0,0.0,0.0,0.0,0.0,0.0,0.0,0.0,0.0,0.0,0.0,0.0,0.0,0.0,0.0,0.0,0.0,0.0,0.0,0.0,0.0,0.0,0.0,0.0,0.0,0.0,0.0,0.0,0.0,0.0,0.0,0.0,0.0,0.0,0.0,0.0,0.0,0.0,0.0,0.0,0.0,0.0,0.0,0.0,0.0,0.0,0.0,0.0,0.0,0.0,0.0,0.0,0.0,0.0,0.0,0.0,0.0,0.0,0.0,0.0,0.0,0.0,0.0,0.0,0.0,0.0,0.0,0.0,0.0,0.0,0.0,0.0,0.0,0.0,0.0,0.0,0.0,0.0,0.0,0.0,0.0,0.0,0.0,0.0,0.0,0.0,0.0,0.0,0.0,0.0,0.0,0.0,0.0,0.0,0.0,0.0,0.0,0.0,0.0,0.0,0.0,0.0,0.0,0.0,0.0,0.0,0.0,0.0,0.0,0.0,0.0,0.0,0.0,0.0,0.0,0.0,0.0,0.0,0.0,0.0,0.0,0.0,0.0,0.0,0.0,0.0,0.0,0.0,0.0,0.0,0.0,0.0,0.0,0.0,0.0,0.0,0.0,0.0,0.0,0.0,0.0,0.0,0.0,0.0,0.0,0.0,0.0,0.0,0.0,0.0,0.0,0.0,0.0,0.0,0.0,0.0,0.0,0.0,0.0,0.0,0.0,0.0,0.0,0.0,0.0,0.0,0.0,0.0,0.0,0.0,0.0,0.0,0.0,0.0,0.0,0.0,0.0,0.0,0.0,0.0,0.0,0.0,0.0,0.0,0.0,0.0,0.0,0.0,0.0,0.0,0.0,0.0,0.0,0.0,0.0,0.0,0.0,0.0,0.0,0.0,0.0,0.0,0.0,0.0,0.0,0.0,0.0,0.0,0.0,0.0,0.0,0.0,0.0,0.0,0.0,0.0,0.0,0.0,0.0,0.0,0.0,0.0,0.0,0.0,0.0,0.0,0.0,0.0,0.0,0.0,0.0,0.0,0.0,0.0,0.0,0.0,0.0,0.0,0.0,0.0,0.0,0.0,0.0,0.0,0.0,0.0,0.0,0.0,0.0,0.0,0.0,0.0,0.0,0.0,0.0,0.0,0.0,0.0,0.0,0.0,0.0,0.0,0.0,0.0,0.0,0.0,0.0,0.0,0.0,0.0,0.0,0.0,0.0,0.0,0.0,0.0,0.0,0.0,0.0,0.0,0.0,0.0,0.0,0.0,0.0,0.0,0.0,0.0,0.0,0.0,0.0,0.0,0.0,0.0,0.0,0.0,0.0,0.0,0.0,0.0,0.0,0.0,0.0,0.0,0.0,0.0,0.0,0.0,0.0,0.0,0.0,0.0,0.0,0.0,0.0,0.0,0.0,0.0,0.0,0.0,0.0,0.0,0.0,0.0,0.0,0.0,0.0,0.0,0.0,0.0,0.0,0.0,0.0,0.0,0.0,0.0,0.0,0.0,0.0,0.0,0.0,0.0,0.0,0.0,0.0,0.0,0.0,0.0,0.0,0.0,0.0,0.0,0.0,0.0,0.0,0.0,0.0,0.0,0.0,0.0,0.0,0.0,0.0,0.0,0.0,0.0,0.0,0.0,0.0,0.0,0.0,0.0,0.0,0.0,0.0,0.0,0.0,0.0,0.0,0.0,0.0,0.0,0.0,0.0,0.0,0.0,0.0,0.0,0.0,0.0,0.0,0.0,0.0,0.0,0.0,0.0,0.0,0.0,0.0,0.0,0.0,0.0,0.0,0.0,0.0,0.0,0.0,0.0,0.0,0.0,0.0,0.0,0.0,0.0,0.0,0.0,0.0,0.0,0.0,0.0,0.0,0.0,0.0,0.0,0.0,0.0,0.0,0.0,0.0,0.0,0.0,0.0,0.0,0.0,0.0,0.0,0.0,0.0,0.0,0.0,0.0,0.0,0.0,0.0,0.0,0.0,0.0,0.0,0.0,0.0,0.0,0.0,0.0,0.0,0.0,0.0,0.0,0.0,0.0,0.0,0.0,0.0,0.0,0.0,0.0,0.0,0.0,0.0,0.0,0.0,0.0,0.0,0.0,0.0,0.0,0.0,0.0,0.0,0.0,0.0,0.0,0.0,0.0,0.0,0.0,0.0,0.0,0.0,0.0,0.0,0.0,0.0,0.0,0.0,0.0,0.0,0.0,0.0,0.0,0.0,0.0,0.0,0.0,0.0,0.0,0.0,0.0,0.0,0.0,0.0,0.0,0.0,0.0,0.0,0.0,0.0,0.0,0.0,0.0,0.0,0.0,0.0,0.0,0.0,0.0,0.0,0.0,0.0,0.0,0.0,0.0,0.0,0.0,0.0,0.0,0.0,0.0,0.0,0.0,0.0,0.0,0.0,0.0,0.0,0.0,0.0,0.0,0.0,0.0,0.0,0.0,0.0,0.0,0.0,0.0,0.0,0.0,0.0,0.0,0.0,0.0,0.0,0.0,0.0,0.0,0.0,0.0,0.0,0.0,0.0,0.0,0.0,0.0,0.0,0.0,0.0,0.0,0.0,0.0,0.0,0.0,0.0,0.0,0.0,0.0,0.0,0.0,0.0,0.0,0.0,0.0,0.0,0.0,0.0,0.0,0.0,0.0,0.0,0.0,0.0,0.0,0.0,0.0,0.0,0.0,0.0,0.0,0.0,0.0,0.0,0.0,0.0,0.0,0.0,0.0,0.0,3.0026,3.0222,0.0,0.0,0.0,0.0,0.0,0.0,0.0,0.0,0.0,0.0,0.0,0.0,0.0,0.0,0.0,0.0,0.0,0.0,0.0,0.0,0.0,0.0,0.0,0.0,0.0,0.0,0.0,0.0,0.0,0.0,0.0,0.0,0.0,0.0,0.0,0.0,0.0,0.0,2.4715,2.4973,2.544,2.4993,2.5012,2.5456,0.0,0.0,0.0,0.0,0.0,0.0,0.0,0.0,0.0,0.0,0.0,0.0,0.0,0.0,0.0,0.0,0.0,0.0,0.0,0.0,0.0,0.0,0.0,0.0,0.0,0.0,0.0,0.0,0.0,0.0,0.0,0.0,0.0,0.0,0.0,0.0,0.0,0.0,0.0,0.0,0.0,0.0,0.0,0.0,0.0,0.0,0.0,0.0,0.0,0.0,0.0,0.0,0.0,0.0,0.0,0.0,0.0,0.0,0.0,0.0,0.0,0.0,0.0,0.0,0.0,0.0,0.0,0.0,0.0,0.0,2.9992,3.0066,0.0,0.0,0.0,0.0,0.0,0.0,0.0,0.0,0.0,0.0,0.0,0.0,0.0,0.0,0.0,0.0,0.0,0.0,0.0,0.0,0.0,0.0,0.0,2.051,2.0558,2.0701,2.0723,2.1093,0.0,0.0,0.0,0.0,0.0,0.0,0.0,2.4331,2.4687,2.5398,2.5407,2.5432,2.5503,2.5505,2.5575,2.5727,2.5592,0.0,0.0,0.0,0.0,0.0,0.0,0.0,0.0,0.0,0.0,0.0,0.0,0.0,0.0,0.0,0.0,0.0,0.0,0.0,0.0,0.0,0.0,0.0,0.0,0.0,0.0,0.0,0.0,0.0,0.0,0.0,0.0,0.0,0.0,0.0,0.0,0.0,0.0,0.0,0.0,0.0,0.0,0.0,0.0,0.0,0.0,0.0,0.0,0.0,0.0,0.0,0.0,0.0,0.0,0.0,0.0,0.0,0.0,0.0,0.0,0.0,0.0,0.0,3.0241,3.0215,3.0299,3.0041,2.9886,2.982,2.9943,2.9848,2.9607,2.9896,0.0,0.0,0.0,0.0,0.0,0.0,0.0,0.0,0.0,0.0,0.0,0.0,0.0,0.0,0.0,0.0,0.0,0.0,0.0,0.0,0.0,2.0497,2.0795,2.1561,2.1628,2.1971,2.2781,0.0,0.0,0.0,0.0,0.0,2.5205,2.5232,2.5283,2.5398,2.5395,2.5426,2.5492,2.5492,2.59,2.6599,2.59,2.5977,2.6638,0.0,0.0,0.0,0.0,0.0,0.0,0.0,0.0,0.0,0.0,0.0,0.0,0.0,0.0,0.0,0.0,0.0,0.0,0.0,0.0,0.0,0.0,0.0,0.0,0.0,0.0,0.0,0.0,0.0,0.0,0.0,0.0,0.0,0.0,0.0,0.0,0.0,0.0,0.0,0.0,0.0,3.0104,3.0022,0.0,0.0,0.0,0.0,0.0,0.0,0.0,0.0,0.0,0.0,0.0,0.0,0.0,3.0398,3.0398,3.0398,3.0398,3.0398,3.0367,3.0215,2.9965,3.0037,2.9851,2.9451,2.9608,0.0,2.9608,2.9644,0.0,0.0,0.0,0.0,0.0,0.0,0.0,0.0,0.0,0.0,0.0,0.0,0.0,0.0,0.0,0.0,0.0,0.0,0.0,0.0,0.0,2.1237,2.1578,2.2458,2.2525,2.2896,2.3738,2.3722,0.0,0.0,0.0,2.4945,2.533,2.5379,2.5407,2.5395,2.5884,2.6157,2.6248,2.6733,2.7187,2.7568,2.7218,2.7231,2.7524,2.753,0.0,0.0,0.0,0.0,0.0,0.0,0.0,0.0,0.0,0.0,0.0,0.0,0.0,0.0,0.0,0.0,0.0,0.0,0.0,0.0,0.0,0.0,0.0,0.0,0.0,0.0,0.0,0.0,0.0,0.0,0.0,0.0,0.0,0.0,0.0,0.0,0.0,0.0,0.0,3.0222,3.0169,3.0066,3.0174,3.026,0.0,0.0,0.0,0.0,0.0,0.0,0.0,0.0,0.0,3.0398,3.0398,3.0398,3.0398,3.0398,3.0398,3.0398,3.0299,3.0155,3.0007,2.9864,2.9697,2.9512,2.9492,2.9491,2.9492,2.957,2.968,2.9799,0.0,0.0,0.0,0.0,2.9531,2.9407,0.0,0.0,0.0,0.0,0.0,0.0,0.0,0.0,0.0,0.0,0.0,0.0,2.1737,2.201,2.2472,2.3358,2.3425,2.3795,2.4645,2.4598,2.4814,2.5441,2.5367,2.5303,2.5303,2.5582,2.5734,2.5738,2.6605,2.7075,2.7159,2.7791,2.8255,2.8507,2.8507,2.8487,2.8462,2.8443,2.8558,2.8764,0.0,0.0,0.0,0.0,0.0,0.0,0.0,0.0,0.0,0.0,0.0,0.0,0.0,0.0,0.0,0.0,0.0,0.0,0.0,0.0,0.0,0.0,0.0,0.0,0.0,0.0,0.0,0.0,0.0,0.0,0.0,0.0,0.0,0.0,0.0,0.0,0.0,3.0177,3.0142,3.0047,3.0085,3.0147,0.0,0.0,0.0,0.0,0.0,0.0,3.0398,3.0254,3.0241,3.0398,3.0398,3.0379,3.0379,3.0379,3.0379,3.0367,3.0182,3.0195,3.0342,3.0034,3.0001,3.0149,3.0064,3.002,2.9983,2.968,2.957,2.9608,2.957,2.957,2.9626,2.9673,2.9723,2.9741,0.0,0.0,0.0,0.0,0.0,0.0,0.0,0.0,0.0,0.0,0.0,2.1681,2.1792,2.2541,2.339,2.4264,2.433,2.4673,2.5492,2.5477,2.5434,2.5414,2.5341,2.5302,2.5303,2.6169,2.6629,2.6625,2.7503,2.7973,2.8043,2.8082,2.8539,2.9331,2.9331,2.9368,2.943,2.9356,2.9816,3.0567,3.0433,0.0,0.0,0.0,0.0,0.0,0.0,0.0,0.0,0.0,0.0,0.0,0.0,0.0,0.0,0.0,0.0,0.0,0.0,0.0,0.0,0.0,0.0,0.0,0.0,0.0,0.0,0.0,0.0,0.0,0.0,0.0,0.0,0.0,0.0,0.0,0.0,0.0,0.0,2.9896,2.9872,0.0,0.0,0.0,0.0,3.0109,3.0109,3.0196,3.0398,3.0398,3.0398,3.0398,3.0398,3.0367,3.0304,3.0304,3.0304,3.0304,3.0161,3.043,3.1042,3.0829,3.1084,3.1693,3.1693,3.1671,3.1541,3.0039,2.9491,2.9589,2.9451,2.9491,2.9683,3.0307,3.0541,3.0652,0.0,0.0,0.0,0.0,0.0,0.0,0.0,0.0,2.0597,2.1157,2.1503,2.2154,2.3348,2.3758,2.4293,2.5152,2.5232,2.5342,2.5578,2.5546,2.5467,2.5395,2.5871,2.64,2.6959,2.6785,2.6966,2.7542,2.8412,2.8846,2.8883,2.9464,2.9868,3.0161,3.0161,3.0217,3.0276,3.021,3.0354,3.0626,3.054,3.053,0.0,0.0,0.0,0.0,0.0,0.0,0.0,0.0,0.0,0.0,0.0,0.0,0.0,0.0,0.0,0.0,0.0,0.0,0.0,0.0,0.0,0.0,0.0,0.0,0.0,0.0,0.0,0.0,0.0,0.0,0.0,0.0,0.0,0.0,0.0,0.0,0.0,2.9883,2.9769,0.0,2.9886,2.9902,2.9918,2.9962,2.9962,3.0011,3.0071,3.009,3.0133,3.0196,3.0114,3.0352,3.093,3.0822,3.0991,3.1455,3.1423,3.1468,3.1615,3.1534,3.1573,3.1668,3.1668,3.1668,3.1631,3.1057,3.0887,3.0998,3.0971,3.0974,3.1036,3.1288,3.1355,3.1392,0.0,0.0,0.0,0.0,0.0,0.0,0.0,0.0,2.1055,2.1623,2.2218,2.3037,2.4249,2.4644,2.5076,2.5646,2.5679,2.5645,2.5601,2.5447,2.5499,2.5812,2.6603,2.7181,2.7479,2.7556,2.7853,2.8431,2.9302,2.9747,2.9747,3.0327,3.0597,3.0604,3.0604,3.0621,3.0673,3.0621,3.0593,3.0602,3.0559,3.0559,3.0588,0.0,0.0,0.0,0.0,0.0,0.0,0.0,0.0,0.0,0.0,0.0,0.0,0.0,0.0,0.0,0.0,0.0,0.0,0.0,0.0,0.0,0.0,0.0,0.0,0.0,0.0,0.0,0.0,0.0,0.0,0.0,0.0,0.0,0.0,2.9767,2.9734,2.9883,2.9681,2.9608,2.9786,2.9751,2.9753,2.9803,2.9869,2.9918,2.9981,3.0247,3.043,3.05,3.0633,3.0949,3.1552,3.1447,3.1619,3.2108,3.2031,3.2117,3.2306,3.224,3.2293,3.241,3.241,3.241,3.241,3.241,3.2458,3.2497,3.1982,3.1782,3.1819,3.2098,3.2191,3.2228,0.0,0.0,0.0,0.0,0.0,0.0,0.0,2.1101,2.1706,2.1737,2.3224,2.4315,2.435,2.5155,2.5702,2.5709,2.5642,2.5601,2.5598,2.5313,2.563,2.6732,2.747,2.7538,2.6831,2.8443,2.9303,2.934,3.0192,3.0598,3.0598,3.0598,3.0598,3.0598,3.0598,3.0598,3.0598,3.0598,3.0606,3.0602,3.0597,3.0598,3.0598,0.0,0.0,0.0,0.0,0.0,0.0,0.0,0.0,0.0,0.0,0.0,0.0,0.0,0.0,0.0,0.0,0.0,0.0,0.0,0.0,0.0,0.0,0.0,0.0,0.0,0.0,0.0,0.0,0.0,0.0,0.0,0.0,0.0,2.9864,2.9715,2.9662,2.9864,2.9608,2.9451,2.957,2.9471,2.947,2.9626,2.9823,3.0003,3.0138,3.0958,3.142,3.1337,3.1896,3.2185,3.2125,3.2143,3.2123,3.2142,3.1955,3.2296,3.3123,3.2932,3.3259,3.3998,3.3998,3.3998,3.3998,3.3998,3.3998,3.385,3.2353,3.1811,3.1949,3.2748,3.3027,3.3138,0.0,0.0,0.0,0.0,0.0,0.0,0.0,2.1133,2.1931,2.2552,2.3614,2.4566,2.5231,2.5546,2.5701,2.5709,2.5642,2.5527,2.533,2.592,2.6901,2.8375,2.7489,2.774,2.9409,2.9352,2.9603,3.023,3.0482,3.0598,3.0598,3.0598,3.0598,3.0598,3.0598,3.0598,3.0598,3.0598,3.0607,3.0597,3.0607,3.0598,3.0598,0.0,0.0,0.0,0.0,0.0,0.0,0.0,0.0,0.0,0.0,0.0,0.0,0.0,0.0,0.0,0.0,0.0,0.0,0.0,0.0,0.0,0.0,0.0,0.0,0.0,0.0,0.0,0.0,0.0,0.0,0.0,2.9451,2.9471,2.9531,2.9491,2.9471,2.9531,2.947,2.9409,2.9451,2.9409,2.9669,3.0269,3.0602,3.0989,3.145,3.1979,3.2263,3.2235,3.2072,3.231,3.2972,3.2687,3.2815,3.334,3.3283,3.3368,3.3615,3.3537,3.364,3.3842,3.3842,3.3842,3.3842,3.3842,3.3868,3.3884,3.3499,3.3383,3.342,3.3716,3.3814,3.39,0.0,0.0,0.0,0.0,0.0,0.0,0.0,2.1655,2.2538,2.3436,2.4303,2.5057,2.5642,2.5699,2.5694,2.5705,2.5601,2.5646,2.5817,2.7015,2.7768,2.7919,2.8112,2.8791,2.9979,2.9902,3.0095,3.0598,3.0598,3.0598,3.0598,3.0598,3.0598,3.0598,3.0598,3.0598,3.0598,3.0598,3.0598,3.0598,3.0598,3.0598,3.0598,3.0559,3.053,3.053,3.054,3.054,3.053,3.05,0.0,0.0,0.0,0.0,0.0,0.0,0.0,0.0,0.0,0.0,0.0,0.0,0.0,0.0,0.0,0.0,0.0,0.0,0.0,0.0,0.0,0.0,0.0,0.0,2.9407,2.9407,2.9407,2.9407,2.9407,2.9407,2.9704,2.9909,2.9909,3.0225,3.0615,3.1058,3.1353,3.1676,3.2089,3.2562,3.2845,3.29,3.2786,3.2994,3.3487,3.3278,3.3374,3.3807,3.3807,3.3807,3.3807,3.3807,3.3807,3.3807,3.3807,3.3807,3.3807,3.3807,3.3815,3.3868,0.0,0.0,0.0,0.0,3.4099,3.4148,0.0,0.0,0.0,0.0,0.0,0.0,0.0,2.239,2.323,2.419,2.5055,2.5628,2.5681,2.5691,2.5698,2.5698,2.5591,2.5835,2.6641,2.799,2.8145,2.6675,2.9006,3.0046,2.9448,3.0182,3.0588,3.0588,3.0588,3.0588,3.0598,3.0598,3.0598,3.0598,3.0598,3.0598,3.0598,3.0598,3.0598,3.0598,3.0598,3.0598,3.0598,3.0598,3.0598,3.0598,3.0598,3.0598,3.0598,3.053,0.0,0.0,0.0,0.0,0.0,0.0,0.0,0.0,0.0,0.0,0.0,0.0,0.0,0.0,0.0,0.0,0.0,0.0,0.0,0.0,0.0,0.0,0.0,0.0,2.9481,2.9537,2.9537,2.9611,2.9649,2.9556,3.0262,3.0745,3.0745,3.1374,3.1819,3.1912,3.2067,3.2253,3.2506,3.3002,0.0,0.0,0.0,3.3895,3.386,3.3834,3.3807,3.3807,3.3807,3.3807,3.3807,3.3807,3.3807,3.3807,3.3807,3.3807,3.3807,3.3807,3.3807,3.3807,3.3868,3.3921,3.3998,3.3998,3.4049,3.4074,0.0,0.0,0.0,0.0,0.0,0.0,0.0,2.2376,2.3248,2.4189,2.5063,2.5639,2.5698,2.5707,2.5693,2.5698,2.5591,2.5812,2.6574,2.6761,2.7369,2.851,2.9083,2.9635,3.0177,3.0342,3.0469,3.0519,3.052,3.052,3.052,3.0569,3.0598,3.0598,3.0598,3.0598,3.0598,3.0598,3.0598,3.0598,3.0598,3.0598,3.0598,3.0598,3.0598,3.0598,3.0598,3.0598,3.0598,3.0588,3.0598,3.0598,3.0588,3.0439,0.0,0.0,0.0,0.0,0.0,0.0,0.0,0.0,0.0,0.0,0.0,0.0,0.0,0.0,0.0,0.0,0.0,0.0,0.0,2.9407,2.9946,3.0373,3.0373,3.0931,3.1095,3.0466,3.1098,3.1559,3.1559,3.1708,3.2038,3.2641,3.2847,3.3237,3.3863,3.4164,3.4304,3.4264,3.4181,3.4148,3.4124,3.3895,3.3807,3.3807,3.3807,0.0,3.3807,3.3807,3.3807,3.3807,3.3807,3.3807,3.3807,3.3807,3.3807,3.3807,3.3815,3.3842,3.3921,3.3972,3.3998,3.4023,0.0,0.0,0.0,0.0,0.0,0.0,0.0,2.2634,2.3373,2.4716,2.5273,2.5549,2.5559,2.5589,2.5591,2.5556,2.5867,2.6011,2.5915,2.7041,2.7934,2.8486,2.9297,2.9963,3.0398,3.0428,3.0469,3.0499,3.049,3.05,3.0491,3.053,3.0569,3.0598,3.0598,3.0598,3.0598,3.0598,3.0598,3.0598,3.0598,3.0598,3.0598,3.0598,3.0598,3.0598,3.0598,3.0598,3.0588,3.051,3.05,3.049,3.0466,3.0311,3.0118,0.0,0.0,0.0,0.0,0.0,0.0,0.0,0.0,0.0,0.0,0.0,0.0,0.0,0.0,2.9407,2.9407,0.0,3.0002,3.0002,3.0689,3.1188,3.1188,3.1875,3.2098,3.1303,3.1894,3.2395,3.2395,3.2748,3.3133,3.3469,3.3566,3.3822,3.4274,3.425,3.4255,3.4348,3.413,3.3998,3.3998,3.4265,3.4412,3.4412,3.4835,3.5055,3.5055,3.5055,3.5055,3.5055,3.5055,3.5055,3.5018,3.4392,3.4152,3.4105,3.3715,3.3662,3.3842,3.3895,3.3947,3.3998,0.0,0.0,0.0,0.0,0.0,0.0,0.0,2.2894,2.3499,2.5244,2.5468,2.5444,2.5394,2.5401,2.5372,2.5262,2.5899,2.5986,2.5198,2.7497,2.8579,2.7928,2.9509,3.0406,3.0406,3.0447,3.0488,3.0488,3.0469,3.049,3.051,3.0491,3.053,3.0588,3.0588,3.0588,3.0588,3.0588,3.0588,3.0598,3.0559,3.0559,3.055,3.0559,3.0569,3.0598,3.0559,3.054,3.054,3.0417,3.0383,3.0371,3.0318,3.0199,3.0019,2.9834,2.9698,0.0,0.0,0.0,0.0,0.0,0.0,0.0,0.0,0.0,2.9407,2.9407,2.9518,2.963,2.963,3.0299,3.0838,3.0838,3.1526,3.2024,3.2024,3.273,3.299,3.234,3.2841,3.3231,3.3231,3.3826,3.4148,3.4099,3.4023,3.4049,3.4197,3.3947,3.3895,3.4124,3.4042,3.4027,3.4027,3.4853,3.5247,3.5247,3.5973,3.6303,3.6303,3.6285,3.6285,3.6303,3.6227,3.6179,3.6095,3.5036,3.4609,3.456,3.3985,3.3938,3.4165,3.41,3.4126,3.4223,0.0,0.0,0.0,0.0,0.0,0.0,0.0,0.0,2.3429,2.5183,2.5369,2.5312,2.5299,2.5158,2.4992,2.4791,2.508,2.5201,2.5031,2.6918,2.7986,2.789,2.9506,3.041,3.041,3.041,3.041,3.041,3.0406,3.0439,3.0509,3.051,3.0501,3.052,3.052,3.052,3.052,3.052,3.0559,3.0588,3.046,3.0409,3.0417,3.0355,3.0425,3.0579,3.041,3.0359,3.0417,3.0343,3.0305,3.0305,3.0292,3.0279,3.0213,2.9883,2.9784,2.9716,2.947,2.9407,2.9407,2.9407,2.9407,2.9407,0.0,0.0,2.9407,2.9407,2.9983,3.0485,3.0485,3.1136,3.1652,3.1652,3.234,3.286,3.286,3.3547,3.403,3.3937,3.4011,3.4067,3.4067,3.4093,3.4074,3.4023,3.3947,3.3895,3.386,3.3815,3.3815,3.3842,3.4504,3.4862,3.4862,3.5734,3.6156,3.6156,3.6248,3.6303,3.6303,3.619,3.619,3.6285,3.5903,3.576,3.5729,3.5247,3.5025,3.5059,3.5317,3.5457,3.5447,3.5155,3.4982,3.5009,0.0,0.0,0.0,0.0,0.0,0.0,0.0,0.0,0.0,2.5061,2.5256,2.5179,2.5034,2.4828,2.4686,2.4637,2.486,2.4998,2.5006,2.672,2.7773,2.789,2.9397,3.0286,3.0398,3.0398,3.0398,3.0398,3.0402,3.0406,3.0439,3.0449,3.0471,3.0491,3.05,3.05,3.0491,3.05,3.0449,3.0364,3.0309,3.0228,3.0169,3.0056,3.0114,3.0235,3.0196,3.0196,0.0,3.0152,3.0128,3.0094,3.0034,3.0003,2.9956,2.9698,2.9645,2.9589,2.945,2.9407,2.9407,2.9407,2.9407,2.9407,2.9407,2.9407,2.9537,3.0002,3.0373,3.0745,3.1229,3.1949,3.2488,3.2488,3.3157,3.3696,3.3696,3.3993,3.4197,3.4197,3.4173,3.4148,3.4148,3.4074,3.4023,3.3947,3.3921,3.3868,3.3788,3.3807,3.4009,3.4486,3.4807,3.5229,3.5752,3.6578,3.6982,3.7,3.7459,3.7649,3.7583,3.7503,3.7361,3.717,3.6988,3.6664,3.6181,3.5629,3.5361,3.5308,3.5137,3.5321,3.5724,3.5813,3.5845,3.5836,0.0,0.0,0.0,0.0,0.0,0.0,0.0,0.0,0.0,0.0,2.5019,2.5019,2.4723,2.4524,2.4408,2.4407,2.4613,2.4795,2.4855,2.6526,2.7599,2.775,2.927,3.0169,3.0311,3.0311,3.0355,3.0398,3.0355,3.0348,3.0398,3.0398,3.0439,3.0471,3.0479,3.0479,3.0471,3.0428,3.034,3.0184,3.0117,3.0032,2.9931,2.982,2.9803,2.9851,2.9946,3.0007,3.0007,2.994,2.9926,2.991,2.9808,2.9773,2.9737,2.9551,2.9453,2.939,2.9326,2.9283,2.9222,2.9222,2.9222,2.9222,2.9222,2.945,2.9805,3.0331,3.088,3.1429,3.1936,3.2762,3.3324,3.3324,3.3807,3.4197,3.4197,3.4173,3.4173,3.4173,3.4099,3.4049,3.4049,3.3998,3.3947,3.3895,3.3868,3.3842,3.3788,3.3807,3.4174,3.4954,3.521,3.5742,3.6567,3.7374,3.7778,3.7747,3.8334,3.8578,3.8478,3.8364,3.8117,3.7756,3.756,3.7152,3.6545,3.5988,3.5722,3.567,3.5364,3.558,3.6101,3.6495,3.6662,3.6662,0.0,0.0,0.0,0.0,0.0,0.0,0.0,0.0,0.0,0.0,0.0,0.0,0.0,2.4284,2.4135,2.3937,2.4229,2.4441,2.4512,2.6271,2.735,2.7399,2.9141,3.0089,3.0109,3.0109,3.0196,3.0398,3.0196,3.0203,3.0398,3.0398,3.0398,3.0398,3.0398,3.0398,3.0386,3.0248,3.0209,3.0171,2.9912,2.9817,2.9801,2.9737,2.9589,2.9453,2.9645,2.9754,2.9784,2.9719,2.972,2.972,2.9701,2.9683,2.9664,2.955,2.9328,2.9112,2.9112,2.8975,2.8839,2.8839,2.8839,2.8839,2.8839,2.9562,3.0221,3.0038,3.1562,3.2887,3.2711,3.35,3.416,3.416,3.4179,3.4197,3.4197,3.4148,3.4099,3.4099,3.3998,3.3895,3.3895,3.3895,3.3895,3.3895,3.3842,3.3788,3.3807,3.3807,3.4174,3.4954,3.5826,3.6604,3.7266,3.8071,3.8442,3.8378,3.8415,3.8415,3.8382,3.8016,3.7774,3.7667,3.6939,3.662,3.658,3.6284,3.6174,3.6216,3.6666,3.6829,3.6907,3.7324,3.7455,3.7521,0.0,0.0,0.0,0.0,0.0,0.0,0.0,0.0,0.0,0.0,0.0,0.0,0.0,0.0,0.0,0.0,2.4118,2.43,2.4442,2.5604,2.6613,2.7297,2.8383,2.9282,2.9962,2.9981,3.0011,3.0075,3.0011,2.9992,3.0066,3.015,3.0144,3.0075,3.0163,3.0235,3.0267,3.0085,3.0011,2.9977,2.975,2.9608,2.9531,2.951,2.9388,2.9222,0.0,2.9251,2.9217,2.9172,2.9169,2.9169,2.9169,2.9169,2.9148,2.9056,2.8962,2.891,2.891,2.8863,2.8797,2.8797,2.8797,2.8797,2.8797,2.946,3.0234,3.0706,3.1887,3.2939,3.3397,3.3889,3.4197,3.4197,3.4197,3.4197,3.4197,3.4148,3.4099,3.4099,3.3972,3.3895,3.3895,3.3842,3.3815,3.3815,3.3815,3.3807,3.3807,3.4321,3.4954,3.5703,3.6527,3.732,3.8013,3.8319,3.8415,3.8382,3.8336,3.8204,3.7949,3.7685,3.7321,3.6776,3.6533,3.6224,3.5941,3.5949,3.5993,3.6062,3.636,3.6615,3.69,3.7055,3.7453,3.7838,0.0,0.0,0.0,0.0,0.0,0.0,0.0,0.0,0.0,0.0,0.0,0.0,0.0,0.0,0.0,0.0,0.0,2.4118,2.4118,2.5079,2.6042,2.6914,2.7755,2.8615,2.955,2.9476,2.9458,2.9494,2.9568,2.966,2.9729,2.9988,3.0018,2.9915,3.0128,3.0196,3.0155,2.9981,2.9902,2.9869,2.9626,2.9491,2.9386,2.9304,2.9156,0.0,2.8929,2.8797,2.8664,2.8832,2.8879,2.8879,2.8879,2.8879,2.8855,2.8821,2.8767,2.8694,2.8694,2.8644,2.8594,2.8594,2.8594,2.8594,2.8594,2.9497,3.0448,3.0876,3.209,3.3261,3.3697,3.4023,3.4197,3.4197,3.4197,3.4197,3.4173,3.4099,3.4049,3.4023,3.3921,3.3868,3.3868,3.3834,3.3807,3.3807,3.3807,3.3807,3.3807,3.4578,3.5329,3.6076,3.69,3.7643,3.8368,3.8368,3.8336,3.8336,3.8289,3.8036,3.7613,3.7395,3.6939,3.6301,3.6131,3.5871,3.5622,3.5711,3.5861,3.5949,3.6122,3.6402,3.6638,3.6678,3.719,3.7809,0.0,0.0,0.0,0.0,0.0,0.0,0.0,0.0,0.0,0.0,0.0,0.0,0.0,0.0,0.0,0.0,0.0,0.0,2.361,2.4668,2.5575,2.6194,2.7166,2.8067,2.8876,2.8686,2.8631,2.8765,2.896,2.9163,2.9344,2.9807,2.9958,2.9834,3.0174,3.0209,3.0032,2.9899,2.9853,2.9836,2.9511,2.9347,2.9326,2.9134,2.8975,2.8749,2.8569,2.838,2.8264,2.8644,2.8749,2.8749,2.8749,2.8749,2.8749,2.8749,2.8644,2.8466,2.8466,2.8353,2.8182,2.8182,2.8182,2.82,2.8235,2.9609,3.0818,3.0624,3.2319,3.3834,0.0,0.0,3.4197,3.4197,3.4197,3.4173,3.4099,3.4049,3.3972,0.0,0.0,0.0,0.0,0.0,3.3807,3.3807,3.3807,3.3825,3.3862,3.4633,3.5402,3.6131,3.6924,3.7666,3.8307,3.8307,3.8241,3.814,3.814,3.7898,3.7432,3.7055,3.6638,3.6259,3.5783,3.5622,3.5622,3.5728,3.5773,3.5817,3.6079,3.6165,3.6225,3.6276,3.6781,3.7432,0.0,0.0,0.0,0.0,0.0,0.0,0.0,0.0,0.0,0.0,0.0,0.0,0.0,0.0,0.0,0.0,0.0,0.0,2.3544,2.3851,2.4342,2.492,2.5769,2.6616,2.741,2.7903,2.8226,2.8355,2.8417,2.8492,2.8597,2.8868,2.8891,2.8717,2.9063,2.9187,2.9126,2.9092,2.9132,2.9202,2.9034,2.885,2.8742,2.8845,2.8694,2.844,2.8466,2.838,2.8227,2.83,0.0,0.0,0.0,2.8353,2.8353,2.8353,2.8318,2.8291,2.8291,2.8237,2.8182,2.8182,2.8182,2.8342,2.8976,2.9891,3.076,3.126,3.2622,3.3643,0.0,0.0,0.0,3.4173,3.4023,0.0,3.4074,3.3998,0.0,3.3895,0.0,3.3807,3.3807,3.3807,0.0,3.3807,3.3807,3.4064,3.4642,3.5514,3.6263,3.69,3.7703,3.8168,3.8207,3.8225,3.8054,3.7667,3.7667,3.7283,3.6597,3.6492,3.6199,3.5783,3.5667,3.5622,3.5622,3.5622,3.5728,3.5817,3.5993,3.6122,3.6225,3.6276,3.6597,3.7017,0.0,0.0,0.0,0.0,0.0,0.0,0.0,0.0,0.0,0.0,0.0,0.0,0.0,0.0,0.0,0.0,0.0,0.0,0.0,2.3364,2.3655,2.4239,2.4706,2.5473,2.6596,2.6933,2.7268,2.7666,2.7805,2.7946,2.8012,2.8345,2.8438,2.8306,2.8644,2.8782,2.8704,2.8706,2.88,0.0,0.0,2.8547,2.8504,2.8464,2.8326,2.8183,2.8255,2.8246,0.0,0.0,0.0,2.8182,2.8182,2.8182,2.8182,2.8182,0.0,2.8182,2.8182,2.8182,2.8182,2.8182,2.8182,2.8396,2.9226,2.9976,3.0743,3.1528,3.2619,3.3473,3.3577,3.3625,3.3716,0.0,0.0,0.0,3.3752,3.3743,3.3716,0.0,3.3815,0.0,3.3807,3.3807,3.3807,3.3807,3.4137,3.4523,3.4972,3.6098,3.6881,3.7197,3.7949,3.8322,3.8192,3.8192,3.7967,3.7505,3.7505,3.7094,3.6301,3.6301,3.6045,3.5622,3.5622,3.5622,3.5622,3.5622,3.5622,3.5728,3.5861,3.5975,3.6122,3.6233,3.6533,3.6821,0.0,0.0,0.0,0.0,0.0,0.0,0.0,0.0,0.0,0.0,0.0,0.0,0.0,0.0,0.0,0.0,0.0,0.0,0.0,0.0,2.3255,2.3707,2.3801,2.4486,2.5813,2.5757,2.6092,2.6838,2.7172,2.7422,2.7525,2.7996,2.8216,2.8192,2.8494,2.8547,2.8456,2.8463,2.8537,2.8627,2.8332,2.8272,2.835,0.0,2.7971,2.7943,2.7979,2.8071,0.0,0.0,2.8182,2.8182,2.8182,2.8182,2.8182,2.8182,2.8182,2.8182,2.8182,2.8182,2.8182,2.8182,2.8182,2.8431,2.9351,3.0047,3.0761,3.1671,3.257,3.328,3.3502,3.3426,3.3408,3.3542,0.0,3.3118,3.3314,3.3332,3.3419,3.3634,3.3707,3.3734,3.3734,3.3762,3.3844,3.3954,3.4724,3.5155,3.5155,3.6527,3.7296,3.7348,3.7976,3.8241,3.8106,3.8106,3.7845,3.7358,3.7358,3.6939,3.6216,3.6216,3.6002,3.5622,3.5622,3.5622,3.5622,3.5622,3.5622,3.5622,3.5773,3.5905,3.6019,3.6165,3.6468,3.6781,0.0,0.0,0.0,0.0,0.0,0.0,0.0,0.0,0.0,0.0,2.145,2.2184,0.0,0.0,0.0,0.0,0.0,0.0,0.0,0.0,0.0,2.2199,2.2768,2.3204,2.3486,2.4315,2.5111,2.5924,2.632,2.6741,2.7195,2.7286,2.7365,2.7465,2.7666,2.7707,2.7713,2.7811,2.788,2.788,2.7811,2.7742,2.7672,2.773,0.0,0.0,2.7911,0.0,0.0,2.8154,2.8182,2.8182,2.8182,2.8182,2.8182,2.8182,2.8182,2.8182,2.8182,2.8182,2.8182,2.8182,2.8182,2.8556,2.9993,3.0422,0.0,0.0,3.2947,3.322,3.325,3.3426,3.3484,3.3361,3.3243,3.3136,3.2996,3.2952,3.2921,0.0,3.3214,3.3379,3.3379,3.3652,0.0,3.4734,3.5587,3.6064,3.6064,3.6856,3.7539,3.8103,3.8168,3.802,3.7632,3.7632,3.7246,3.6533,3.6533,3.6241,3.5694,3.5694,3.5667,3.5622,3.5622,3.5622,3.5622,3.5622,3.5622,3.5622,3.5773,3.5905,3.6019,3.6165,3.6276,3.6367,0.0,0.0,0.0,0.0,0.0,0.0,0.0,1.9338,1.9246,1.9343,2.0076,2.099,2.2043,2.2495,2.2845,0.0,0.0,0.0,0.0,0.0,0.0,0.0,2.2142,2.2415,2.2637,2.3144,2.3963,2.5095,0.0,2.593,2.6367,2.659,2.6758,2.6891,2.6971,2.7117,2.739,2.7465,2.7509,2.76,2.7526,2.7496,2.7496,0.0,0.0,0.0,0.0,0.0,0.0,0.0,2.8099,2.8099,2.8182,2.8182,2.8182,2.8182,2.8081,2.7996,2.8154,2.8053,2.7979,2.8154,2.8182,2.8592,3.0154,0.0,0.0,0.0,3.2979,3.3086,3.319,3.305,0.0,3.3111,3.2766,3.2537,3.2716,3.2619,0.0,3.2763,3.2921,3.3032,0.0,3.3184,3.3599,3.4431,3.5245,3.6072,3.6783,3.7253,3.7535,3.7596,3.7541,3.7413,3.7208,3.7208,3.69,3.6301,3.6301,3.6045,3.5622,3.5622,3.5622,3.5622,3.5622,3.5622,3.5622,3.5622,3.5622,3.5622,3.5667,3.5756,3.5905,3.5949,3.6122,3.6251,0.0,0.0,0.0,0.0,0.0,0.0,0.0,1.9261,1.9001,1.8601,1.8889,1.9739,2.1392,2.1856,2.2212,0.0,0.0,0.0,0.0,0.0,0.0,0.0,0.0,0.0,0.0,0.0,0.0,2.4067,2.4587,0.0,0.0,0.0,0.0,0.0,2.6454,2.6724,2.7137,2.725,2.7376,0.0,0.0,2.7376,0.0,0.0,0.0,0.0,0.0,0.0,0.0,0.0,2.7911,2.7996,2.7996,2.8099,2.82,2.8109,2.7893,2.773,2.7922,2.7836,2.776,2.8025,2.8154,2.8556,2.9958,3.0404,0.0,3.2331,3.2791,3.2948,3.3037,0.0,3.2521,0.0,3.2318,3.2055,3.2404,0.0,3.2283,0.0,3.2651,0.0,3.2684,3.2763,3.3223,3.4171,3.5116,3.6125,3.7221,3.7433,3.7339,3.69,3.69,3.686,3.6781,3.6781,3.6557,3.6131,3.6131,3.5958,3.5622,3.5622,3.5622,3.5622,3.5622,3.5622,3.5622,3.5622,3.5622,3.5622,3.5622,3.5667,3.5817,3.5817,3.5949,3.6225,0.0,0.0,0.0,0.0,0.0,0.0,0.0,1.913,1.8896,1.8788,1.8653,1.8825,1.9482,2.0707,2.1497,0.0,0.0,0.0,0.0,0.0,0.0,0.0,0.0,0.0,0.0,0.0,0.0,2.2573,2.3535,0.0,0.0,0.0,0.0,0.0,0.0,2.6539,2.6624,2.7087,0.0,0.0,0.0,0.0,0.0,0.0,0.0,0.0,0.0,0.0,0.0,0.0,0.0,2.794,2.7487,2.776,2.8154,2.7836,0.0,0.0,2.7369,2.7491,2.7701,2.773,2.795,2.8413,2.9298,0.0,3.0761,3.1617,3.2384,3.2852,3.2705,3.2816,3.2752,3.2266,3.2283,3.2231,3.1929,0.0,0.0,3.1893,0.0,0.0,3.2352,3.2619,3.3437,3.4989,3.6273,3.7071,3.7216,3.7099,3.6999,3.69,3.69,3.6701,3.6385,3.6385,3.6131,3.565,3.565,3.5667,3.5622,3.5622,3.5622,3.5622,3.5622,3.5622,3.5622,3.5622,3.5622,3.5622,3.5622,3.5667,3.5817,3.5817,3.5949,3.6225,0.0,0.0,0.0,0.0,0.0,0.0,1.9485,1.9227,1.8983,1.866,1.843,1.8367,1.8491,1.9307,2.0221,2.1155,0.0,0.0,0.0,0.0,0.0,0.0,0.0,0.0,0.0,0.0,2.1047,2.1752,2.2394,0.0,0.0,0.0,0.0,0.0,0.0,2.635,2.6873,2.7103,0.0,0.0,0.0,0.0,0.0,0.0,0.0,0.0,0.0,0.0,0.0,0.0,0.0,0.0,2.7334,2.7457,0.0,0.0,2.7338,2.71,2.7181,2.7149,2.7195,2.7595,2.7789,2.8163,2.9151,0.0,3.0743,3.1528,3.2331,3.2852,3.2639,3.2588,3.2488,3.2266,3.2283,3.2249,3.2001,3.2073,0.0,3.1837,3.1929,0.0,0.0,0.0,3.2861,3.4436,3.5745,3.6474,3.6474,3.6557,3.6433,3.6139,3.6139,3.6028,3.5871,3.5871,3.5783,3.5622,3.5622,3.5622,3.5622,3.5622,3.5622,3.5622,3.5622,3.5622,3.5622,3.5622,3.5622,3.5622,3.5622,3.5622,3.5667,3.5667,3.5844,3.6079,0.0,0.0,0.0,0.0,0.0,1.9612,1.9513,1.9277,1.9,1.866,1.843,1.8225,1.8074,1.8359,1.9065,2.0295,2.1063,0.0,0.0,0.0,0.0,0.0,0.0,0.0,0.0,0.0,2.0535,2.1013,2.1483,2.1827,0.0,0.0,2.3707,2.4232,0.0,0.0,0.0,0.0,0.0,0.0,0.0,0.0,0.0,0.0,0.0,0.0,0.0,0.0,0.0,0.0,0.0,0.0,0.0,0.0,0.0,0.0,2.7085,2.6791,2.6875,2.6791,2.6808,2.7289,2.7474,2.7782,0.0,0.0,3.0267,3.1141,3.1974,3.2535,3.2519,3.2386,3.2283,3.2161,3.2161,3.2161,3.2179,3.2161,0.0,0.0,0.0,3.18,3.18,3.2214,3.2921,3.4007,3.5265,3.6019,3.6019,3.6045,3.5958,3.5622,3.5622,3.5622,3.5622,3.5622,3.5622,3.5622,3.5622,3.5622,3.5622,3.5622,3.5622,3.5622,3.5622,3.5622,3.5622,3.5622,3.5622,3.5622,3.5622,3.5622,3.5622,3.5622,3.58,3.6019,0.0,0.0,0.0,0.0,0.0,0.0,1.9499,1.9164,1.8913,1.8914,1.8676,1.8426,1.8208,1.8074,1.8223,1.8781,2.0289,0.0,0.0,0.0,0.0,0.0,0.0,0.0,0.0,0.0,2.0304,2.032,2.0983,2.1322,2.1337,2.1978,2.2655,2.3341,0.0,0.0,0.0,0.0,0.0,0.0,0.0,0.0,0.0,0.0,0.0,0.0,0.0,0.0,0.0,0.0,0.0,0.0,0.0,0.0,0.0,0.0,2.7006,2.6875,2.6329,2.6452,2.6691,2.6725,2.6956,2.7307,0.0,2.8346,2.9211,3.0291,3.1153,3.1845,3.2212,3.2283,3.2179,3.1856,3.18,3.1929,3.2249,3.202,0.0,0.0,0.0,3.18,3.18,3.3162,3.4059,3.4093,3.5265,3.6019,3.6019,3.5756,3.5622,3.5622,3.5622,3.5622,3.5622,3.5622,3.5622,3.5622,3.5622,3.5622,3.5622,3.5622,3.5622,3.5622,3.5622,3.5622,3.5622,3.5622,3.5622,3.5622,3.5622,3.5622,3.5622,3.5773,3.5888,3.6019,0.0,0.0,0.0,0.0,0.0,0.0,0.0,1.9394,1.923,1.9002,1.8715,1.8506,1.8348,1.8142,1.8034,1.8109,1.9495,0.0,0.0,0.0,0.0,0.0,0.0,0.0,0.0,0.0,2.0527,2.0304,2.052,2.0628,2.0643,2.1322,2.2133,2.3048,2.3877,2.5,0.0,0.0,0.0,0.0,0.0,0.0,0.0,0.0,0.0,0.0,0.0,0.0,0.0,0.0,0.0,0.0,0.0,0.0,0.0,2.6469,2.6556,0.0,2.6274,2.6274,2.6417,2.6624,2.6791,2.7021,2.7565,2.8328,2.9052,2.9632,3.0796,3.1698,3.1691,3.2035,3.2232,3.2037,3.2091,3.2091,0.0,0.0,0.0,3.1948,3.1856,3.18,3.18,3.2697,3.3507,3.4042,3.4868,3.5514,3.6002,3.5844,3.5667,3.5622,3.5622,3.5622,3.5622,3.5622,3.5622,3.5622,3.5622,3.5622,3.5622,3.5622,3.5622,3.5622,3.5622,3.5622,3.5622,3.5622,3.5622,3.5622,3.5622,3.5622,3.5622,3.5773,3.5888,3.6019,0.0,0.0,0.0,0.0,0.0,0.0,0.0,1.9462,1.9305,1.9101,1.8789,1.8584,1.8506,1.8211,1.8023,1.8057,1.9337,0.0,0.0,0.0,0.0,0.0,0.0,0.0,2.1183,2.0942,2.0695,2.0497,2.035,2.0304,2.032,2.0736,2.1419,2.2342,2.329,2.4414,0.0,0.0,0.0,0.0,0.0,0.0,2.5807,0.0,0.0,0.0,0.0,0.0,0.0,0.0,0.0,0.0,0.0,0.0,0.0,0.0,2.6208,2.633,0.0,2.6168,2.6239,2.64,2.6469,0.0,2.7195,2.7826,2.8448,2.9066,3.0279,3.1271,3.1367,3.1892,3.2266,3.2108,3.2108,3.2091,0.0,0.0,0.0,3.1837,0.0,0.0,3.18,3.2472,3.311,3.3593,3.4472,3.5137,3.5574,3.5647,3.5684,3.5622,3.5622,3.5622,3.5622,3.5622,3.5622,3.5622,3.5622,3.5622,3.5577,3.5379,3.5424,3.5577,3.5379,3.5424,0.0,3.5622,3.5622,3.5622,3.5622,3.5622,3.5622,3.5817,3.5932,3.6019,0.0,0.0,0.0,0.0,0.0,0.0,0.0,1.9429,1.924,1.9225,1.8895,1.866,1.8734,1.8333,1.817,1.8465,0.0,0.0,0.0,0.0,0.0,0.0,0.0,0.0,2.1793,2.115,2.0843,2.0786,2.0481,2.0304,2.0304,2.0304,2.0659,2.1342,2.2378,2.3399,2.4463,2.5127,2.5661,2.5924,2.5252,2.5222,0.0,0.0,0.0,0.0,0.0,0.0,0.0,0.0,0.0,0.0,0.0,0.0,0.0,0.0,0.0,0.0,0.0,2.6079,2.6168,0.0,0.0,0.0,2.664,2.6956,0.0,2.8601,2.9662,3.0612,3.1221,3.1822,3.2196,3.2144,3.1929,3.1893,0.0,3.2001,0.0,0.0,3.18,3.18,3.18,3.2421,3.2852,3.2904,3.4031,3.4763,3.4823,3.5254,3.5509,3.5515,3.5532,3.5577,3.5622,3.5622,3.5577,3.5532,3.5532,3.5515,3.547,3.4975,3.5021,3.547,3.5021,3.5068,3.5577,3.5577,3.5622,3.5622,3.5622,3.5622,3.5622,3.5888,3.5975,3.6019,0.0,0.0,0.0,0.0,0.0,0.0,0.0,0.0,0.0,0.0,1.9271,1.9081,1.8947,1.8734,1.8565,0.0,0.0,0.0,0.0,0.0,0.0,0.0,0.0,0.0,2.181,2.1397,2.1055,2.0786,2.0481,2.0304,2.0304,2.0304,2.0671,2.1311,2.1881,2.3008,2.4532,2.5455,2.5806,2.5659,2.5533,2.5491,0.0,0.0,0.0,0.0,2.5675,2.5637,0.0,0.0,0.0,0.0,0.0,0.0,0.0,0.0,2.5775,2.5848,2.5775,0.0,2.6063,2.6132,2.6115,2.6154,0.0,2.6956,2.7359,2.787,0.0,2.9857,3.0576,3.1126,3.1635,3.2161,3.2001,3.1837,3.1893,0.0,0.0,3.18,3.18,3.18,3.18,3.1955,3.2283,3.2869,3.3149,3.3554,3.4229,3.427,3.453,3.4958,3.4975,3.5178,3.5577,3.5622,3.5379,3.4975,3.4975,3.4769,3.4382,3.4235,3.4284,3.4382,3.4673,3.488,3.5021,3.5424,3.5622,3.5622,3.5622,3.5622,3.5622,3.5817,3.5861,3.5905,0.0,0.0,0.0,0.0,0.0,0.0,0.0,0.0,0.0,0.0,0.0,0.0,0.0,0.0,0.0,0.0,0.0,0.0,0.0,0.0,0.0,0.0,0.0,2.2214,2.2028,2.1707,2.137,2.1045,2.069,2.0431,2.0304,2.0304,2.0497,2.0867,2.1589,2.2946,2.4701,2.4814,2.5216,2.5754,2.5264,0.0,0.0,0.0,0.0,0.0,2.5616,2.5616,0.0,2.5616,2.5616,2.5616,0.0,0.0,0.0,0.0,2.568,2.5701,2.5701,2.5828,2.5954,2.6043,2.6026,2.6082,2.6417,0.0,0.0,0.0,0.0,2.9579,3.0158,3.065,3.1168,3.1756,3.1562,0.0,0.0,0.0,3.18,3.18,3.1671,3.1579,3.1579,3.1428,3.1581,3.2107,3.2173,3.2412,3.3048,3.3044,3.3327,3.3955,3.3988,3.4485,3.5577,3.5379,3.5085,3.4769,3.4577,3.4284,3.3986,3.3767,3.3767,3.4036,3.4333,3.4577,3.4833,3.5379,3.547,3.5224,3.5224,3.5224,3.5224,3.5362,3.5622,3.5905,0.0,0.0,0.0,0.0,0.0,0.0,0.0,0.0,0.0,0.0,0.0,0.0,0.0,0.0,0.0,0.0,0.0,0.0,0.0,0.0,0.0,0.0,2.2497,2.2349,2.231,2.1911,2.1592,2.132,2.0889,2.0578,2.0304,2.0304,2.0335,2.0481,2.1478,2.2991,2.4751,2.4015,2.4611,2.5924,2.5013,0.0,0.0,0.0,0.0,0.0,0.0,0.0,0.0,2.5616,2.5616,2.5616,2.5616,0.0,0.0,0.0,0.0,0.0,2.5663,2.5791,2.5881,2.5917,2.5954,2.6026,2.6168,0.0,0.0,0.0,0.0,0.0,0.0,3.0193,0.0,0.0,0.0,0.0,3.1179,3.1466,3.1634,3.1634,3.1389,3.1218,3.1218,3.0965,3.0925,3.1218,3.1233,3.1361,3.1691,3.1716,3.2029,3.2692,3.2724,3.353,3.5194,3.4861,3.4625,3.4577,3.407,3.3818,3.3716,3.3303,3.3303,3.3767,3.3818,3.4119,3.4625,3.5115,3.5085,3.4673,3.4673,3.4721,3.4833,3.4975,3.5407,3.5975,0.0,0.0,0.0,0.0,0.0,0.0,0.0,0.0,0.0,0.0,0.0,0.0,0.0,0.0,0.0,0.0,0.0,0.0,0.0,0.0,0.0,2.306,2.2781,2.2537,2.231,2.1687,2.1361,2.1288,2.0701,2.0335,2.0304,2.0304,2.0528,2.0995,2.1808,2.2955,2.4328,2.457,2.5187,2.5974,2.5582,0.0,0.0,0.0,0.0,0.0,0.0,0.0,0.0,2.5616,2.5616,2.5616,2.5616,0.0,0.0,0.0,0.0,0.0,2.56,2.5696,2.5775,2.5937,2.5954,2.597,2.6168,0.0,0.0,0.0,0.0,0.0,0.0,2.9425,2.9938,0.0,0.0,3.0845,0.0,0.0,3.0965,3.0965,3.0925,3.0885,3.0885,3.0845,3.0845,3.0868,3.0601,3.0592,3.0781,3.0527,3.0736,3.1434,3.1466,3.2095,3.3371,3.3876,3.3869,3.3443,3.3339,3.3093,3.2641,3.2547,3.2547,3.2641,3.3161,3.3339,3.3495,3.402,3.4185,3.4136,3.4136,3.4382,3.4833,3.4975,3.5362,3.5861,0.0,0.0,0.0,0.0,0.0,0.0,0.0,0.0,0.0,0.0,0.0,0.0,0.0,0.0,0.0,0.0,0.0,0.0,0.0,0.0,2.3576,2.3324,2.3063,2.272,2.231,2.2006,2.1752,2.1559,2.1263,2.1021,2.0828,2.0828,2.1023,2.1406,2.218,2.3143,2.4242,2.4691,2.5324,2.599,0.0,0.0,0.0,0.0,0.0,0.0,0.0,0.0,0.0,0.0,2.5616,2.5616,2.5616,0.0,0.0,0.0,0.0,0.0,2.5659,2.568,2.5738,2.5917,2.5917,2.5934,2.6007,2.633,0.0,0.0,0.0,0.0,0.0,0.0,2.8687,2.9264,0.0,3.0543,3.0543,3.0683,3.0804,3.0804,3.0625,3.0543,3.0543,3.0267,3.0182,3.0335,2.9777,2.9566,2.9824,2.9423,2.9479,3.023,3.0245,3.0673,3.1584,3.1915,3.2435,3.3198,3.2895,3.2641,3.2398,3.2398,3.2398,3.2453,3.3002,3.3182,3.3235,3.3767,3.3818,3.3563,3.3563,3.3953,3.4544,3.5345,3.58,3.6036,0.0,0.0,0.0,0.0,0.0,0.0,0.0,0.0,0.0,0.0,0.0,0.0,0.0,0.0,0.0,0.0,0.0,0.0,0.0,0.0,2.3732,2.3531,2.3252,2.2877,2.2406,2.2248,2.2065,2.1812,2.1716,2.154,2.1299,2.1303,2.1466,2.1735,2.2535,2.3425,2.432,2.4792,2.5376,2.5994,0.0,0.0,0.0,0.0,0.0,0.0,0.0,0.0,0.0,0.0,0.0,0.0,0.0,0.0,0.0,2.5616,2.5637,2.568,2.5701,2.5701,2.5738,2.5881,2.5897,2.5897,2.5897,2.6173,0.0,0.0,0.0,0.0,0.0,2.7353,0.0,2.8714,2.9466,2.9985,3.0166,3.0435,3.0601,3.0601,3.0351,3.0199,3.0199,2.9766,2.9605,2.9853,2.9136,2.8811,2.9058,2.8653,2.8642,2.9166,2.9181,2.9504,3.0181,3.0181,3.0959,3.2515,3.2292,3.2151,3.2167,3.2321,3.2398,3.2453,3.2841,3.2986,3.3039,3.3459,3.3355,3.3039,3.3108,3.3563,3.4399,3.5722,3.6165,3.6122,0.0,0.0,0.0,0.0,0.0,0.0,0.0,0.0,0.0,0.0,0.0,0.0,0.0,0.0,0.0,0.0,0.0,0.0,0.0,0.0,2.3795,2.3606,2.3293,2.2968,2.2666,2.2119,2.1832,2.1821,2.1501,2.1328,2.1311,2.1341,2.1599,2.2004,2.2811,2.3688,2.4607,2.5079,2.5565,2.5966,2.5717,0.0,0.0,0.0,0.0,0.0,0.0,0.0,0.0,0.0,0.0,0.0,0.0,0.0,2.5616,2.5616,2.5616,2.5637,2.5663,2.5701,2.5738,2.5881,2.5897,0.0,2.5897,2.6079,0.0,2.6471,0.0,0.0,0.0,2.673,2.732,2.8837,2.899,2.914,2.9805,2.9946,2.9946,2.9946,2.9946,2.9946,2.9946,2.9665,2.9515,2.9515,2.9013,2.8732,2.8732,2.8525,2.8427,2.8473,2.8473,2.8796,2.9489,2.9489,2.9843,3.0618,3.1166,3.1459,3.1474,3.2105,3.2398,3.2398,3.2437,3.2437,3.2437,3.2492,3.2492,3.2508,3.2827,3.3487,3.4431,3.5756,3.6019,3.5854,0.0,0.0,0.0,0.0,0.0,0.0,0.0,0.0,0.0,0.0,0.0,0.0,0.0,0.0,0.0,0.0,0.0,0.0,0.0,2.3958,2.3917,2.3837,2.3356,2.308,2.3082,2.2446,2.213,2.2158,2.2018,2.1939,2.1989,2.1995,2.2395,2.3078,2.3896,2.4554,2.5071,2.5715,2.5905,2.5738,2.5637,2.5616,0.0,0.0,0.0,0.0,0.0,0.0,0.0,0.0,2.5616,2.5616,2.5616,2.5616,2.5616,2.5616,2.5637,2.568,2.5701,2.5513,2.54,2.5807,2.568,0.0,0.0,2.5917,2.6099,2.6101,2.6173,0.0,0.0,0.0,2.7088,2.8184,2.8582,2.9049,2.9805,2.9918,2.9918,2.9918,2.9918,2.9918,2.9918,2.9502,2.9259,2.9259,2.8795,2.8525,2.8525,2.8444,2.8411,2.8411,2.8411,2.8535,2.8781,2.8781,2.8919,2.9181,3.0274,3.0782,3.0797,3.1043,3.1166,3.1166,3.1166,3.1397,3.1767,3.1767,3.2013,3.2437,3.3193,3.3832,3.4431,3.556,3.5871,3.5827,0.0,0.0,0.0,0.0,0.0,0.0,0.0,0.0,0.0,0.0,0.0,0.0,0.0,0.0,0.0,0.0,0.0,0.0,2.4036,2.4016,2.4036,2.4074,2.35,2.3206,2.3307,2.2668,2.2349,2.2405,2.2349,2.2377,2.2443,2.2681,2.313,2.3755,2.4815,2.5289,2.5346,2.6101,2.6125,2.5735,2.5735,2.5793,0.0,0.0,0.0,0.0,0.0,0.0,0.0,0.0,2.5616,2.5616,2.5616,2.5616,2.5616,2.5616,2.5546,2.5497,2.5647,2.54,2.5169,2.5567,0.0,0.0,2.5535,2.5828,2.6026,2.5954,2.599,2.6026,2.5864,0.0,0.0,2.742,2.8078,2.8692,2.9464,2.9772,2.9918,2.9918,2.9918,2.9918,2.9918,2.9486,2.9213,2.9121,2.8716,2.8493,2.8396,2.8411,2.8411,2.8411,2.8411,2.8411,2.8411,2.8411,2.8411,2.8411,2.9335,2.9904,3.0104,3.032,3.0428,3.0428,3.0428,3.0674,3.1074,3.1074,3.1404,3.1982,3.2942,3.3528,3.3925,3.517,3.5588,3.5605,0.0,0.0,0.0,0.0,0.0,0.0,0.0,0.0,0.0,0.0,0.0,0.0,0.0,0.0,0.0,0.0,0.0,0.0,2.4094,2.4094,2.4132,2.4208,2.361,2.3282,2.33,2.2703,2.2405,2.2405,2.2405,2.2432,2.2532,2.3305,2.3721,2.379,2.5407,2.5805,2.5355,2.6067,2.6227,2.6005,2.5989,2.6147,2.6391,0.0,0.0,0.0,0.0,0.0,0.0,0.0,2.5616,2.5616,2.5616,2.5616,2.5616,2.5616,2.5262,2.502,2.5535,2.54,2.513,0.0,0.0,0.0,2.5307,2.5717,2.6168,2.6026,2.6115,2.6096,2.5738,2.5791,2.6089,2.671,2.7291,2.7948,2.8692,2.9448,2.9902,2.9918,2.9918,2.9918,2.9918,2.9665,2.9396,2.9121,2.8826,2.8605,2.8396,2.8411,2.8411,2.8411,2.8411,2.8411,2.8411,2.8411,2.8411,2.8411,2.8411,2.8765,2.9427,3.0104,3.0397,3.0397,3.0397,3.036,3.0412,3.0428,3.0567,3.0904,3.1987,3.254,3.2867,3.4565,3.5144,3.5165,0.0,0.0,0.0,0.0,0.0,0.0,0.0,0.0,0.0,0.0,0.0,0.0,0.0,0.0,0.0,0.0,0.0,0.0,2.417,2.417,2.417,2.419,2.3795,2.3522,2.3369,2.2833,2.2487,2.2405,2.2405,2.246,2.2586,2.335,2.4041,2.4666,2.5648,2.6196,2.6368,2.6607,2.6516,2.6283,2.6302,2.6337,2.6434,0.0,0.0,0.0,0.0,0.0,0.0,0.0,0.0,0.0,2.5616,2.5616,2.5616,2.5616,2.553,2.5513,2.5584,2.5378,0.0,2.546,0.0,0.0,0.0,2.5917,0.0,0.0,2.597,2.5934,2.5738,2.5696,2.5918,2.6672,2.6886,2.7413,2.8628,2.8968,2.9335,2.9853,2.9918,2.9918,2.9918,2.9502,2.9167,2.9121,2.8716,2.8444,2.8396,2.8411,2.8411,2.8411,2.8411,2.8411,2.8411,2.8411,2.8411,2.8411,2.8411,2.8504,2.8704,2.8904,2.8996,2.8996,2.8996,2.9273,2.975,3.0228,3.0567,3.0822,3.1146,3.1426,3.1804,3.2872,3.3292,3.3399,0.0,0.0,0.0,0.0,0.0,0.0,0.0,0.0,0.0,0.0,0.0,0.0,0.0,0.0,0.0,0.0,0.0,0.0,0.0,2.419,2.419,2.419,2.3896,2.3584,2.3242,2.2782,2.2525,2.2487,2.2487,2.2679,2.3096,2.3852,2.4637,2.5471,2.6247,2.6659,2.6791,2.6792,2.6708,2.6567,2.6551,2.6633,2.6792,0.0,0.0,0.0,0.0,0.0,0.0,0.0,0.0,0.0,2.5616,2.5616,2.5616,2.5616,2.5508,2.5422,2.5562,2.5355,0.0,2.5346,2.5422,2.5551,2.5937,0.0,0.0,0.0,2.5954,2.5881,2.5738,2.568,2.5805,2.6259,2.6545,2.6992,2.7834,2.8433,2.8951,2.9432,2.974,2.9858,2.977,2.9441,2.9167,2.8982,2.8668,2.8477,2.8396,2.8411,2.8411,2.8411,2.8411,2.8411,2.8411,2.8411,2.8411,2.8411,2.8411,2.8411,2.8411,2.8411,2.8411,2.8411,2.8411,2.8642,2.9042,2.9458,2.9713,2.9878,3.0142,3.0386,3.0796,3.1832,3.236,3.2602,0.0,0.0,0.0,0.0,0.0,0.0,0.0,0.0,0.0,0.0,2.5357,0.0,0.0,0.0,0.0,0.0,0.0,0.0,0.0,0.0,2.419,2.419,2.3937,2.3558,2.3052,2.2712,2.2579,2.2605,2.2605,2.301,2.3805,2.4626,2.5402,2.6143,2.6937,2.7137,2.6841,2.6865,2.6855,2.6826,2.6869,2.7012,2.7299,2.7299,0.0,0.0,0.0,0.0,0.0,0.0,0.0,0.0,2.5654,2.5654,2.5654,2.5616,2.5301,2.5075,2.547,0.0,0.0,2.4981,2.5438,0.0,2.599,2.6115,2.6168,2.6026,0.0,2.5937,2.5738,2.5701,2.568,2.5616,2.6166,2.662,2.6685,2.7786,2.8628,2.8676,2.9367,2.9717,2.9464,2.9438,2.9243,2.8779,2.8685,2.8605,2.8396,2.8411,2.8411,2.8411,2.8411,2.8411,2.8411,2.8411,2.8411,2.8411,2.8411,2.8411,2.8411,2.8411,2.8411,2.8411,2.8411,2.8411,2.8411,2.8411,2.8411,2.8473,2.9089,2.9453,2.9844,3.1197,3.1952,3.2375,0.0,0.0,0.0,0.0,0.0,0.0,0.0,0.0,0.0,0.0,0.0,0.0,0.0,0.0,0.0,0.0,0.0,0.0,0.0,0.0,2.419,2.419,2.3937,2.3649,2.3318,2.3084,2.285,2.2685,2.2649,2.301,2.3805,2.4626,2.5402,2.6143,2.6937,2.725,2.7201,2.7198,2.7201,2.7206,2.7184,2.7247,2.7299,2.7299,2.7098,0.0,0.0,0.0,0.0,0.0,0.0,0.0,2.5917,2.5917,2.5864,2.5717,2.5626,2.5535,2.5626,2.5626,0.0,0.0,2.5754,2.6026,2.6115,2.6168,2.6168,2.6026,2.5954,2.5881,2.5738,2.5659,2.56,2.5616,2.5745,2.6053,2.662,2.696,2.7348,2.7883,2.8579,2.9016,2.8973,2.9106,2.9121,2.9029,2.8668,2.8444,2.8411,2.8411,2.8411,2.8411,2.8411,2.8411,2.8411,2.8411,2.8411,2.8411,2.8411,2.8411,2.8411,2.8411,2.8411,2.8411,2.8411,2.8411,2.8411,2.8411,2.8411,2.8411,2.8565,2.866,2.8821,2.9884,3.0319,3.0609,0.0,0.0,0.0,0.0,0.0,0.0,0.0,0.0,0.0,0.0,0.0,0.0,0.0,0.0,0.0,0.0,0.0,0.0,0.0,0.0,2.419,2.419,2.3937,2.3671,2.3414,2.3188,2.297,2.2712,2.302,2.3588,2.4402,2.5178,2.5937,2.6695,2.7109,2.7299,2.7299,2.7299,2.7299,2.7299,2.7299,2.7299,2.7299,2.7299,2.7085,2.6771,2.6657,0.0,0.0,0.0,0.0,0.0,0.0,0.0,2.5974,2.5848,2.5775,2.5701,2.5642,0.0,0.0,2.5791,0.0,2.599,2.6168,2.622,2.6168,2.6026,2.599,2.5917,2.5828,2.5717,2.5637,2.5616,2.5616,2.5745,2.6118,2.6474,2.683,2.7187,2.7834,2.8359,2.8613,2.8573,2.8651,2.8904,2.8573,2.8411,2.8411,2.8411,2.8411,2.8411,2.8411,2.8411,2.8411,2.8183,2.81,2.81,2.8118,2.8201,2.8411,2.8411,2.8411,2.8411,2.8411,2.8411,2.8411,2.8411,2.8411,2.8411,2.8411,2.8411,2.8493,2.9454,2.9848,2.9989,0.0,0.0,0.0,0.0,0.0,0.0,0.0,0.0,0.0,0.0,0.0,0.0,0.0,0.0,0.0,0.0,0.0,0.0,0.0,0.0,0.0,2.4209,2.3978,2.3735,2.3414,2.3236,2.308,2.2981,2.3725,2.4514,2.5368,2.5875,2.6554,2.7376,2.7313,2.7299,2.7299,2.7299,2.7299,2.7299,2.7299,2.7299,2.7299,2.7299,2.7139,2.6893,2.6824,2.6672,2.6455,2.6467,0.0,0.0,0.0,0.0,2.6139,2.6046,2.5937,2.5738,2.5637,0.0,2.5738,2.5844,2.5881,0.0,2.6096,2.6132,2.6132,2.6026,2.5974,2.5954,2.5881,2.5754,2.5642,2.5616,2.5616,2.5616,2.5616,2.6134,2.6506,2.6506,2.7106,2.7671,2.7982,2.8021,2.8149,2.8514,2.8463,2.8411,2.8411,2.8411,2.8411,2.8411,2.8411,2.8381,2.8301,2.7981,2.7754,2.7667,2.775,2.7989,2.8411,2.8348,2.8348,2.8411,2.8411,2.8411,2.8411,2.8411,2.8411,2.8411,2.8411,2.8411,2.8493,2.9364,2.9717,2.9816,0.0,0.0,0.0,0.0,0.0,0.0,0.0,0.0,0.0,0.0,0.0,0.0,0.0,0.0,0.0,0.0,0.0,0.0,2.4284,0.0,0.0,2.4192,2.4173,2.3921,2.3414,2.3369,2.3602,2.4085,2.4831,2.572,2.6721,2.6307,2.6658,2.7659,2.739,2.7299,2.7299,2.7299,2.7299,2.7299,2.7299,2.7299,2.7299,2.7299,2.7267,2.7201,2.6897,2.6773,2.6759,2.6753,2.674,0.0,0.0,0.0,2.6619,2.628,2.617,2.6046,0.0,0.0,2.5701,0.0,2.5791,2.5897,0.0,0.0,2.5934,0.0,2.5917,2.5881,2.5738,2.5659,2.5616,2.5616,2.5616,2.5616,2.5616,2.5697,2.5762,2.5762,2.6393,2.6767,2.6615,2.7449,2.7944,2.7843,2.82,2.8411,2.8411,2.8411,2.8411,2.8411,2.8411,2.8255,2.7896,2.7846,2.7579,2.7209,2.7616,2.7989,2.8411,2.8054,2.8039,2.8411,2.8411,2.8411,2.8411,2.8411,2.8411,2.8411,2.8411,2.8411,2.8444,2.8997,2.9257,2.9361,0.0,0.0,0.0,0.0,0.0,0.0,0.0,0.0,0.0,0.0,0.0,0.0,0.0,0.0,0.0,2.4756,2.4526,2.4375,2.4303,2.4375,2.4338,2.421,2.4191,2.4018,2.3631,2.406,2.4341,2.446,2.5709,2.6603,0.0,2.7077,2.7267,2.7701,2.7421,2.7299,2.7299,2.7299,2.7299,2.7299,2.7299,2.7345,2.7421,2.7421,2.7469,2.75,2.7265,2.7251,2.7293,2.7213,2.723,2.731,2.7282,0.0,0.0,0.0,2.6418,0.0,2.5901,2.5733,2.5659,0.0,2.5738,2.5791,2.5881,2.5897,2.5881,2.5791,2.5791,2.5791,2.5701,2.568,2.5659,2.5616,2.5616,2.5616,2.5616,2.5616,2.5616,2.5616,2.5891,2.6154,2.631,2.6656,2.6938,2.711,2.7582,2.7842,2.7842,2.8211,2.8411,2.8411,2.8176,2.8005,2.7801,2.7321,2.6967,2.6783,2.6943,2.7261,2.766,2.7775,2.7989,2.8411,2.8152,2.8201,2.8411,2.8411,2.8411,2.8411,2.8411,2.8411,2.8444,2.892,2.912,2.9166,0.0,0.0,0.0,0.0,0.0,0.0,0.0,0.0,0.0,0.0,0.0,0.0,0.0,0.0,0.0,0.0,2.4543,2.4374,2.441,2.4513,2.4461,2.4266,2.4431,2.4406,2.4145,2.4904,2.5321,2.5321,2.6505,0.0,2.7791,2.7906,2.7943,0.0,2.7483,2.7313,2.7345,2.7313,2.7313,2.7345,2.7345,2.7421,2.7496,2.7557,2.7604,2.7682,2.7577,2.7624,2.7659,2.7592,2.7607,2.7694,2.7679,2.7552,0.0,0.0,0.0,0.0,0.0,0.0,2.56,2.5642,2.568,2.5717,0.0,0.0,2.5787,2.568,2.568,2.568,2.568,2.568,2.5659,2.5616,2.5616,2.5616,2.5616,2.5616,2.5616,2.5616,2.5616,2.5734,2.6038,2.6005,2.6131,2.6408,2.687,2.7211,2.738,2.7762,2.8066,2.8217,2.7862,2.7576,2.7445,2.6732,2.638,2.6477,2.6519,2.6721,2.7122,2.7357,2.7725,2.825,2.8054,2.8103,2.8411,2.8411,2.8411,2.8411,2.8411,2.8411,2.8444,2.8779,2.8904,2.8904,0.0,0.0,0.0,0.0,0.0,0.0,0.0,0.0,0.0,0.0,0.0,0.0,2.5292,2.5,2.4828,2.4884,2.47,2.4607,2.4676,2.4692,2.4596,2.4412,2.506,0.0,2.5026,2.5764,2.6499,2.7266,2.7356,0.0,2.8897,2.8725,2.8601,2.8525,2.7659,2.7376,2.7465,0.0,0.0,2.7496,2.7496,2.7496,2.7526,2.7642,2.7701,2.7683,2.7701,2.7683,2.7712,2.7703,2.768,2.7698,2.7706,2.7707,2.7624,0.0,0.0,0.0,0.0,2.5659,0.0,2.5616,2.5616,0.0,0.0,0.0,2.5616,2.5616,2.5616,2.5616,2.5616,2.5616,2.5616,2.5616,2.5616,2.5616,2.5616,2.5616,2.5616,2.5616,2.5616,2.554,2.5381,2.5751,2.5942,2.5753,2.6189,2.6718,2.7365,2.7003,2.7094,2.7816,2.7387,2.6971,2.6543,2.6155,2.6115,2.6477,2.6517,2.6712,2.7071,2.6721,2.7049,2.784,2.8201,2.8396,2.8411,2.8411,2.8411,2.8411,2.8411,2.8411,2.8411,2.846,2.8444,2.8444,0.0,0.0,0.0,0.0,0.0,0.0,0.0,0.0,0.0,0.0,0.0,0.0,0.0,2.5126,2.5,2.5019,2.4869,2.4986,2.544,2.5445,2.5571,2.5931,2.6149,2.6256,2.6195,2.6921,2.7449,2.7791,2.8305,2.8732,2.9112,2.8827,2.8682,2.8644,2.7933,2.7672,2.776,2.7421,0.0,0.0,2.76,2.7707,2.8007,2.7922,2.7968,2.8007,0.0,0.0,2.8014,2.7903,2.7958,2.8029,2.8027,2.8035,2.7922,2.7522,0.0,0.0,0.0,0.0,0.0,2.5616,2.5621,2.5659,2.5616,2.5621,2.5659,2.5616,2.5616,2.5616,2.5616,2.5616,2.5616,2.5616,2.5616,2.5616,2.5616,2.5616,2.5616,2.5616,2.5616,2.554,2.5333,2.5322,2.5264,2.502,2.5447,2.5707,2.5727,2.5984,2.6329,2.6769,2.636,2.6124,2.6115,2.599,2.599,2.6115,2.6115,2.6167,2.6351,2.6457,2.6826,2.7393,2.7825,2.8152,2.8411,2.8411,2.8411,2.8411,2.8411,2.8411,2.8411,2.8411,2.8411,2.8411,0.0,0.0,0.0,0.0,0.0,0.0,0.0,0.0,0.0,2.5473,0.0,0.0,0.0,0.0,2.5937,2.5937,2.585,2.6005,2.6439,2.64,2.6533,2.6916,2.7059,2.7165,2.7185,2.7677,2.8083,2.8405,2.8661,2.8938,2.92,2.9007,2.8897,2.8839,2.836,2.8093,0.0,0.0,0.0,2.8083,0.0,2.8017,2.837,0.0,2.8273,0.0,0.0,0.0,0.0,2.812,2.8128,2.8182,2.8182,2.8182,2.8099,0.0,0.0,0.0,2.6349,0.0,0.0,0.0,0.0,2.5701,2.5659,2.5659,2.5642,2.5637,2.56,2.5616,2.5616,2.5616,2.5616,2.5616,2.5616,2.5616,2.5616,2.5616,2.5616,2.5616,2.5616,2.554,2.5333,2.5123,2.4886,2.463,2.4718,2.4813,2.4806,2.497,2.5311,2.5767,2.5516,2.5562,2.5893,2.5893,2.5893,2.5893,2.5893,2.5893,2.5893,2.6204,2.6602,2.7122,2.7458,2.7875,2.8411,2.8411,2.8411,2.8411,2.8411,2.8411,2.8411,2.8411,2.8411,2.8411,0.0,0.0,0.0,0.0,0.0,0.0,0.0,0.0,2.5557,2.5499,0.0,0.0,0.0,0.0,0.0,2.7612,2.7599,2.7619,2.7638,2.749,2.738,2.7259,2.7754,2.8042,2.8042,2.8036,2.8421,2.9218,2.8421,2.8439,2.92,2.9262,2.9262,2.9178,2.8925,2.859,2.8228,0.0,2.8308,2.8327,0.0,2.8378,2.8504,0.0,0.0,0.0,2.8569,2.8492,0.0,2.8264,0.0,0.0,0.0,0.0,0.0,0.0,0.0,0.0,0.0,0.0,0.0,0.0,0.0,0.0,2.5701,2.5659,2.5637,2.5663,2.5659,2.5616,2.5616,2.5616,2.5616,2.5616,2.5616,2.5616,2.5616,2.5616,2.5616,2.5616,2.5578,2.5486,2.5333,2.5123,2.4886,2.463,2.412,2.4068,2.4716,2.4095,2.4099,2.4927,2.4956,2.5245,2.5879,2.5879,2.5879,2.5893,2.5893,2.5893,2.5893,2.5893,2.6351,2.7071,2.7122,2.7595,2.8396,2.8411,2.8411,2.8411,2.8411,2.8411,2.8411,2.8411,2.8411,2.8411,0.0,0.0,0.0,0.0,0.0,0.0,2.6556,2.7031,2.7365,0.0,0.0,0.0,2.7544,2.7715,2.7827,2.7827,2.7668,2.7815,2.8278,2.8199,2.8312,2.8781,2.8883,2.8952,2.9013,2.8968,2.9079,2.9347,2.9122,2.9122,2.9365,2.9365,2.9344,2.9262,2.9243,2.9071,2.8749,2.8446,0.0,2.8839,2.8565,2.8565,0.0,0.0,0.0,0.0,0.0,2.8291,2.8291,0.0,2.8182,2.8182,0.0,0.0,0.0,0.0,0.0,0.0,2.7178,0.0,0.0,0.0,0.0,0.0,2.5659,2.5659,2.5642,2.5621,2.56,2.5616,2.5616,2.5616,2.5616,2.5616,2.5616,2.5616,2.5616,2.5616,2.5616,2.5616,2.5448,2.5371,2.5294,2.4966,2.467,2.4589,2.4343,2.4043,2.3747,2.3414,2.339,2.3603,2.41,2.4655,2.5231,2.5231,2.5451,2.5893,2.5893,2.5893,2.5893,2.6201,2.663,2.7143,2.7467,2.7725,2.7989,2.8299,2.8411,2.8348,2.8103,2.8152,2.8348,2.8039,2.8152,2.8411,0.0,0.0,0.0,0.0,0.0,2.7468,2.7365,2.7763,2.8031,0.0,0.0,0.0,2.8912,2.894,2.8948,2.8948,2.8852,2.8893,2.9216,2.9099,2.9173,2.9454,2.9388,2.9365,2.9407,2.9013,2.9013,2.9407,2.9054,2.9054,2.9407,2.9407,2.9386,2.9344,2.9386,0.0,0.0,0.0,0.0,0.0,2.8737,0.0,0.0,2.8619,2.8484,0.0,0.0,0.0,2.8414,2.8264,2.8182,0.0,0.0,0.0,0.0,0.0,0.0,0.0,0.0,0.0,0.0,0.0,0.0,0.0,2.5881,2.5733,2.5659,2.5659,2.5637,2.5616,2.5616,2.5616,2.5616,2.5616,2.5616,2.5616,2.5616,2.554,2.5448,2.5448,2.5294,2.5123,2.5005,2.4751,2.4549,2.4467,2.4135,2.3566,2.2859,2.2757,2.2833,2.3073,2.3469,2.3998,2.4643,2.4841,2.5203,2.5534,2.5783,2.5893,2.5879,2.6328,2.6709,2.7115,2.7408,2.7725,2.8054,2.8103,2.8152,2.8152,2.789,2.8054,2.8348,2.7955,2.8039,2.8411,0.0,0.0,2.8274,2.8197,2.8272,2.8299,2.8167,2.8225,2.8268,0.0,2.8858,2.9608,3.0309,3.0402,3.0398,3.0398,3.0398,3.0311,3.0122,2.9992,2.9836,2.9608,2.9491,2.9427,2.9407,2.8645,2.8626,2.9407,2.8626,2.8645,2.9407,2.9407,2.9407,2.9407,2.9407,0.0,0.0,0.0,0.0,2.913,2.8934,2.8957,0.0,0.0,2.8644,2.8725,2.8569,2.8594,2.8694,2.83,2.8182,0.0,0.0,0.0,0.0,0.0,2.8182,0.0,0.0,0.0,0.0,0.0,2.6641,0.0,2.6277,2.597,2.5712,2.5775,2.5733,2.5675,2.5637,2.5637,2.5654,2.5616,2.5616,2.5616,2.5616,2.541,2.5294,2.5294,2.51,2.4846,2.463,2.4549,2.4426,2.4261,2.361,2.2949,2.2278,2.2231,2.2451,2.2969,2.3016,2.3342,2.3985,2.4498,2.483,2.4901,2.542,2.5737,2.5823,2.6202,2.6608,2.7024,2.7121,2.758,2.8235,2.794,2.784,2.784,2.774,2.7989,2.8348,2.789,2.7989,2.8411,0.0,0.0,2.8205,2.813,2.8702,2.9173,2.9128,2.968,3.0066,3.0008,3.0102,3.0232,3.0383,3.041,3.0398,3.0398,3.0398,3.0311,3.0122,3.008,2.9912,2.9607,2.957,2.9512,2.9407,2.924,2.924,2.9407,2.924,2.924,2.9407,2.9407,2.9407,2.9407,2.9407,2.9407,0.0,0.0,0.0,2.9344,2.9304,2.9218,2.9089,2.9021,2.8791,2.8543,2.8518,2.8432,2.8318,2.8237,2.8182,2.8182,0.0,0.0,0.0,2.8182,0.0,0.0,0.0,0.0,0.0,0.0,2.6954,0.0,2.6418,2.6279,2.6243,2.6279,2.6243,2.6189,2.5954,2.5917,2.5844,2.5654,2.5616,2.5616,2.5616,2.541,2.5294,2.5294,2.491,2.467,2.4589,2.4219,2.3925,2.3925,2.3246,2.2754,2.2618,2.2356,2.2259,2.2362,2.2362,2.2658,2.3267,2.3426,2.3713,2.4259,2.4376,2.4704,2.5175,2.5575,2.6076,2.6645,2.736,2.7545,2.7393,2.7675,2.7989,2.8201,2.7509,2.771,2.8299,2.7494,2.771,2.8411,0.0,2.918,2.9433,2.9356,2.9721,3.0008,3.0008,3.0308,3.0549,3.055,3.049,3.0447,3.0394,3.039,3.0398,3.0398,3.0398,3.0311,3.0122,3.0037,2.9883,2.9626,2.9532,2.9471,2.9407,2.9407,2.9407,2.9407,2.9407,2.9407,2.9407,2.9407,2.9407,2.9407,2.9407,2.9407,0.0,0.0,2.9407,2.9386,2.9283,0.0,2.9108,2.8998,2.8815,2.8644,2.8644,2.8518,2.838,2.8587,2.851,2.838,2.8484,2.8432,2.8353,0.0,2.8291,2.8182,0.0,0.0,0.0,2.7565,2.7272,0.0,0.0,2.6487,2.6418,2.6418,2.6418,2.6314,2.6046,2.5937,2.5754,2.5486,2.5448,2.5426,2.5333,2.5294,2.5294,2.5294,2.4886,2.4589,2.4589,2.412,2.3653,2.329,2.292,2.2618,2.2434,2.231,2.2184,2.2184,2.2184,2.2348,2.2644,2.2955,2.3283,2.3599,2.3961,2.4259,2.4546,2.4995,2.5471,2.6093,2.6731,2.7166,2.7458,2.7458,2.761,2.7795,2.7071,2.7342,2.8039,2.7342,2.766,2.8411,2.9725,0.0,3.0665,3.0617,3.0598,3.0598,3.0598,3.0559,3.053,3.0588,3.054,3.0479,3.0428,3.0425,3.0421,3.0421,3.0421,3.0348,3.0196,3.0037,2.9886,2.9662,2.9512,2.9429,2.9407,2.9407,2.9407,2.9407,2.9407,2.9407,2.9407,2.9407,2.9407,2.9407,2.9407,2.9407,0.0,0.0,0.0,2.9386,0.0,2.9152,2.9152,2.898,2.8887,2.8863,2.8797,2.8694,2.8619,2.891,2.8815,2.8594,2.8767,2.8669,0.0,0.0,0.0,0.0,0.0,0.0,0.0,2.7789,2.7535,2.7303,0.0,0.0,0.0,2.6556,2.6556,2.6487,2.6189,2.5957,2.5701,2.5394,2.5278,2.5178,2.5005,2.5123,2.5201,2.5162,2.4831,2.4589,2.4549,2.4036,2.3436,2.2754,2.2663,2.2495,2.2217,2.2184,2.2184,2.2184,2.2184,2.2184,2.2184,2.2672,2.294,2.294,2.3475,2.3775,2.3909,2.4232,2.4747,2.5348,2.5733,2.6468,2.7354,2.6909,2.6887,2.7093,2.6654,2.693,2.756,2.724,2.7545,2.8186,3.0569,3.06,0.0,3.0607,3.0598,3.0598,3.0598,3.0598,3.0569,3.052,3.0491,3.05,3.0479,3.0499,0.0,0.0,3.0488,3.0488,3.0458,3.0279,3.0066,2.988,2.968,2.9531,2.9407,2.9407,2.9407,2.9407,2.9407,2.9407,2.9407,2.9407,2.9407,2.9407,2.9407,0.0,0.0,0.0,2.9407,0.0,2.9386,2.9365,2.9365,2.9326,2.9218,2.9044,2.8863,2.8791,2.8773,2.8815,2.8797,2.8749,2.8773,2.8669,2.8543,2.87,0.0,0.0,0.0,0.0,2.8126,2.7789,2.7672,2.7582,2.7296,0.0,2.7186,2.7186,0.0,2.7072,2.6691,0.0,0.0,2.5605,2.5278,2.5021,2.5005,2.5005,2.4966,2.471,2.463,2.4549,2.4343,2.3754,2.3172,2.274,2.2434,2.2217,2.2184,2.2184,2.2184,2.2184,2.2184,2.2184,2.2184,2.2259,2.2273,2.2273,2.2362,2.2719,2.3238,2.3267,2.3649,2.4315,2.471,2.5263,2.5807,2.546,2.5807,2.6602,2.651,2.6654,2.6849,2.7019,2.7174,2.7342,3.0704,3.0661,0.0,0.0,3.0598,3.0598,3.0598,3.0598,3.0588,3.052,3.0491,3.051,0.0,0.0,0.0,0.0,0.0,3.0499,0.0,0.0,3.0163,3.0075,2.9817,2.9645,2.957,2.9511,2.945,2.9407,2.9528,2.951,2.9407,2.945,2.945,2.9407,2.9407,0.0,2.9407,0.0,2.9407,0.0,2.9407,2.9407,2.9407,2.9407,2.9365,2.9262,2.9178,2.9067,2.8998,2.9112,2.9067,2.898,2.9112,2.9021,2.8863,2.8952,0.0,0.0,2.8484,2.8353,2.8154,2.794,2.7806,2.7642,2.7465,2.7345,2.7299,2.7299,0.0,0.0,0.0,0.0,0.0,0.0,2.5091,2.471,2.4589,2.4846,2.4926,2.4751,2.467,2.4426,2.4051,2.3436,2.2979,2.2694,2.2263,2.2044,2.2184,2.2184,2.2184,2.2184,2.2184,2.2184,2.2184,2.2184,2.2184,2.2184,2.2184,2.2348,2.2569,2.2569,2.2912,2.3539,2.3809,2.4276,2.4802,2.4535,2.4845,2.5477,2.5196,2.5742,2.6602,2.6549,2.6916,2.756,3.0704,0.0,0.0,0.0,3.0598,3.0598,3.0598,3.0598,3.0569,3.053,3.053,0.0,3.053,3.053,0.0,0.0,3.053,3.053,0.0,0.0,3.0228,3.0228,2.9915,2.9734,2.9734,2.9626,2.9531,2.9488,2.9645,2.9626,2.9488,2.9491,2.9471,2.9429,2.9407,2.9407,2.9407,0.0,2.9407,2.9407,2.9407,2.9407,2.9407,2.9407,2.9407,2.9407,2.9407,2.9323,2.9197,2.9365,2.9304,2.9218,2.9347,2.9262,2.9112,2.9175,0.0,0.0,2.8644,2.8484,2.8264,2.8126,2.7893,2.7672,2.7509,2.739,2.7299,2.7299,2.7299,0.0,0.0,0.0,2.5709,2.5535,0.0,2.4467,2.4302,2.4589,2.4751,2.4655,2.4549,2.4261,2.3696,2.3201,2.2844,2.2603,2.2156,2.1996,2.2184,2.2184,2.2184,2.2184,2.2184,2.2184,2.2184,2.2184,2.2184,2.2184,2.2184,2.2184,2.2184,2.2184,2.2418,2.286,2.2943,2.3315,2.3814,2.3469,2.3765,2.4332,2.4015,2.4722,2.6016,2.6065,2.6654,2.7473,3.0703,3.0653,0.0,0.0,0.0,3.0598,3.0598,3.0598,3.0598,0.0,0.0,0.0,0.0,0.0,0.0,0.0,0.0,3.0598,3.0598,0.0,3.0304,3.0304,2.9977,2.9801,0.0,2.9737,2.9683,2.9701,2.9701,2.9701,2.9701,2.9569,2.9492,2.9492,2.9429,2.9407,2.9407,2.9407,2.9407,2.9407,2.9407,2.9407,2.9407,2.9407,2.9407,2.9407,2.9407,2.9407,2.9386,2.9407,2.9407,2.9386,2.9407,2.9262,2.9152,2.9326,2.9112,2.8839,2.9021,2.8791,2.8458,2.8327,2.7989,2.7672,2.7509,2.739,2.7299,2.7299,2.7299,2.725,2.7103,2.6386,2.5799,2.5684,2.4918,0.0,0.0,2.4302,2.4302,2.4317,2.4234,2.3925,2.326,2.3157,2.2889,2.236,2.2203,2.2184,2.2184,2.2184,2.2184,2.2184,2.2184,2.2184,2.2184,2.2184,2.2184,2.2184,2.2184,2.2184,2.2184,2.2184,2.2184,2.2212,2.1957,2.2179,2.2711,2.2183,2.2506,2.3309,2.3279,2.3836,2.4813,2.5748,2.6283,2.6669,0.0,0.0,0.0,0.0,0.0,0.0,0.0,3.0598,0.0,0.0,3.0598,0.0,0.0,3.0598,3.0598,0.0,0.0,3.0598,3.0598,3.054,0.0,3.049,3.026,3.0122,0.0,3.0007,2.9902,2.977,2.9907,2.9876,2.9701,2.9701,2.9626,2.9492,2.9471,2.945,0.0,0.0,0.0,0.0,2.9407,2.9407,2.9407,2.9407,2.9407,2.9407,2.9407,2.9407,2.9407,2.9407,2.9407,2.9407,2.9407,2.9347,2.9304,2.9386,2.9218,2.9021,2.9067,2.8887,2.8669,2.8466,2.8255,2.8035,2.7701,2.7526,2.7421,2.7313,2.7299,2.7282,2.7233,2.6454,2.5783,2.5762,2.4942,2.4302,0.0,2.4276,2.4208,2.4109,2.3782,2.3508,2.345,2.3009,2.2754,2.2934,2.2526,2.2342,2.2526,2.231,2.2184,2.2184,2.2184,2.2184,2.2184,2.2184,2.2184,2.2184,2.2184,2.2184,2.2184,2.2184,2.2091,2.1949,2.1664,2.1572,2.1542,2.1252,2.1648,2.2414,2.2181,2.3098,2.4678,2.5163,2.6014,2.7019,3.0736,0.0,0.0,0.0,0.0,0.0,0.0,0.0,0.0,0.0,3.0598,0.0,3.0598,0.0,3.0598,0.0,3.0598,3.0598,3.0598,3.0598,0.0,3.0598,3.0428,0.0,0.0,3.0222,3.0114,2.9981,3.0123,3.0049,2.9842,2.9859,2.9771,2.9608,2.9531,2.9471,2.9429,2.9427,2.9407,0.0,2.9407,2.9407,2.9407,2.9407,2.9407,2.9407,2.9407,2.9407,2.9407,2.9407,2.9407,2.9407,2.9407,2.9407,2.9407,2.9407,2.9304,2.9218,2.9218,2.9067,2.8887,2.8743,2.8525,2.8273,2.7989,2.776,2.7587,2.7465,2.7376,2.7313,2.7421,2.6674,2.6019,2.5911,2.516,2.4508,0.0,2.425,2.4166,2.4024,2.3523,2.3231,2.3421,2.2799,2.2618,2.3127,2.2618,2.2374,2.2694,2.2402,2.2184,2.2184,2.2184,2.2184,2.2184,2.2184,2.2184,2.2184,2.2091,2.2058,2.2044,2.1949,2.1793,2.1664,2.1375,2.118,2.0997,2.0799,2.1036,2.1557,2.1485,2.243,2.3912,2.4491,2.56,2.6967,3.0808,0.0,0.0,0.0,3.0606,0.0,0.0,0.0,3.0598,0.0,3.0598,3.0598,3.0598,3.0598,3.0598,3.0598,3.0598,3.0598,3.0598,3.0598,0.0,0.0,3.049,3.0398,3.0398,3.0355,0.0,3.0292,3.0292,3.024,3.0109,3.0034,2.9924,2.9808,2.9608,2.9512,2.9511,2.945,2.9407,2.9407,2.9407,2.9407,2.9407,2.9407,2.9407,2.9407,2.9407,2.9407,2.9407,2.9407,2.9407,2.9407,2.9407,2.9407,2.9407,2.9407,2.9407,2.9407,2.9407,2.9262,2.9112,2.9089,2.8827,2.8496,2.8335,2.8073,2.78,2.7742,2.7526,2.7421,2.7672,2.7066,2.642,2.6073,2.5503,2.4895,2.4385,2.425,2.4124,2.4024,2.348,2.3083,2.3083,2.254,2.2402,2.2844,2.2495,2.2402,2.2694,2.2402,2.2184,2.2184,2.2184,2.2184,2.2184,2.2184,2.2184,2.2184,2.193,2.1787,2.1746,2.152,2.1423,2.1375,2.1082,2.0997,2.0997,2.0799,2.0699,2.0751,2.125,2.186,2.2573,2.3768,2.5157,2.6563,3.0743,3.0709,3.0676,0.0,3.0606,3.0598,3.0598,3.0598,0.0,0.0,3.0598,3.0598,3.0598,3.0598,3.0598,3.0598,3.0598,0.0,0.0,0.0,0.0,3.0598,3.0579,3.055,3.055,3.053,3.0469,3.0364,3.0364,3.0336,3.0253,3.0226,3.0109,2.9959,2.9891,2.979,2.9645,2.9626,2.9569,2.9471,2.9409,2.9407,2.9407,2.9407,2.9407,2.9407,2.9407,2.9407,2.9407,2.9407,2.9407,2.9407,2.9407,2.9407,2.9407,2.9407,2.9407,2.9407,2.9407,2.9365,2.9283,2.9152,2.9003,2.8868,2.8522,2.8376,2.8298,2.8166,2.7982,2.78,2.7789,2.7129,2.6522,2.6315,2.5529,2.48,2.4369,2.4177,2.4051,2.4024,2.348,2.2979,2.2694,2.2512,2.2572,2.2889,2.2799,2.2844,2.3127,2.2356,2.1996,2.2184,2.2184,2.2184,2.2184,2.2184,2.2105,2.1882,2.201,2.1902,2.152,2.1664,2.1471,2.1082,2.1033,2.0947,2.0749,2.0699,2.0699,2.0725,2.1007,2.2059,2.3506,2.4761,2.5754,2.6563,3.0746,3.073,0.0,3.0642,3.0621,3.0606,3.0606,3.0606,3.0597,3.0598,3.0598,0.0,3.0598,3.0598,3.0598,3.0598,3.0598,0.0,3.0598,0.0,0.0,3.0598,3.0598,3.0598,3.0598,3.0598,0.0,3.049,3.049,3.0447,3.0336,3.0336,3.026,3.0142,3.006,2.9953,2.9844,2.9738,2.9664,2.9569,2.9471,2.9431,0.0,2.9427,2.9407,2.9407,2.9407,2.9407,2.9407,2.9407,2.9407,2.9407,2.9407,2.9407,2.9407,2.9407,2.9407,2.9407,2.9407,2.9407,2.9386,2.9262,2.924,2.9156,2.8827,2.8694,2.8603,2.8522,2.8316,2.8156,2.8201,2.7625,2.6963,2.6488,2.5696,2.5011,2.4596,2.4441,2.4269,2.404,2.348,2.2889,2.2374,2.2558,2.2694,2.2694,2.2649,2.2694,2.2844,2.2217,2.1949,2.2184,2.2091,2.2044,2.2044,2.2044,2.1902,2.1643,2.1902,2.1746,2.1229,2.1375,2.1229,2.0848,2.0848,2.0799,2.0699,2.0699,2.0699,2.0749,2.1033,2.1957,2.3275,2.4487,2.5488,2.6258,3.0801,0.0,0.0,0.0,0.0,3.0622,3.0607,3.061,3.0604,3.0607,3.0598,3.0598,3.0598,3.0694,3.0752,3.0752,3.0868,3.0926,3.0926,3.0926,3.0926,3.0926,3.0926,3.0926,3.0926,3.0926,3.0926,3.0926,3.0926,3.0868,3.0736,3.0736,3.071,3.0663,3.0521,0.0,0.0,2.9978,2.9832,2.9719,2.9589,2.9551,2.9513,2.9491,2.947,2.945,2.947,2.9429,2.9407,2.9407,2.9407,2.9407,2.9407,2.9407,2.9407,2.9407,2.9407,2.9407,2.9407,2.9407,2.9407,2.9407,2.9407,2.9347,2.9175,2.9007,2.8879,2.8868,2.8615,2.8471,2.8749,2.8246,2.7508,2.6578,2.5995,2.5487,2.5114,0.0,0.0,0.0,2.3653,0.0,2.2221,2.2558,2.2694,2.242,2.2282,2.2282,2.2374,2.1969,2.1902,2.2263,2.1996,2.1841,2.1793,2.1793,2.1664,2.1375,2.1616,2.1471,2.0947,2.0997,2.0898,2.0699,2.0749,2.0749,2.0699,2.0749,2.0799,2.0848,2.1277,2.1901,2.2615,2.3677,2.4783,2.5781,3.0806,0.0,0.0,0.0,0.0,3.0759,3.0695,3.0634,3.0607,3.0598,3.0598,3.0598,3.0598,3.1197,3.1584,3.1584,3.2261,3.2657,3.2657,3.2657,3.2657,3.2657,3.2657,3.2657,3.2657,3.2657,3.2657,3.2657,3.2657,3.2657,3.2617,3.2617,3.2585,3.2524,3.2492,0.0,3.1142,3.0994,3.0547,2.9943,2.9803,2.975,2.975,2.9801,2.9769,2.9737,2.9787,2.9626,2.9407,2.9407,2.9407,2.9407,2.9407,2.9407,2.9407,2.9407,2.9407,2.9407,2.9407,2.9407,2.9407,2.9407,2.9407,2.9386,2.9365,2.9326,2.9286,2.9304,2.9112,2.891,2.8828,2.8304,2.7591,2.6695,2.6469,2.6267,2.5861,2.5628,0.0,0.0,2.4567,2.3861,2.2406,2.236,2.2235,2.1793,2.1746,2.2016,2.2754,2.1969,2.1827,2.2572,2.231,2.2044,2.1793,2.1793,2.1568,2.1082,2.1326,2.1229,2.0749,2.0947,2.0898,2.0699,2.1082,2.1033,2.0749,2.1131,2.1277,2.1326,2.1616,2.2214,2.3084,2.3828,2.4568,2.5219,3.1385,0.0,0.0,0.0,3.2126,3.2072,3.2007,3.1994,3.1814,3.1284,3.1623,3.1913,3.1913,3.2242,3.2464,3.2464,3.285,3.3102,3.3102,3.3102,3.3102,3.3102,3.3102,3.3102,3.3102,3.3102,3.3122,3.3151,3.3122,3.3122,3.3151,3.3122,3.3091,3.304,3.2551,3.2025,3.1519,3.0978,3.0515,3.0138,3.0007,2.9962,2.9943,2.9912,2.9883,2.9853,2.9886,2.9805,2.9626,2.9551,2.9512,2.9492,2.9409,2.9407,2.9407,2.9407,2.9407,2.9407,2.9407,2.9407,2.9407,2.9407,2.9407,2.9407,2.9407,2.9407,2.9407,2.9407,2.9304,2.9163,2.8846,2.8439,2.7969,2.7366,2.7078,2.6766,2.6381,2.6134,2.5845,0.0,0.0,0.0,2.3201,2.2712,2.2207,2.165,2.1616,2.1969,2.2844,2.1921,2.1779,2.2649,2.2263,2.1949,2.1793,2.1793,2.1616,2.1229,2.1471,2.1326,2.0848,2.0947,2.0898,2.0699,2.0947,2.0997,2.0898,2.1229,2.1423,2.1423,2.1712,2.2082,2.254,2.3702,2.4301,2.4681,0.0,3.2382,0.0,0.0,3.335,3.33,3.3237,3.3429,3.3218,3.223,3.2716,3.3142,3.313,3.3296,3.3413,3.3403,3.3548,3.3654,3.3644,3.3654,3.3654,3.3644,3.3654,3.3654,3.3654,3.3644,3.3684,3.3722,3.3694,3.3597,3.3451,3.3587,3.3644,3.3624,3.2894,3.2424,3.217,3.127,3.0772,3.0567,3.0286,3.0163,3.0163,3.0061,3.0003,2.9988,3.0011,2.9996,2.9981,2.9767,2.968,2.9644,2.9531,2.949,2.945,2.945,2.9409,2.9407,2.9407,2.9407,2.9407,2.9407,2.9407,2.9407,2.9407,2.9407,2.9407,2.9407,2.9407,2.9275,2.8862,2.8619,2.8386,2.8038,2.7607,2.7189,2.6871,2.6706,2.64,0.0,0.0,0.0,2.3983,2.3171,2.2469,2.1827,2.165,2.1983,2.2754,2.2016,2.1874,2.2663,2.2109,2.1746,2.1664,2.1746,2.1664,2.1423,2.1616,2.1471,2.0997,2.0997,2.0898,2.0699,2.0799,2.0997,2.118,2.1423,2.1471,2.152,2.1793,2.1902,2.2041,2.3539,2.4154,2.4388,3.3263,0.0,3.3305,3.3385,3.3393,3.3379,3.3298,3.3971,3.4133,3.32,3.32,3.3281,3.3282,3.392,3.4376,3.4377,3.504,3.5454,3.5466,3.5465,3.5454,3.5466,3.5465,3.5452,3.5452,3.5466,3.5466,3.5463,3.5514,3.5126,3.4302,3.5078,3.5466,3.5452,3.5364,3.4828,3.3897,3.3087,3.2285,3.1503,3.0683,3.0375,3.0375,3.0436,3.0371,3.026,3.0323,3.0355,3.0311,3.0109,2.9977,2.9869,2.9853,2.9734,2.957,2.957,2.9492,2.9407,2.9407,2.9407,2.9407,2.9407,2.9407,2.9407,2.9407,2.9407,2.9407,2.9407,2.9407,2.9275,2.8862,2.8788,2.8642,2.833,2.7932,2.7659,2.7604,2.7376,2.7023,2.6471,0.0,0.0,2.4174,2.3448,2.2889,2.2466,2.1921,2.1874,2.2512,2.2156,2.217,2.2694,2.2109,2.1616,2.1277,2.1616,2.1664,2.1423,2.1423,2.1277,2.0997,2.0997,2.0898,2.0699,2.1131,2.1471,2.1746,2.1746,2.1746,2.1793,2.2044,2.2184,2.2339,2.3589,2.4355,2.4761,3.4081,3.4178,3.4359,3.4874,3.4951,3.4937,3.4876,3.5194,3.5293,3.4878,3.4818,3.4798,3.4796,3.51,3.5274,3.5285,3.5567,3.5755,3.5753,3.5757,3.576,3.5754,3.5747,3.5757,3.5757,3.5756,3.5773,3.5829,3.581,3.5635,3.5305,3.5572,3.5698,3.5684,3.5143,3.4707,3.4268,3.3418,3.2557,3.1727,3.1379,3.0954,3.053,3.0509,3.0458,3.0425,3.039,3.0398,3.0398,3.0311,3.0155,3.0007,2.9934,2.9853,2.9786,2.9786,2.9663,2.9531,2.9531,2.9451,2.9407,2.9407,2.9407,2.9407,2.9407,2.9407,2.9407,2.9407,2.9407,2.9351,2.92,2.8957,2.8765,2.8616,2.8099,2.7712,2.7722,2.748,2.7218,2.7006,0.0,2.6019,2.5255,2.4353,2.3591,2.3084,2.2049,2.1779,2.2466,2.2156,2.2077,2.2249,2.2296,2.2109,2.1568,2.1888,2.1996,2.1888,2.1698,2.1568,2.1471,2.1326,2.118,2.1131,2.1684,2.1874,2.1793,2.1996,2.2044,2.2044,2.2184,2.2184,2.2372,2.3885,2.4405,2.4576,3.4959,3.5076,3.5276,3.5891,3.6001,3.5986,3.5936,3.5973,3.5982,3.5937,3.5895,3.5867,3.5867,3.586,3.5854,3.5832,3.5828,3.5834,3.5821,3.5811,3.5819,3.5827,3.5813,3.5794,3.5794,3.5826,3.5833,3.5872,3.5845,3.5702,3.5495,3.5377,3.5476,3.5667,3.5057,3.4775,3.4717,3.3847,3.2977,3.2164,3.1913,3.1313,3.0598,3.053,3.049,3.049,3.0455,3.0433,3.0433,3.0402,3.0304,3.0163,3.0071,3.0011,2.9965,2.9965,2.9817,2.9698,2.9698,2.9626,2.9531,2.9471,2.9451,2.945,2.9407,2.9407,2.9407,2.9407,2.9407,2.9407,2.9407,2.9068,2.8805,2.8814,2.8227,2.7771,2.7716,2.7514,2.7345,2.7233,2.6908,2.6488,2.5999,2.5041,2.4179,2.3522,2.2498,2.2142,2.2694,2.2466,2.2342,2.2342,2.2618,2.2526,2.2077,2.2356,2.2495,2.2495,2.231,2.2217,2.2123,2.1827,2.1732,2.1732,2.2282,2.2328,2.2123,2.231,2.2356,2.2356,2.2217,2.2184,2.2419,2.4066,2.4589,2.4726,3.5971,3.5971,3.5994,3.5994,3.5994,3.5994,3.5994,3.5994,3.5994,3.5994,3.5994,3.5994,3.5994,3.5993,3.5976,3.5897,3.5893,3.5906,3.5893,3.5838,3.5838,3.5893,3.5838,3.5806,3.5806,3.5856,3.5875,3.5807,3.5864,3.5431,3.4517,3.4514,3.4933,3.5699,3.5687,3.5684,3.5626,3.4737,3.3886,3.3005,3.2164,3.1313,3.0598,3.053,3.0491,3.0491,3.049,3.0499,3.0499,3.0428,3.0398,3.0406,3.039,3.0254,3.0109,3.0109,3.0007,2.9902,2.9902,2.9902,2.9853,2.9644,2.9608,2.9551,2.9429,2.9407,2.9407,2.9407,2.9407,2.9407,2.9407,2.9068,2.8806,2.8785,2.836,2.7933,2.7747,2.7591,2.7404,2.7117,2.6691,2.6314,2.6049,2.5253,2.4477,2.3736,2.3391,2.3172,2.3172,2.3172,2.3172,2.3172,2.3009,2.2844,2.2694,2.3083,2.3275,2.3275,2.3275,2.3127,2.2889,2.2603,2.2512,2.2512,2.2754,2.2889,2.2889,2.2754,2.2694,2.2663,2.231,2.2184,2.2419,2.4066,2.4966,2.5431,3.5991,3.5991,3.5991,3.5991,3.5991,3.5991,3.5991,3.5991,3.5991,3.5991,3.5991,3.5991,3.5991,3.6001,3.5986,3.5968,3.597,3.5974,3.5976,3.5956,3.5953,3.5968,3.5945,3.5942,3.5942,3.596,3.5957,3.5932,3.5916,3.5744,3.5456,3.5441,3.5538,3.5708,3.5708,3.5697,3.5684,3.5394,3.4447,3.3082,3.2792,3.1855,3.0598,3.053,3.0491,3.0491,3.049,3.0499,3.0499,3.0428,3.0398,3.0406,3.039,3.0355,3.0311,3.0311,3.0169,3.0037,3.0037,2.9962,2.9886,2.982,2.9716,2.9589,2.9551,2.9471,2.9407,2.9407,2.9407,2.9407,2.9407,2.9182,2.8956,2.8821,2.8468,2.8091,2.7757,2.7596,2.7434,2.7264,2.7105,2.6875,2.6573,2.6158,2.5561,2.4776,2.4318,2.3691,2.277,2.3128,2.3128,2.2725,2.3246,2.3304,2.2844,2.3127,2.3319,2.3319,2.3319,2.3275,2.3172,2.3334,2.3246,2.3068,2.3392,2.3392,2.3172,2.3127,2.3127,2.3083,2.2994,2.2949,2.3154,2.4813,2.5349,2.5479,3.5991,3.5991,3.5991,3.5991,3.5991,3.5991,3.5991,3.5991,3.5991,3.5991,3.5991,3.5991,3.5991,3.5991,3.5991,3.5991,3.5991,3.5999,3.6009,3.6009,3.5993,3.5996,3.5996,3.5996,3.5996,3.5996,3.5995,3.5995,3.5964,3.5942,3.5929,3.5899,3.5866,3.5764,3.5724,3.5708,3.5704,3.5704,3.4698,3.3102,3.3102,3.2106,3.0598,3.0559,3.053,3.055,3.054,3.053,3.053,3.046,3.0449,3.0439,3.0436,3.0414,3.0402,3.041,3.0311,3.0209,3.0209,3.0142,3.0056,2.9977,2.9883,2.9748,2.9644,2.9492,2.9407,2.9407,2.9407,2.9407,2.9407,2.9237,2.9052,2.8925,2.8674,2.8342,2.7986,2.7795,2.76,2.7376,2.7264,2.7087,2.6791,2.6539,2.6158,2.554,2.5182,2.4561,2.3676,2.3608,2.3508,2.3187,2.3681,2.3824,2.3421,2.361,2.3668,2.3668,2.3668,2.3668,2.3653,2.3882,2.3867,2.3711,2.3925,2.3882,2.3668,2.3538,2.3494,2.3494,2.3363,2.3319,2.3511,2.5183,2.5631,2.5717,3.5991,3.5991,3.5991,3.5991,3.5991,3.5991,3.5991,3.5991,3.5991,3.5991,3.5991,3.5991,3.5991,3.5991,3.5991,3.5991,3.5991,3.5991,3.5991,3.5991,3.5991,3.5991,3.5991,3.5991,3.5991,3.6009,3.5995,3.5995,3.5995,3.5992,3.5991,3.5942,3.5903,3.5895,3.5762,3.5713,3.5706,3.5706,3.4709,3.3102,3.3102,3.2106,3.0617,3.0598,3.0598,3.0598,3.0598,3.0598,3.0598,3.052,3.0491,3.0491,3.049,3.0439,3.0406,3.0402,3.041,3.0398,3.0398,3.0398,3.0355,3.0169,3.0109,2.9988,2.968,2.9492,2.9407,2.9407,2.9407,2.9407,2.9407,2.9256,2.9124,2.9084,2.8931,2.8712,2.8352,2.8138,2.7858,2.7465,2.723,2.7038,2.6775,2.6556,2.6349,2.6049,2.5832,2.5684,2.5503,2.4599,2.4177,2.4343,2.4302,2.4302,2.4302,2.4302,2.4302,2.4302,2.4302,2.4302,2.4302,2.4302,2.4302,2.4302,2.4302,2.4302,2.4261,2.3952,2.3824,2.3797,2.3494,2.3393,2.3615,2.5258,2.5894,2.6167,3.5991,3.5991,3.5991,3.5991,3.5991,3.5991,3.5991,3.5991,3.5991,3.5991,3.5991,3.5991,3.5991,3.5991,3.5991,3.5991,3.5991,3.5991,3.5991,3.5991,3.5991,3.5991,3.5991,3.5991,3.5991,3.5996,3.6007,3.5995,3.5996,3.5996,3.5991,3.5989,3.5942,3.5907,3.5877,3.5811,3.5702,3.5745,3.4775,3.3179,3.318,3.2174,3.0675,3.0617,3.0598,3.0598,3.0598,3.0598,3.0598,3.052,3.0491,3.0491,3.0439,3.0398,3.0398,3.0406,3.0402,3.0398,3.0398,3.0398,3.0398,3.0343,3.0147,2.9902,2.9644,2.9492,2.9407,2.9407,2.9407,2.9407,2.9407,2.937,2.9289,2.9115,2.9071,2.8868,2.8362,2.8128,2.7858,2.7526,2.7359,2.725,2.7169,2.7105,2.6859,2.6332,2.6175,2.5908,2.554,2.5214,2.4981,2.4744,2.4451,2.4302,2.4302,2.4302,2.4302,2.4302,2.4302,2.4302,2.4302,2.4302,2.4302,2.4302,2.4302,2.4302,2.4302,2.4219,2.4177,2.4177,2.4094,2.4356,2.4963,2.5908,2.6596,2.7164,3.5942,3.5988,3.5991,3.5991,3.5991,3.5991,3.5991,3.5991,3.5991,3.5991,3.5991,3.5991,3.5991,3.5991,3.5991,3.5991,3.5991,3.5991,3.5991,3.5991,3.5991,3.5991,3.5991,3.5991,3.5991,3.5991,3.5999,3.6007,3.6007,3.5991,3.5995,3.5995,3.5976,3.5937,3.5912,3.5854,3.5788,3.5794,3.4807,3.3261,3.3258,3.2227,3.0704,3.0653,3.0637,3.0598,3.0598,3.0598,3.0598,3.0559,3.053,3.0491,3.046,3.0419,3.0398,3.0398,3.0394,3.0398,3.0398,3.0398,3.0398,3.0398,3.0188,2.9962,2.9848,2.9662,2.9492,2.9492,2.945,2.9407,2.9407,2.9407,2.9365,2.9237,2.9237,2.9089,2.8718,2.836,2.8037,2.776,2.7465,2.7299,2.7299,2.7299,2.7137,2.6758,2.6607,2.6436,2.6156,2.5888,2.554,2.5198,2.4981,2.4823,2.4823,2.4823,2.4759,2.4558,2.4558,2.4492,2.4302,2.4302,2.4302,2.4302,2.4302,2.4302,2.4302,2.4302,2.4302,2.4302,2.4302,2.4718,2.5395,2.6118,2.6811,2.7503,3.5903,3.5958,3.5988,3.5988,3.5991,3.5991,3.5991,3.5991,3.5991,3.5991,3.5991,3.5991,3.5991,3.5991,3.5991,3.5991,3.5991,3.5991,3.5991,3.5991,3.5991,3.5991,3.5991,3.5991,3.5991,3.5991,3.5991,3.5991,3.5991,3.5991,3.5991,3.5991,3.5991,3.5994,3.5936,3.5917,3.5888,3.5713,3.4748,3.3304,3.3175,3.2168,3.0731,3.072,3.0678,3.0637,3.0616,3.0617,3.0617,3.0617,3.0559,3.052,3.053,3.0479,3.0409,3.0386,3.0394,3.039,3.041,3.0398,3.0398,3.0398,3.0254,3.0109,3.0109,2.9864,2.9644,2.9608,2.9512,2.9429,2.9407,2.9407,2.9407,2.9407,2.9407,2.9326,2.913,2.8664,2.8272,2.811,2.7659,2.7376,2.7376,2.7313,2.7233,2.7103,2.7023,2.6992,2.6893,2.6453,2.6016,2.5689,2.5577,2.5503,2.5503,2.5503,2.5313,2.4981,2.4981,2.4799,2.4385,2.4385,2.4343,2.4302,2.4302,2.4302,2.4302,2.4302,2.4302,2.4302,2.4302,2.4779,2.5549,2.6149,2.6872,2.7626,3.5894,3.5914,3.5912,3.5912,3.5965,3.5991,3.5991,3.5991,3.5991,3.5991,3.5991,3.5991,3.5991,3.5991,3.5991,3.5991,3.5991,3.5991,3.5991,3.5991,3.5991,3.5991,3.5991,3.5991,3.5991,3.5991,3.5991,3.5991,3.5991,3.5991,3.5991,3.5991,3.5991,3.5994,3.5999,3.5955,3.5852,3.5155,3.4306,3.3326,3.258,3.1715,3.087,3.0732,3.0726,3.0765,3.0707,3.0675,3.0675,3.0675,3.0636,3.0579,3.0576,3.0537,3.0471,3.0414,3.0414,3.0406,3.039,3.0398,3.0398,3.0398,3.0254,3.0109,3.0109,2.9977,2.9803,2.9644,2.9589,2.9532,2.9409,2.9407,2.9407,2.9407,2.9407,2.9326,2.913,2.8832,2.8578,2.8422,2.7961,2.7659,2.7659,2.7421,2.7233,2.7103,2.7023,2.6992,2.6893,2.6708,2.6573,2.6505,2.5835,2.5503,2.5503,2.5503,2.5465,2.5427,2.5427,2.5214,2.4799,2.4799,2.4599,2.4302,2.4302,2.4302,2.4302,2.4302,2.4302,2.4302,2.4302,2.5072,2.6135,2.6287,2.7149,2.8258,3.5908,3.5899,3.5895,3.5903,3.5923,3.5947,3.5958,3.5958,3.5962,3.5991,3.5991,3.5991,3.5991,3.5991,3.5991,3.5991,3.5991,3.5991,3.5991,3.5991,3.5991,3.5991,3.5991,3.5991,3.5991,3.5991,3.5991,3.5991,3.5991,3.5991,3.5991,3.5991,3.5991,3.5991,3.5991,3.5984,3.5896,3.505,3.4199,3.3324,3.2497,3.1641,3.0898,3.0831,3.0796,3.08,3.0765,3.072,3.0704,3.0704,3.0685,3.0644,3.0617,3.0537,3.0486,3.0414,3.0414,3.0402,3.041,3.0398,3.0398,3.0398,3.0323,3.0254,3.0254,3.0128,2.9977,2.988,2.9732,2.957,2.9531,2.945,2.9407,2.9407,2.9407,2.9365,2.9262,2.8966,2.8718,2.8615,2.8228,2.7954,2.7926,2.78,2.7642,2.743,2.7355,2.7215,2.6992,2.6876,2.6775,2.6691,2.635,2.6139,2.6139,2.6139,2.6052,2.5835,2.5835,2.5615,2.5198,2.5198,2.5005,2.4599,2.4599,2.4492,2.4302,2.4302,2.4302,2.4302,2.4302,2.5149,2.6349,2.6349,2.7226,2.8444,3.5885,3.5891,3.5908,3.5909,3.5899,3.5894,3.5895,3.5899,3.5923,3.5978,3.5981,3.5981,3.5981,3.5981,3.5981,3.5988,3.5985,3.5985,3.5991,3.5988,3.5988,3.5991,3.5991,3.5991,3.5991,3.5991,3.5991,3.5991,3.5991,3.5991,3.5991,3.5991,3.5991,3.5991,3.5991,3.5896,3.5642,3.4777,3.3898,3.3034,3.2225,3.1504,3.0898,3.0898,3.0879,3.082,3.082,3.0793,3.0758,3.0758,3.0739,3.07,3.064,3.0586,3.051,3.0444,3.0402,3.0398,3.0398,3.0398,3.0398,3.0398,3.0398,3.0398,3.0398,3.0286,3.0169,3.0109,2.9896,2.9697,2.9607,2.9512,2.9429,2.9407,2.9407,2.9407,2.9407,2.9119,2.8902,2.8814,2.8522,2.8281,2.821,2.8156,2.7992,2.773,2.7642,2.743,2.7023,2.6942,2.6842,2.6691,2.6691,2.6691,2.6691,2.6691,2.6539,2.6245,2.6245,2.6016,2.5652,2.5652,2.5427,2.5059,2.5059,2.4823,2.4451,2.4451,2.4369,2.4302,2.4302,2.5164,2.638,2.638,2.7288,2.8493,3.5807,3.5857,3.5905,3.5911,3.5891,3.5889,3.5894,3.5894,3.5894,3.5914,3.5914,3.5914,3.5914,3.5914,3.5904,3.5908,3.5909,3.5934,3.5991,3.5939,3.5935,3.5991,3.5991,3.5991,3.5991,3.5991,3.5991,3.5991,3.5991,3.5991,3.5991,3.5991,3.5991,3.5991,3.5991,3.5545,3.4744,3.3879,3.2985,3.2129,3.1328,3.0957,3.0898,3.0898,3.0898,3.0898,3.0898,3.0898,3.0898,3.0898,3.0839,3.0774,3.0715,3.0655,3.0576,3.051,3.0448,3.0398,3.0398,3.0398,3.0398,3.0398,3.0398,3.0398,3.0398,3.0398,3.0343,3.0136,3.0075,2.9973,2.9662,2.9589,2.9551,2.9409,2.9407,2.9407,2.9407,2.9304,2.924,2.9178,2.8863,2.8644,2.8576,2.8281,2.7992,2.773,2.7642,2.7461,2.7103,2.6975,2.6842,2.6691,2.6691,2.6691,2.6691,2.6691,2.6691,2.6657,2.6657,2.6436,2.6068,2.6068,2.5835,2.5465,2.5465,2.5237,2.4879,2.4879,2.4655,2.4302,2.4302,2.5164,2.638,2.638,2.7365,2.8748,3.585,3.585,3.585,3.5898,3.5872,3.5852,3.5898,3.5898,3.5897,3.5909,3.5899,3.5924,3.5951,3.5929,3.5924,3.5962,3.5927,3.5903,3.5935,3.5942,3.5965,3.5991,3.5991,3.5991,3.5991,3.5991,3.5991,3.5991,3.5991,3.5991,3.5991,3.5991,3.5991,3.5991,3.5991,3.5525,3.4647,3.3773,3.2905,3.2031,3.1211,3.0898,3.0898,3.0898,3.0898,3.0898,3.0898,3.0898,3.0898,3.0898,3.0879,3.0857,3.0784,3.0723,3.0637,3.053,3.0486,3.0466,3.0466,3.0433,3.0398,3.0398,3.0398,3.0398,3.0398,3.0398,3.0367,3.0299,3.0182,3.0047,2.9927,2.975,2.9589,2.9532,2.9451,2.9407,2.9407,2.9386,2.9304,2.92,2.9089,2.8975,2.8858,2.8601,2.8281,2.7982,2.7771,2.7491,2.7117,2.6975,2.6893,2.6842,2.6742,2.6691,2.6691,2.6691,2.6691,2.6691,2.6691,2.6624,2.647,2.647,2.6245,2.5872,2.5872,2.5652,2.5275,2.5368,2.5176,2.4886,2.5287,2.5958,2.6823,2.7098,2.7937,2.8982,3.5864,3.5857,3.5845,3.5892,3.5852,3.5845,3.5892,3.5898,3.5891,3.589,3.5899,3.5924,3.5955,3.5929,3.5929,3.5962,3.5927,3.5903,3.5935,3.5965,3.5991,3.5991,3.5988,3.5988,3.5991,3.5991,3.5991,3.5991,3.5991,3.5991,3.5991,3.5991,3.5991,3.5991,3.572,3.5115,3.4237,3.3358,3.2491,3.1679,3.1113,3.0898,3.0898,3.0898,3.0898,3.0898,3.0898,3.0898,3.0898,3.0898,3.0898,3.0898,3.0858,3.0769,3.0691,3.0569,3.0528,3.0528,3.0509,3.0466,3.0433,3.0433,3.0433,3.0433,3.0433,3.0433,3.0402,3.0402,3.0279,3.0163,3.0122,2.9912,2.9732,2.9626,2.9513,2.945,2.9407,2.9407,2.9365,2.924,2.92,2.9175,2.904,2.8767,2.8507,2.8264,2.7897,2.7504,2.7117,2.699,2.6926,2.6893,2.6775,2.6691,2.6691,2.6691,2.6691,2.6691,2.6691,2.6691,2.6691,2.6691,2.6539,2.628,2.628,2.6068,2.5742,2.5832,2.5647,2.5333,2.5935,2.6513,2.7083,2.7633,2.843,2.9259,3.5815,3.584,3.5908,3.5908,3.5908,3.5908,3.5908,3.5908,3.5908,3.5908,3.5908,3.5908,3.5889,3.5908,3.5899,3.5903,3.5904,3.5934,3.5991,3.5991,3.5991,3.5991,3.5939,3.5935,3.5991,3.5991,3.5991,3.5991,3.5991,3.5991,3.5991,3.5991,3.5991,3.5952,3.5096,3.4217,3.3339,3.2461,3.1647,3.0895,3.0898,3.0898,3.0898,3.0898,3.0898,3.0898,3.0898,3.0898,3.0898,3.0898,3.0898,3.0898,3.0898,3.0817,3.0694,3.0617,3.0597,3.0597,3.0528,3.0509,3.0499,3.0499,3.0499,3.0499,3.0499,3.0458,3.0398,3.0398,3.0402,3.0343,3.0136,3.0109,2.9988,2.9662,2.9608,2.9551,2.9409,2.9407,2.9386,2.9302,2.924,2.9156,2.9108,2.8791,2.8601,2.8601,2.8055,2.7522,2.7117,2.7055,2.6992,2.6893,2.6775,2.6691,2.6691,2.6691,2.6691,2.6691,2.6691,2.6691,2.6691,2.6691,2.6691,2.6691,2.6691,2.6556,2.6295,2.6295,2.5941,2.5486,2.6156,2.6662,2.7083,2.7826,2.8717,2.956,3.5727,3.5754,3.576,3.583,3.5878,3.5898,3.5898,3.5897,3.5894,3.5895,3.5899,3.5924,3.5974,3.5929,3.5929,3.5962,3.5927,3.5927,3.5991,3.597,3.5947,3.5991,3.5988,3.5988,3.5991,3.5991,3.5991,3.5991,3.5991,3.5991,3.5991,3.5991,3.5662,3.5076,3.4822,3.3886,3.2461,3.2207,3.1643,3.0905,3.0897,3.0898,3.0898,3.0898,3.0898,3.0898,3.0898,3.0898,3.0898,3.0898,3.0898,3.0898,3.084,3.0795,3.0765,3.0695,3.0645,3.0598,3.0579,3.0579,3.0569,3.0509,3.0499,3.0499,3.0439,3.0398,3.0406,3.0402,3.039,3.0367,3.0311,3.0196,3.008,2.9958,2.9748,2.9589,2.9551,2.9451,2.9386,2.9302,2.924,2.9156,2.9108,2.8791,2.8601,2.8601,2.8201,2.7936,2.7823,2.7725,2.7547,2.7258,2.7164,2.7004,2.6691,2.6691,2.6691,2.6691,2.6691,2.6691,2.6691,2.6691,2.6691,2.6691,2.6691,2.6708,2.6742,2.6759,2.6607,2.6414,2.7328,2.7702,2.7924,2.9032,2.9702,3.0097,3.5629,3.5689,3.5743,3.5791,3.5859,3.5905,3.5897,3.5903,3.5899,3.5903,3.5895,3.5938,3.5991,3.5955,3.597,3.5991,3.5965,3.5962,3.5991,3.5955,3.5951,3.5991,3.5991,3.5991,3.5991,3.5991,3.5991,3.5991,3.5991,3.5818,3.5486,3.5486,3.5018,3.4178,3.3827,3.3085,3.207,3.1758,3.1348,3.0899,3.0892,3.0897,3.0898,3.0898,3.0898,3.0898,3.0898,3.0898,3.0898,3.0898,3.0898,3.0898,3.0859,3.084,3.0839,3.0765,3.0704,3.0671,3.0604,3.0598,3.0588,3.054,3.053,3.053,3.046,3.0439,3.0428,3.0414,3.039,3.0398,3.0398,3.0299,3.0196,3.0122,2.9927,2.9784,2.9734,2.957,2.9453,2.9412,2.9286,2.9178,2.9134,2.8815,2.8551,2.8404,2.8334,2.8237,2.8102,2.8037,2.7869,2.7607,2.753,2.7303,2.6891,2.6891,2.6825,2.6691,2.6691,2.6691,2.6691,2.6691,2.6691,2.6691,2.6742,2.6825,2.6942,2.7007,2.6908,2.6877,2.8045,2.8443,2.8472,2.9807,3.0377,3.0559,3.5488,3.565,3.5764,3.5762,3.582,3.5864,3.587,3.5875,3.5894,3.587,3.588,3.5931,3.5985,3.5988,3.5991,3.5988,3.5991,3.5991,3.5988,3.5991,3.5991,3.5965,3.5988,3.5988,3.5965,3.5988,3.5991,3.5991,3.591,3.5461,3.4683,3.4602,3.4095,3.3236,3.2458,3.2048,3.1934,3.1192,3.0899,3.0899,3.0899,3.0891,3.0898,3.0898,3.0898,3.0898,3.0898,3.0898,3.0898,3.0898,3.0898,3.0898,3.0898,3.0898,3.0898,3.082,3.0801,3.0775,3.0661,3.0617,3.0598,3.0598,3.0598,3.0569,3.052,3.05,3.0479,3.0428,3.0394,3.041,3.041,3.041,3.0343,3.0169,3.0122,3.0066,2.9934,2.9751,2.9626,2.9608,2.9373,2.9222,2.92,2.8863,2.8507,2.821,2.8456,2.8507,2.8183,2.812,2.8037,2.7954,2.7897,2.7666,2.7244,2.7213,2.7021,2.6691,2.6691,2.6691,2.6691,2.6691,2.6742,2.6742,2.6842,2.6959,2.7007,2.707,2.6989,2.7011,2.8421,2.8854,2.8816,3.0291,3.0828,3.0885,3.5418,3.547,3.55,3.5557,3.563,3.566,3.567,3.5749,3.5779,3.5674,3.5795,3.5889,3.5859,3.5885,3.5927,3.5929,3.5923,3.5927,3.5929,3.5978,3.5927,3.5774,3.5864,3.5864,3.5774,3.5864,3.5942,3.5991,3.5207,3.4762,3.4608,3.3866,3.3087,3.2303,3.2108,3.1675,3.1075,3.0899,3.086,3.0899,3.0909,3.0909,3.0907,3.0898,3.0898,3.0898,3.0898,3.0898,3.0898,3.0898,3.0898,3.0898,3.0898,3.0898,3.0898,3.0879,3.084,3.0795,3.0758,3.0675,3.0598,3.0598,3.0598,3.0569,3.052,3.0491,3.05,3.0479,3.0447,3.0406,3.0406,3.0402,3.0398,3.0343,3.0196,3.0095,3.0066,2.9931,2.9786,2.9626,2.9456,2.9314,2.9222,2.9021,2.8881,2.8815,2.8881,2.8881,2.8815,2.8791,2.8608,2.8219,2.8192,2.7992,2.7612,2.7338,2.7021,2.6691,2.6691,2.6691,2.6691,2.6792,2.6842,2.6842,2.6942,2.7007,2.707,2.7103,2.7152,2.7324,2.8509,2.8963,2.9113,3.062,3.1201,3.1257,3.5296,3.5374,3.5411,3.5438,3.5519,3.5554,3.5607,3.563,3.5631,3.5591,3.5678,3.5741,3.5713,3.5733,3.5755,3.576,3.5781,3.5788,3.576,3.582,3.5807,3.5648,3.5356,3.5157,3.5091,3.4738,3.4802,3.5276,3.4335,3.3679,3.3303,3.2817,3.2156,3.1373,3.1373,3.1161,3.0801,3.0841,3.088,3.0899,3.0895,3.0896,3.0894,3.0898,3.0898,3.0898,3.0898,3.0898,3.0898,3.0898,3.0898,3.0898,3.0898,3.0898,3.0898,3.0898,3.0879,3.0838,3.0806,3.0749,3.0694,3.0656,3.0617,3.0569,3.052,3.0491,3.0481,3.0469,3.0428,3.0386,3.0394,3.039,3.0398,3.0398,3.0311,3.0209,3.0122,2.9977,2.9801,2.9589,2.9397,2.9249,2.9112,2.904,2.8994,2.8994,2.8994,2.8994,2.8994,2.8994,2.8858,2.8558,2.8533,2.8334,2.7897,2.7725,2.747,2.721,2.6873,2.6691,2.6691,2.6842,2.6893,2.6893,2.699,2.7087,2.7103,2.7184,2.7439,2.7937,2.887,2.9468,2.993,3.1113,3.1542,3.1542,3.5209,3.5289,3.536,3.5372,3.5412,3.547,3.5519,3.5495,3.5483,3.5519,3.5554,3.5588,3.5581,3.5572,3.5592,3.5602,3.566,3.565,3.5582,3.5504,3.5427,3.5349,3.4584,3.4156,3.4138,3.3296,3.3335,3.428,3.3382,3.2571,3.188,3.1709,3.13,3.0661,3.0672,3.0724,3.0794,3.0858,3.0899,3.0901,3.0896,3.0898,3.0898,3.0898,3.0898,3.0898,3.0898,3.0898,3.0898,3.0898,3.0898,3.0898,3.0898,3.0898,3.0898,3.0898,3.0898,3.0898,3.082,3.081,3.0793,3.0732,3.0664,3.0595,3.054,3.052,3.0481,3.0439,3.0398,3.0406,3.0402,3.041,3.0398,3.0398,3.0398,3.0343,3.0163,3.0056,2.9883,2.9625,2.9375,2.9178,2.9017,2.8994,2.8994,2.8994,2.8994,2.8994,2.8994,2.8994,2.8929,2.881,2.881,2.8601,2.821,2.8156,2.8047,2.7851,2.7192,2.6873,2.6808,2.6957,2.6975,2.6942,2.7087,2.7135,2.7135,2.725,2.773,2.8472,2.9213,2.9989,3.0782,3.1524,3.18,3.18,3.5209,3.5207,3.5242,3.5223,3.5239,3.5239,3.5254,3.533,3.5379,3.527,3.5424,3.5502,3.543,3.5489,3.5546,3.5582,3.5611,3.5588,3.5531,3.4875,3.4438,3.4307,3.3597,3.3156,3.3096,3.2319,3.2385,3.3386,3.2386,3.1871,3.1796,3.0972,3.0577,3.0527,3.0579,3.065,3.072,3.0791,3.086,3.0899,3.0909,3.0894,3.0896,3.0896,3.0896,3.0896,3.0896,3.0891,3.0905,3.0898,3.0898,3.0898,3.0898,3.0898,3.0898,3.0898,3.0898,3.0898,3.0898,3.0839,3.0796,3.0801,3.0734,3.0678,3.0595,3.053,3.0491,3.0491,3.0449,3.0398,3.0406,3.0402,3.0398,3.0398,3.0398,3.0398,3.0367,3.0343,3.0247,3.0045,2.9626,2.9267,2.9021,2.8994,2.8994,2.8994,2.8994,2.8994,2.8994,2.8994,2.897,2.8881,2.8834,2.8737,2.8601,2.8334,2.8156,2.8129,2.7851,2.7607,2.7303,2.7444,2.7338,2.707,2.7201,2.7282,2.7282,2.7282,2.773,2.8472,2.9213,2.9989,3.0782,3.1524,3.18,3.18,3.5209,3.5209,3.5209,3.5209,3.5209,3.5209,3.5209,3.5258,3.5273,3.5209,3.5285,3.5311,3.5289,3.5296,3.5336,3.5366,3.4962,3.4686,3.4649,3.3904,3.343,3.3321,3.2576,3.2173,3.2166,3.1341,3.1149,3.1642,3.1199,3.0991,3.102,3.0587,3.0428,3.0501,3.0527,3.06,3.0691,3.0728,3.0807,3.0899,3.0903,3.0905,3.0907,3.0907,3.0907,3.0907,3.0892,3.0852,3.0808,3.0862,3.0856,3.08,3.0878,3.0898,3.0898,3.0898,3.0898,3.0898,3.0898,3.0879,3.0857,3.0859,3.0813,3.0759,3.072,3.0627,3.055,3.05,3.0479,3.0428,3.0414,3.039,3.0398,3.0398,3.0398,3.0355,3.0254,3.0241,3.0142,2.9899,2.9661,2.9475,2.9353,2.9353,2.9291,2.9181,2.9181,2.9115,2.9017,2.8994,2.8952,2.8905,2.8881,2.8834,2.8761,2.8601,2.8558,2.8583,2.8507,2.8075,2.7409,2.7535,2.743,2.7103,2.7233,2.7299,2.7299,2.7299,2.7971,2.9058,2.9368,3.0248,3.1351,3.1679,3.18,3.18]},{"header":{"parameterUnit":"m.s-1","parameterCategory":1,"la1":30.6,"la2":28.766,"lo1":-90.7593,"lo2":-88.6598,"dy":0.0162,"dx":0.0183,"nx":116,"ny":114,"refTime":"2023-06-01T06:00:00:Z","depth":0,"parameterNumber":3,"parameterNumberName":"V-component_of_WINDS"},"data":[0.0,0.0,0.0,0.0,0.0,0.0,0.0,0.0,0.0,0.0,0.0,0.0,0.0,0.0,0.0,0.0,0.0,0.0,0.0,0.0,0.0,0.0,0.0,0.0,0.0,0.0,0.0,0.0,0.0,0.0,0.0,0.0,0.0,0.0,0.0,0.0,0.0,0.0,0.0,0.0,0.0,0.0,0.0,0.0,0.0,0.0,0.0,0.0,0.0,0.0,0.0,0.0,0.0,0.0,0.0,0.0,0.0,0.0,0.0,0.0,0.0,0.0,0.0,0.0,0.0,0.0,0.0,0.0,0.0,0.0,0.0,0.0,0.0,0.0,0.0,0.0,0.0,0.0,0.0,0.0,0.0,0.0,0.0,0.0,0.0,0.0,0.0,0.0,0.0,0.0,0.0,0.0,0.0,0.0,0.0,0.0,0.0,0.0,0.0,0.0,0.0,0.0,0.0,0.0,0.0,0.0,0.0,0.0,0.0,0.0,0.0,0.0,0.0,0.0,0.0,0.0,0.0,0.0,0.0,0.0,0.0,0.0,0.0,0.0,0.0,0.0,0.0,0.0,0.0,0.0,0.0,0.0,0.0,0.0,0.0,0.0,0.0,0.0,0.0,0.0,0.0,0.0,0.0,0.0,0.0,0.0,0.0,0.0,0.0,0.0,0.0,0.0,0.0,0.0,0.0,0.0,0.0,0.0,0.0,0.0,0.0,0.0,0.0,0.0,0.0,0.0,0.0,0.0,0.0,0.0,0.0,0.0,0.0,0.0,0.0,0.0,0.0,0.0,0.0,0.0,0.0,0.0,0.0,0.0,0.0,0.0,0.0,0.0,0.0,0.0,0.0,0.0,0.0,0.0,0.0,0.0,0.0,0.0,0.0,0.0,0.0,0.0,0.0,0.0,0.0,0.0,0.0,0.0,0.0,0.0,0.0,0.0,0.0,0.0,0.0,0.0,0.0,0.0,0.0,0.0,0.0,0.0,0.0,0.0,0.0,0.0,0.0,0.0,0.0,0.0,0.0,0.0,0.0,0.0,0.0,0.0,0.0,0.0,0.0,0.0,0.0,0.0,0.0,0.0,0.0,0.0,0.0,0.0,0.0,0.0,0.0,0.0,0.0,0.0,0.0,0.0,0.0,0.0,0.0,0.0,0.0,0.0,0.0,0.0,0.0,0.0,0.0,0.0,0.0,0.0,0.0,0.0,0.0,0.0,0.0,0.0,0.0,0.0,0.0,0.0,0.0,0.0,0.0,0.0,0.0,0.0,0.0,0.0,0.0,0.0,0.0,0.0,0.0,0.0,0.0,0.0,0.0,0.0,0.0,0.0,0.0,0.0,0.0,0.0,0.0,0.0,0.0,0.0,0.0,0.0,0.0,0.0,0.0,0.0,0.0,0.0,0.0,0.0,0.0,0.0,0.0,0.0,0.0,0.0,0.0,0.0,0.0,0.0,0.0,0.0,0.0,0.0,0.0,0.0,0.0,0.0,0.0,0.0,0.0,0.0,0.0,0.0,0.0,0.0,0.0,0.0,0.0,0.0,0.0,0.0,0.0,0.0,0.0,0.0,0.0,0.0,0.0,0.0,0.0,0.0,0.0,0.0,0.0,0.0,0.0,0.0,0.0,0.0,0.0,0.0,0.0,0.0,0.0,0.0,0.0,0.0,0.0,0.0,0.0,0.0,0.0,0.0,0.0,0.0,0.0,0.0,0.0,0.0,0.0,0.0,0.0,0.0,0.0,0.0,0.0,0.0,0.0,0.0,0.0,0.0,0.0,0.0,0.0,0.0,0.0,0.0,0.0,0.0,0.0,0.0,0.0,0.0,0.0,0.0,0.0,0.0,0.0,0.0,0.0,0.0,0.0,0.0,0.0,0.0,0.0,0.0,0.0,0.0,0.0,0.0,0.0,0.0,0.0,0.0,0.0,0.0,0.0,0.0,0.0,0.0,0.0,0.0,0.0,0.0,0.0,0.0,0.0,0.0,0.0,0.0,0.0,0.0,0.0,0.0,0.0,0.0,0.0,0.0,0.0,0.0,0.0,0.0,0.0,0.0,0.0,0.0,0.0,0.0,0.0,0.0,0.0,0.0,0.0,0.0,0.0,0.0,0.0,0.0,0.0,0.0,0.0,0.0,0.0,0.0,0.0,0.0,0.0,0.0,0.0,0.0,0.0,0.0,0.0,0.0,0.0,0.0,0.0,0.0,0.0,0.0,0.0,0.0,0.0,0.0,0.0,0.0,0.0,0.0,0.0,0.0,0.0,0.0,0.0,0.0,0.0,0.0,0.0,0.0,0.0,0.0,0.0,0.0,0.0,0.0,0.0,0.0,0.0,0.0,0.0,0.0,0.0,0.0,0.0,0.0,0.0,0.0,0.0,0.0,0.0,0.0,0.0,0.0,0.0,0.0,0.0,0.0,0.0,0.0,0.0,0.0,0.0,0.0,0.0,0.0,0.0,0.0,0.0,0.0,0.0,0.0,0.0,0.0,0.0,0.0,0.0,0.0,0.0,0.0,0.0,0.0,0.0,0.0,0.0,0.0,0.0,0.0,0.0,0.0,0.0,0.0,0.0,0.0,0.0,0.0,0.0,0.0,0.0,0.0,0.0,0.0,0.0,0.0,0.0,0.0,0.0,0.0,0.0,0.0,0.0,0.0,0.0,0.0,0.0,0.0,0.0,0.0,0.0,0.0,0.0,0.0,0.0,0.0,0.0,0.0,0.0,0.0,0.0,0.0,0.0,0.0,0.0,0.0,0.0,0.0,0.0,0.0,0.0,0.0,0.0,0.0,0.0,0.0,0.0,0.0,0.0,0.0,0.0,0.0,0.0,0.0,0.0,0.0,0.0,0.0,0.0,0.0,0.0,0.0,0.0,0.0,0.0,0.0,0.0,0.0,0.0,0.0,0.0,0.0,0.0,0.0,0.0,0.0,0.0,0.0,0.0,0.0,0.0,0.0,0.0,0.0,0.0,0.0,0.0,0.0,0.0,0.0,0.0,0.0,0.0,0.0,0.0,0.0,0.0,0.0,0.0,0.0,0.0,0.0,0.0,0.0,0.0,0.0,0.0,0.0,0.0,0.0,0.0,0.0,0.0,0.0,0.0,0.0,0.0,0.0,0.0,0.0,0.0,0.0,0.0,0.0,0.0,0.0,0.0,0.0,0.0,0.0,0.0,0.0,0.0,0.0,0.0,0.0,0.0,0.0,0.0,0.0,0.0,0.0,0.0,0.0,0.0,0.0,0.0,0.0,0.0,0.0,0.0,0.0,0.0,0.0,0.0,0.0,0.0,0.0,0.0,0.0,0.0,0.0,0.0,0.0,0.0,0.0,0.0,0.0,0.0,0.0,0.0,0.0,0.0,0.0,0.0,0.0,0.0,0.0,0.0,0.0,0.0,0.0,0.0,0.0,0.0,0.0,0.0,0.0,0.0,0.0,0.0,0.0,0.0,0.0,0.0,0.0,0.0,0.0,0.0,0.0,0.0,0.0,0.0,0.0,0.0,0.0,0.0,0.0,0.0,0.0,0.0,0.0,0.0,0.0,0.0,0.0,0.0,0.0,0.0,0.0,0.0,0.0,0.0,0.0,0.0,0.0,0.0,0.0,0.0,0.0,0.0,0.0,0.0,0.0,0.0,0.0,0.0,0.0,0.0,0.0,0.0,0.0,0.0,0.0,0.0,0.0,0.0,0.0,0.0,0.0,0.0,0.0,0.0,0.0,0.0,0.0,0.0,0.0,0.0,0.0,0.0,0.0,0.0,0.0,0.0,0.0,0.0,0.0,0.0,0.0,0.0,0.0,0.0,0.0,0.0,0.0,0.0,0.0,0.0,0.0,0.0,0.0,0.0,0.0,0.0,0.0,0.0,0.0,0.0,0.0,0.0,0.0,0.0,0.0,0.0,0.0,0.0,0.0,0.0,0.0,0.0,0.0,0.0,0.0,0.0,0.0,0.0,0.0,0.0,0.0,0.0,0.0,0.0,0.0,0.0,0.0,0.0,0.0,0.0,0.0,0.0,0.0,0.0,0.0,0.0,0.0,0.0,0.0,0.0,0.0,0.0,0.0,0.0,0.0,0.0,0.0,0.0,0.0,0.0,0.0,0.0,0.0,0.0,0.0,0.0,0.0,0.0,0.0,0.0,0.0,0.0,0.0,0.0,0.0,0.0,0.0,0.0,0.0,0.0,0.0,0.0,0.0,0.0,0.0,0.0,0.0,0.0,0.0,0.0,0.0,0.0,0.0,0.0,0.0,0.0,0.0,0.0,0.0,0.0,0.0,0.0,0.0,0.0,0.0,0.0,0.0,0.0,0.0,0.0,0.0,0.0,0.0,0.0,0.0,0.0,0.0,0.0,0.0,0.0,0.0,0.0,0.0,0.0,0.0,0.0,0.0,0.0,0.0,0.0,0.0,0.0,0.0,0.0,0.0,0.0,0.0,0.0,0.0,0.0,0.0,0.0,0.0,0.0,0.0,0.0,0.0,0.0,0.0,0.0,0.0,0.0,0.0,0.0,0.0,0.0,0.0,0.0,0.0,0.0,0.0,0.0,0.0,0.0,0.0,0.0,0.0,0.0,0.0,0.0,0.0,0.0,0.0,0.0,0.0,0.0,0.0,0.0,0.0,0.0,0.0,0.0,0.0,0.0,0.0,0.0,0.0,0.0,0.0,0.0,0.0,0.0,0.0,0.0,0.0,0.0,0.0,0.0,0.0,0.0,0.0,0.0,0.0,0.0,0.0,0.0,0.0,0.0,0.0,0.0,0.0,0.0,0.0,0.0,0.0,0.0,0.0,0.0,0.0,0.0,0.0,0.0,0.0,0.0,0.0,0.0,0.0,0.0,0.0,0.0,0.0,0.0,0.0,0.0,0.0,0.0,0.0,0.0,0.0,0.0,0.0,0.0,0.0,0.0,0.0,0.0,0.0,0.0,0.0,0.0,0.0,0.0,0.0,0.0,0.0,0.0,0.0,0.0,0.0,0.0,0.0,0.0,0.0,0.0,0.0,0.0,0.0,0.0,0.0,0.0,0.0,0.0,0.0,0.0,0.0,0.0,0.0,0.0,0.0,0.0,0.0,0.0,0.0,0.0,0.0,0.0,0.0,0.0,0.0,0.0,0.0,0.0,0.0,0.0,0.0,0.0,0.0,0.0,0.0,0.0,0.0,0.0,0.0,0.0,0.0,0.0,0.0,0.0,0.0,0.0,0.0,0.0,0.0,0.0,0.0,0.0,0.0,0.0,0.0,0.0,0.0,0.0,0.0,0.0,0.0,0.0,0.0,0.0,0.0,0.0,0.0,0.0,0.0,0.0,0.0,0.0,0.0,0.0,0.0,0.0,0.0,0.0,0.0,0.0,0.0,0.0,0.0,0.0,0.0,0.0,0.0,0.0,0.0,0.0,0.0,0.0,0.0,0.0,0.0,0.0,0.0,0.0,0.0,0.0,0.0,0.0,0.0,0.0,0.0,0.0,0.0,0.0,0.0,0.0,0.0,0.0,0.0,0.0,0.0,0.0,0.0,0.0,0.0,0.0,0.0,0.0,0.0,0.0,0.0,0.0,0.0,0.0,0.0,0.0,0.0,0.0,0.0,0.0,0.0,0.0,0.0,0.0,0.0,0.0,0.0,0.0,0.0,0.0,0.0,0.0,0.0,0.0,0.0,0.0,0.0,0.0,0.0,0.0,0.0,0.0,0.0,0.0,0.0,0.0,0.0,0.0,0.0,0.0,0.0,0.0,0.0,0.0,0.0,0.0,0.0,0.0,0.0,0.0,0.0,0.0,0.0,0.0,0.0,0.0,0.0,0.0,0.0,0.0,0.0,0.0,0.0,0.0,0.0,0.0,0.0,0.0,0.0,0.0,0.0,0.0,0.0,0.0,0.0,0.0,0.0,0.0,0.0,0.0,0.0,0.0,0.0,0.0,0.0,0.0,0.0,0.0,0.0,0.0,0.0,0.0,0.0,0.0,0.0,0.0,0.0,0.0,0.0,0.0,0.0,0.0,0.0,0.0,0.0,0.0,0.0,0.0,0.0,0.0,0.0,0.0,0.0,0.0,0.0,0.0,0.0,0.0,0.0,0.0,0.0,0.0,0.0,0.0,0.0,0.0,0.0,-0.6863,-0.5943,0.0,0.0,0.0,0.0,0.0,0.0,0.0,0.0,0.0,0.0,0.0,0.0,0.0,0.0,0.0,0.0,0.0,0.0,0.0,0.0,0.0,0.0,0.0,0.0,0.0,0.0,0.0,0.0,0.0,0.0,0.0,0.0,0.0,0.0,0.0,0.0,0.0,0.0,-0.4136,-0.4011,-0.3802,-0.3624,-0.3627,-0.3691,0.0,0.0,0.0,0.0,0.0,0.0,0.0,0.0,0.0,0.0,0.0,0.0,0.0,0.0,0.0,0.0,0.0,0.0,0.0,0.0,0.0,0.0,0.0,0.0,0.0,0.0,0.0,0.0,0.0,0.0,0.0,0.0,0.0,0.0,0.0,0.0,0.0,0.0,0.0,0.0,0.0,0.0,0.0,0.0,0.0,0.0,0.0,0.0,0.0,0.0,0.0,0.0,0.0,0.0,0.0,0.0,0.0,0.0,0.0,0.0,0.0,0.0,0.0,0.0,0.0,0.0,0.0,0.0,0.0,0.0,-0.6924,-0.6597,0.0,0.0,0.0,0.0,0.0,0.0,0.0,0.0,0.0,0.0,0.0,0.0,0.0,0.0,0.0,0.0,0.0,0.0,0.0,0.0,0.0,0.0,0.0,-0.1524,-0.1393,-0.1311,-0.1267,-0.129,0.0,0.0,0.0,0.0,0.0,0.0,0.0,-0.4181,-0.4186,-0.4193,-0.4138,-0.3858,-0.3357,-0.3188,-0.3254,-0.3444,-0.3426,0.0,0.0,0.0,0.0,0.0,0.0,0.0,0.0,0.0,0.0,0.0,0.0,0.0,0.0,0.0,0.0,0.0,0.0,0.0,0.0,0.0,0.0,0.0,0.0,0.0,0.0,0.0,0.0,0.0,0.0,0.0,0.0,0.0,0.0,0.0,0.0,0.0,0.0,0.0,0.0,0.0,0.0,0.0,0.0,0.0,0.0,0.0,0.0,0.0,0.0,0.0,0.0,0.0,0.0,0.0,0.0,0.0,0.0,0.0,0.0,0.0,0.0,0.0,-0.5947,-0.6079,-0.5752,-0.6798,-0.7451,-0.7712,-0.7051,-0.7442,-0.842,-0.7246,0.0,0.0,0.0,0.0,0.0,0.0,0.0,0.0,0.0,0.0,0.0,0.0,0.0,0.0,0.0,0.0,0.0,0.0,0.0,0.0,0.0,-0.1433,-0.1363,-0.1319,-0.1181,-0.1344,-0.1793,0.0,0.0,0.0,0.0,0.0,-0.3655,-0.3996,-0.4174,-0.4193,-0.3965,-0.363,-0.313,-0.313,-0.3008,-0.2913,-0.2836,-0.2845,-0.2917,0.0,0.0,0.0,0.0,0.0,0.0,0.0,0.0,0.0,0.0,0.0,0.0,0.0,0.0,0.0,0.0,0.0,0.0,0.0,0.0,0.0,0.0,0.0,0.0,0.0,0.0,0.0,0.0,0.0,0.0,0.0,0.0,0.0,0.0,0.0,0.0,0.0,0.0,0.0,0.0,0.0,-0.6605,-0.6793,0.0,0.0,0.0,0.0,0.0,0.0,0.0,0.0,0.0,0.0,0.0,0.0,0.0,-0.5428,-0.5428,-0.5428,-0.5428,-0.5428,-0.5491,-0.6079,-0.7125,-0.6728,-0.7512,-0.9215,-0.849,0.0,-0.849,-0.8291,0.0,0.0,0.0,0.0,0.0,0.0,0.0,0.0,0.0,0.0,0.0,0.0,0.0,0.0,0.0,0.0,0.0,0.0,0.0,0.0,0.0,-0.1485,-0.1367,-0.1374,-0.123,-0.125,-0.1556,-0.2023,0.0,0.0,0.0,-0.4063,-0.4125,-0.419,-0.4138,-0.3965,-0.3868,-0.3618,-0.3223,-0.3282,-0.3098,-0.2654,-0.2621,-0.2682,-0.2893,-0.3197,0.0,0.0,0.0,0.0,0.0,0.0,0.0,0.0,0.0,0.0,0.0,0.0,0.0,0.0,0.0,0.0,0.0,0.0,0.0,0.0,0.0,0.0,0.0,0.0,0.0,0.0,0.0,0.0,0.0,0.0,0.0,0.0,0.0,0.0,0.0,0.0,0.0,0.0,0.0,-0.5943,-0.6207,-0.6597,-0.6276,-0.5951,0.0,0.0,0.0,0.0,0.0,0.0,0.0,0.0,0.0,-0.5428,-0.5428,-0.5428,-0.5428,-0.5428,-0.5428,-0.5428,-0.5752,-0.6272,-0.6859,-0.7377,-0.8096,-0.8952,-0.9017,-0.9087,-0.9017,-0.8689,-0.8161,-0.7637,0.0,0.0,0.0,0.0,-0.8958,-0.9484,0.0,0.0,0.0,0.0,0.0,0.0,0.0,0.0,0.0,0.0,0.0,0.0,-0.1854,-0.1346,-0.1129,-0.1377,-0.1228,-0.1247,-0.1453,-0.2314,-0.2882,-0.3067,-0.4018,-0.4519,-0.4519,-0.4281,-0.4076,-0.3789,-0.3798,-0.3685,-0.3335,-0.3474,-0.3219,-0.2682,-0.2682,-0.268,-0.2741,-0.3115,-0.3317,-0.3404,0.0,0.0,0.0,0.0,0.0,0.0,0.0,0.0,0.0,0.0,0.0,0.0,0.0,0.0,0.0,0.0,0.0,0.0,0.0,0.0,0.0,0.0,0.0,0.0,0.0,0.0,0.0,0.0,0.0,0.0,0.0,0.0,0.0,0.0,0.0,0.0,0.0,-0.6071,-0.6338,-0.6593,-0.6601,-0.6408,0.0,0.0,0.0,0.0,0.0,0.0,-0.5428,-0.5881,-0.5947,-0.5428,-0.5428,-0.5425,-0.5425,-0.5425,-0.5425,-0.5491,-0.6141,-0.6556,-0.6796,-0.8048,-0.8745,-0.9002,-0.9479,-0.9682,-0.967,-0.9003,-0.8689,-0.849,-0.8689,-0.8619,-0.8565,-0.9356,-0.9586,-0.9592,0.0,0.0,0.0,0.0,0.0,0.0,0.0,0.0,0.0,0.0,0.0,-0.1279,-0.1667,-0.0886,-0.0612,-0.1272,-0.1115,-0.1293,-0.195,-0.2565,-0.3123,-0.3572,-0.4298,-0.4632,-0.4519,-0.4321,-0.4039,-0.3801,-0.3865,-0.3745,-0.3505,-0.351,-0.3315,-0.3083,-0.3083,-0.2699,-0.2187,-0.2827,-0.3134,-0.328,-0.4209,0.0,0.0,0.0,0.0,0.0,0.0,0.0,0.0,0.0,0.0,0.0,0.0,0.0,0.0,0.0,0.0,0.0,0.0,0.0,0.0,0.0,0.0,0.0,0.0,0.0,0.0,0.0,0.0,0.0,0.0,0.0,0.0,0.0,0.0,0.0,0.0,0.0,0.0,-0.7246,-0.7587,0.0,0.0,0.0,0.0,-0.64,-0.64,-0.6075,-0.5428,-0.5428,-0.5428,-0.5428,-0.5428,-0.5491,-0.5617,-0.5617,-0.5617,-0.5617,-0.6342,-0.7025,-0.774,-0.855,-0.9355,-1.0221,-1.0221,-1.029,-1.0248,-0.9688,-0.9087,-0.8554,-0.9215,-0.9087,-0.8582,-0.9556,-0.985,-0.9886,0.0,0.0,0.0,0.0,0.0,0.0,0.0,0.0,-0.2757,-0.2364,-0.1598,-0.121,-0.153,-0.0726,-0.0424,-0.1098,-0.1047,-0.1217,-0.1845,-0.246,-0.3014,-0.3569,-0.4329,-0.4596,-0.4451,-0.4182,-0.403,-0.3871,-0.3993,-0.399,-0.3867,-0.3944,-0.3866,-0.357,-0.357,-0.3243,-0.2849,-0.3309,-0.3593,-0.3625,-0.4292,-0.4495,0.0,0.0,0.0,0.0,0.0,0.0,0.0,0.0,0.0,0.0,0.0,0.0,0.0,0.0,0.0,0.0,0.0,0.0,0.0,0.0,0.0,0.0,0.0,0.0,0.0,0.0,0.0,0.0,0.0,0.0,0.0,0.0,0.0,0.0,0.0,0.0,0.0,-0.7381,-0.7907,0.0,-0.7451,-0.7386,-0.7321,-0.7055,-0.7055,-0.6929,-0.6666,-0.6671,-0.6474,-0.6075,-0.647,-0.6659,-0.6574,-0.6974,-0.7369,-0.7697,-0.7907,-0.8432,-0.914,-0.9416,-0.9955,-1.0673,-1.0673,-1.0673,-1.066,-1.0467,-1.011,-0.9699,-0.9914,-0.9841,-0.9711,-1.0015,-1.0188,-1.02,0.0,0.0,0.0,0.0,0.0,0.0,0.0,0.0,-0.2725,-0.2034,-0.1456,-0.1157,-0.1165,-0.0484,-0.0328,-0.0952,-0.1121,-0.14,-0.179,-0.2843,-0.3527,-0.3685,-0.4333,-0.4548,-0.4291,-0.418,-0.4039,-0.3996,-0.4118,-0.4181,-0.4181,-0.4262,-0.4164,-0.3961,-0.3961,-0.3828,-0.3563,-0.3828,-0.3892,-0.3825,-0.4295,-0.4431,-0.4367,0.0,0.0,0.0,0.0,0.0,0.0,0.0,0.0,0.0,0.0,0.0,0.0,0.0,0.0,0.0,0.0,0.0,0.0,0.0,0.0,0.0,0.0,0.0,0.0,0.0,0.0,0.0,0.0,0.0,0.0,0.0,0.0,0.0,0.0,-0.7837,-0.8037,-0.7381,-0.8231,-0.856,-0.7842,-0.7972,-0.8042,-0.7777,-0.7517,-0.7321,-0.706,-0.7122,-0.7025,-0.6622,-0.7354,-0.7788,-0.7794,-0.8206,-0.862,-0.8904,-0.9109,-0.9513,-1.0031,-1.0243,-1.0649,-1.116,-1.116,-1.116,-1.116,-1.116,-1.1018,-1.0716,-1.0469,-1.0327,-1.0339,-1.0429,-1.0459,-1.0472,0.0,0.0,0.0,0.0,0.0,0.0,0.0,-0.3106,-0.2713,-0.1615,-0.1319,-0.1008,-0.0531,-0.022,-0.0224,-0.0842,-0.1456,-0.179,-0.1846,-0.3727,-0.4577,-0.3876,-0.4351,-0.4423,-0.401,-0.4187,-0.4249,-0.4124,-0.4243,-0.43,-0.43,-0.43,-0.43,-0.43,-0.43,-0.43,-0.43,-0.43,-0.4097,-0.3825,-0.4164,-0.43,-0.43,0.0,0.0,0.0,0.0,0.0,0.0,0.0,0.0,0.0,0.0,0.0,0.0,0.0,0.0,0.0,0.0,0.0,0.0,0.0,0.0,0.0,0.0,0.0,0.0,0.0,0.0,0.0,0.0,0.0,0.0,0.0,0.0,0.0,-0.7377,-0.8032,-0.8226,-0.7377,-0.856,-0.9215,-0.8619,-0.9151,-0.9221,-0.8565,-0.7852,-0.7134,-0.6544,-0.6722,-0.6894,-0.7091,-0.8027,-0.8699,-0.9136,-0.9141,-0.9211,-0.9217,-0.9846,-1.026,-1.0364,-1.1019,-1.1452,-1.1706,-1.1706,-1.1706,-1.1706,-1.1706,-1.1706,-1.1656,-1.0904,-1.049,-1.0381,-1.0641,-1.0731,-1.0767,0.0,0.0,0.0,0.0,0.0,0.0,0.0,-0.3017,-0.2644,-0.1429,-0.1341,-0.1073,-0.0385,-0.0223,-0.0336,-0.0842,-0.1456,-0.2233,-0.3166,-0.3758,-0.4321,-0.4748,-0.46,-0.4518,-0.4592,-0.4452,-0.4358,-0.4249,-0.4284,-0.43,-0.43,-0.43,-0.43,-0.43,-0.43,-0.43,-0.43,-0.43,-0.4233,-0.4164,-0.4233,-0.43,-0.43,0.0,0.0,0.0,0.0,0.0,0.0,0.0,0.0,0.0,0.0,0.0,0.0,0.0,0.0,0.0,0.0,0.0,0.0,0.0,0.0,0.0,0.0,0.0,0.0,0.0,0.0,0.0,0.0,0.0,0.0,0.0,-0.9215,-0.9151,-0.8888,-0.9087,-0.9151,-0.8888,-0.9221,-0.9414,-0.9215,-0.9414,-0.9497,-0.9544,-0.8343,-0.787,-0.8574,-0.7604,-0.7153,-0.7368,-0.8669,-0.9341,-0.9299,-1.0385,-1.106,-1.1398,-1.1623,-1.1734,-1.1739,-1.1959,-1.2078,-1.215,-1.215,-1.215,-1.215,-1.215,-1.2077,-1.1916,-1.1535,-1.1332,-1.1345,-1.1199,-1.115,-1.1015,0.0,0.0,0.0,0.0,0.0,0.0,0.0,-0.3092,-0.2668,-0.1382,-0.1593,-0.1423,-0.0336,-0.0449,-0.0673,-0.0954,-0.179,-0.2639,-0.3513,-0.4098,-0.4709,-0.5301,-0.4894,-0.4624,-0.4614,-0.4469,-0.4364,-0.43,-0.43,-0.43,-0.43,-0.43,-0.43,-0.43,-0.43,-0.43,-0.43,-0.43,-0.43,-0.43,-0.43,-0.43,-0.43,-0.4431,-0.4495,-0.4495,-0.4564,-0.4564,-0.4631,-0.4694,0.0,0.0,0.0,0.0,0.0,0.0,0.0,0.0,0.0,0.0,0.0,0.0,0.0,0.0,0.0,0.0,0.0,0.0,0.0,0.0,0.0,0.0,0.0,0.0,-0.9484,-0.9484,-0.9484,-0.9484,-0.9484,-0.9484,-0.958,-0.9646,-0.9646,-0.9748,-0.9874,-1.0091,-0.9064,-0.8636,-0.8974,-0.8649,-0.8418,-0.8279,-0.9867,-1.0641,-1.0639,-1.1458,-1.2065,-1.2305,-1.2305,-1.2305,-1.2305,-1.2305,-1.2305,-1.2305,-1.2305,-1.2305,-1.2305,-1.2305,-1.2224,-1.2077,0.0,0.0,0.0,0.0,-1.1409,-1.126,0.0,0.0,0.0,0.0,0.0,0.0,0.0,-0.3197,-0.2801,-0.1532,-0.2027,-0.1961,-0.0392,-0.0785,-0.1122,-0.1122,-0.2183,-0.3058,-0.3389,-0.4684,-0.5471,-0.5548,-0.5114,-0.4692,-0.4467,-0.4443,-0.4367,-0.4367,-0.4367,-0.4367,-0.43,-0.43,-0.43,-0.43,-0.43,-0.43,-0.43,-0.43,-0.43,-0.43,-0.43,-0.43,-0.43,-0.43,-0.43,-0.43,-0.43,-0.43,-0.43,-0.4495,0.0,0.0,0.0,0.0,0.0,0.0,0.0,0.0,0.0,0.0,0.0,0.0,0.0,0.0,0.0,0.0,0.0,0.0,0.0,0.0,0.0,0.0,0.0,0.0,-0.9508,-0.9526,-0.9526,-0.955,-0.9562,-0.9532,-0.976,-0.9916,-0.9916,-1.0194,-1.0339,-1.0369,-0.988,-0.9325,-0.871,-0.9619,0.0,0.0,0.0,-1.2003,-1.2157,-1.2231,-1.2305,-1.2305,-1.2305,-1.2305,-1.2305,-1.2305,-1.2305,-1.2305,-1.2305,-1.2305,-1.2305,-1.2305,-1.2305,-1.2305,-1.2077,-1.1929,-1.1706,-1.1706,-1.1558,-1.1484,0.0,0.0,0.0,0.0,0.0,0.0,0.0,-0.3294,-0.3267,-0.2489,-0.2579,-0.2074,-0.0505,-0.0898,-0.1234,-0.1122,-0.2183,-0.3398,-0.4507,-0.5323,-0.5568,-0.522,-0.5128,-0.5026,-0.4982,-0.4942,-0.4894,-0.4697,-0.4561,-0.4561,-0.4561,-0.4364,-0.43,-0.43,-0.43,-0.43,-0.43,-0.43,-0.43,-0.43,-0.43,-0.43,-0.43,-0.43,-0.43,-0.43,-0.43,-0.43,-0.43,-0.4367,-0.43,-0.43,-0.4367,-0.4957,0.0,0.0,0.0,0.0,0.0,0.0,0.0,0.0,0.0,0.0,0.0,0.0,0.0,0.0,0.0,0.0,0.0,0.0,0.0,-0.9484,-0.9658,-0.9796,-0.9796,-0.9976,-1.0103,-0.9826,-1.003,-1.0254,-1.0254,-1.0303,-1.0487,-1.0842,-1.0199,-0.9924,-1.0353,-0.9958,-0.9756,-0.9825,-1.0777,-1.126,-1.1335,-1.2003,-1.2305,-1.2305,-1.2305,0.0,-1.2305,-1.2305,-1.2305,-1.2305,-1.2305,-1.2305,-1.2305,-1.2305,-1.2305,-1.2305,-1.2224,-1.215,-1.1929,-1.1781,-1.1706,-1.1632,0.0,0.0,0.0,0.0,0.0,0.0,0.0,-0.3282,-0.3493,-0.3199,-0.2991,-0.2629,-0.1843,-0.1958,-0.2183,-0.2348,-0.3119,-0.3945,-0.4862,-0.5317,-0.543,-0.5023,-0.5034,-0.5081,-0.5087,-0.5024,-0.4894,-0.4831,-0.4761,-0.4694,-0.4625,-0.4495,-0.4364,-0.43,-0.43,-0.43,-0.43,-0.43,-0.43,-0.43,-0.43,-0.43,-0.43,-0.43,-0.43,-0.43,-0.43,-0.43,-0.4367,-0.4628,-0.4694,-0.4761,-0.503,-0.5686,-0.6539,0.0,0.0,0.0,0.0,0.0,0.0,0.0,0.0,0.0,0.0,0.0,0.0,0.0,0.0,-0.9484,-0.9484,0.0,-0.9676,-0.9676,-0.9898,-1.0134,-1.0134,-1.0357,-1.0429,-1.0095,-1.0363,-1.0526,-1.0526,-1.0641,-1.0846,-1.1199,-1.0906,-1.0745,-1.0807,-1.0881,-1.0801,-1.0501,-1.1254,-1.1706,-1.1706,-1.2302,-1.2525,-1.2525,-1.2679,-1.2759,-1.2759,-1.2759,-1.2759,-1.2759,-1.2759,-1.2759,-1.2746,-1.303,-1.311,-1.3177,-1.2942,-1.2586,-1.215,-1.2003,-1.1855,-1.1706,0.0,0.0,0.0,0.0,0.0,0.0,0.0,-0.3524,-0.3827,-0.366,-0.3466,-0.335,-0.3287,-0.3231,-0.3453,-0.4058,-0.4276,-0.4582,-0.5069,-0.522,-0.5168,-0.4925,-0.5071,-0.5156,-0.5156,-0.5027,-0.4897,-0.4897,-0.4894,-0.4761,-0.4628,-0.4625,-0.4495,-0.4367,-0.4367,-0.4367,-0.4367,-0.4367,-0.4367,-0.43,-0.4431,-0.4431,-0.4498,-0.4567,-0.45,-0.43,-0.4567,-0.4564,-0.4564,-0.509,-0.5289,-0.5355,-0.5756,-0.635,-0.7068,-0.7577,-0.8166,0.0,0.0,0.0,0.0,0.0,0.0,0.0,0.0,0.0,-0.9484,-0.9484,-0.952,-0.9556,-0.9556,-0.9772,-0.9946,-0.9946,-1.0167,-1.0405,-1.0405,-1.0635,-1.0719,-1.0508,-1.0671,-1.0797,-1.0797,-1.0991,-1.126,-1.1409,-1.1632,-1.1558,-1.1111,-1.1855,-1.2003,-1.1335,-1.2055,-1.2385,-1.2385,-1.2685,-1.2916,-1.2916,-1.3093,-1.3213,-1.3213,-1.3206,-1.3206,-1.3213,-1.3365,-1.3437,-1.3495,-1.4066,-1.4336,-1.4404,-1.3903,-1.3283,-1.2689,-1.2412,-1.2168,-1.1951,0.0,0.0,0.0,0.0,0.0,0.0,0.0,0.0,-0.4554,-0.3932,-0.4132,-0.4236,-0.395,-0.421,-0.4801,-0.5837,-0.516,-0.4956,-0.5664,-0.5232,-0.4935,-0.4918,-0.5203,-0.5362,-0.5362,-0.5362,-0.5362,-0.5362,-0.5156,-0.4957,-0.4764,-0.4628,-0.4558,-0.4561,-0.4561,-0.4561,-0.4561,-0.4561,-0.4431,-0.4367,-0.4824,-0.502,-0.509,-0.5557,-0.516,-0.4434,-0.5362,-0.5422,-0.509,-0.5624,-0.5822,-0.5822,-0.5888,-0.5954,-0.6284,-0.7381,-0.7772,-0.8102,-0.9221,-0.9484,-0.9484,-0.9484,-0.9484,-0.9484,0.0,0.0,-0.9484,-0.9484,-0.967,-0.9832,-0.9832,-1.0042,-1.0284,-1.0284,-1.0508,-1.0677,-1.0677,-1.09,-1.1057,-1.1027,-1.1051,-1.1069,-1.1069,-1.1242,-1.1484,-1.1632,-1.1855,-1.2003,-1.2157,-1.2224,-1.2224,-1.215,-1.2559,-1.2775,-1.2775,-1.3006,-1.316,-1.316,-1.3193,-1.3213,-1.3213,-1.3351,-1.3351,-1.3206,-1.4052,-1.4358,-1.4435,-1.5234,-1.5594,-1.5518,-1.4719,-1.4326,-1.4142,-1.2882,-1.256,-1.2656,0.0,0.0,0.0,0.0,0.0,0.0,0.0,0.0,0.0,-0.5156,-0.5081,-0.5066,-0.5378,-0.6018,-0.6499,-0.6832,-0.5968,-0.5542,-0.5773,-0.5619,-0.5336,-0.4918,-0.5581,-0.5818,-0.5428,-0.5428,-0.5428,-0.5428,-0.5292,-0.5156,-0.4957,-0.4891,-0.4758,-0.4625,-0.4694,-0.4694,-0.4625,-0.4694,-0.4891,-0.5286,-0.5481,-0.5807,-0.6207,-0.6732,-0.647,-0.5877,-0.6075,-0.6075,0.0,-0.6478,-0.6679,-0.6741,-0.7003,-0.7134,-0.733,-0.8166,-0.8431,-0.8624,-0.9285,-0.9484,-0.9484,-0.9484,-0.9484,-0.9484,-0.9484,-0.9484,-0.9526,-0.9676,-0.9796,-0.9916,-1.0071,-1.0381,-1.0556,-1.0556,-1.0773,-1.0948,-1.0948,-1.1045,-1.1111,-1.1111,-1.1186,-1.126,-1.126,-1.1484,-1.1632,-1.1855,-1.1929,-1.2077,-1.2298,-1.2305,-1.2378,-1.2552,-1.2755,-1.2909,-1.3013,-1.3313,-1.346,-1.3467,-1.3634,-1.3796,-1.3865,-1.4022,-1.4342,-1.483,-1.5227,-1.5942,-1.6872,-1.6899,-1.6961,-1.6936,-1.6198,-1.5358,-1.4343,-1.3301,-1.287,-1.2955,0.0,0.0,0.0,0.0,0.0,0.0,0.0,0.0,0.0,0.0,-0.5719,-0.5891,-0.674,-0.7498,-0.7931,-0.7871,-0.7058,-0.647,-0.6312,-0.6307,-0.5992,-0.5457,-0.6022,-0.6207,-0.5686,-0.5686,-0.5557,-0.5428,-0.5557,-0.5488,-0.5087,-0.5087,-0.4957,-0.4758,-0.4827,-0.4827,-0.4758,-0.5024,-0.5418,-0.5935,-0.6264,-0.6658,-0.7186,-0.7712,-0.7777,-0.7512,-0.712,-0.6859,-0.6859,-0.7396,-0.7531,-0.7596,-0.7987,-0.8117,-0.8247,-0.8823,-0.9145,-0.9408,-0.967,-0.9798,-0.9919,-0.9919,-0.9919,-0.9919,-0.9919,-0.9854,-0.99,-1.0296,-1.0257,-1.0212,-1.0608,-1.0724,-1.0828,-1.0828,-1.0985,-1.1111,-1.1111,-1.1186,-1.1186,-1.1186,-1.1409,-1.1558,-1.1558,-1.1706,-1.1855,-1.2003,-1.2077,-1.215,-1.2298,-1.2305,-1.2438,-1.2808,-1.2903,-1.3097,-1.34,-1.3696,-1.3843,-1.3926,-1.4142,-1.4328,-1.4482,-1.4727,-1.5304,-1.6124,-1.6527,-1.7423,-1.8621,-1.8337,-1.83,-1.8273,-1.7535,-1.6497,-1.5324,-1.4468,-1.3707,-1.3253,0.0,0.0,0.0,0.0,0.0,0.0,0.0,0.0,0.0,0.0,0.0,0.0,0.0,-0.8302,-0.8784,-0.9309,-0.8402,-0.7765,-0.767,-0.7224,-0.6883,-0.6768,-0.6527,-0.6396,-0.64,-0.64,-0.6075,-0.5428,-0.6075,-0.5939,-0.5087,-0.5087,-0.5087,-0.5087,-0.5087,-0.5087,-0.5153,-0.5811,-0.6009,-0.6001,-0.7181,-0.7642,-0.7707,-0.8247,-0.8765,-0.9145,-0.8641,-0.8112,-0.7772,-0.8312,-0.8452,-0.8452,-0.8447,-0.8511,-0.8576,-0.8894,-0.96,-1.0238,-1.0238,-1.0618,-1.0926,-1.0926,-1.0926,-1.0926,-1.0926,-1.0833,-1.085,-1.1455,-1.1099,-1.0844,-1.1423,-1.129,-1.1099,-1.1099,-1.1105,-1.1111,-1.1111,-1.126,-1.1409,-1.1409,-1.1706,-1.2003,-1.2003,-1.2003,-1.2003,-1.2003,-1.215,-1.2298,-1.2305,-1.2305,-1.2438,-1.2808,-1.3039,-1.3413,-1.3933,-1.4234,-1.4468,-1.4636,-1.465,-1.465,-1.4734,-1.5553,-1.6131,-1.6476,-1.7917,-1.8559,-1.8638,-1.9292,-1.9539,-1.946,-1.8381,-1.7963,-1.7802,-1.6911,-1.5323,-1.3749,0.0,0.0,0.0,0.0,0.0,0.0,0.0,0.0,0.0,0.0,0.0,0.0,0.0,0.0,0.0,0.0,-0.8659,-0.8072,-0.7824,-0.7706,-0.738,-0.6933,-0.734,-0.7369,-0.7055,-0.706,-0.6929,-0.6736,-0.6929,-0.6924,-0.6597,-0.6203,-0.6133,-0.6461,-0.6137,-0.5877,-0.5815,-0.6601,-0.6929,-0.699,-0.7902,-0.849,-0.8888,-0.9092,-0.9478,-0.9919,0.0,-0.9646,-0.9564,-0.9761,-0.9831,-0.9831,-0.9831,-0.9831,-0.9894,-1.0218,-1.0541,-1.0737,-1.0737,-1.0863,-1.0982,-1.0982,-1.0982,-1.0982,-1.0982,-1.1162,-1.1379,-1.1787,-1.1527,-1.1422,-1.1827,-1.1421,-1.1111,-1.1111,-1.1111,-1.1111,-1.1111,-1.126,-1.1409,-1.1409,-1.1781,-1.2003,-1.2003,-1.215,-1.2224,-1.2224,-1.2224,-1.2305,-1.2305,-1.2492,-1.2808,-1.326,-1.3566,-1.3954,-1.4497,-1.4518,-1.465,-1.4734,-1.4908,-1.5242,-1.5816,-1.6288,-1.7107,-1.8336,-1.8816,-1.9362,-1.9923,-2.0029,-1.9951,-1.9784,-1.9231,-1.8656,-1.7997,-1.7674,-1.6382,-1.5,0.0,0.0,0.0,0.0,0.0,0.0,0.0,0.0,0.0,0.0,0.0,0.0,0.0,0.0,0.0,0.0,0.0,-0.8659,-0.8659,-0.8452,-0.8273,-0.8164,-0.8419,-0.8544,-0.8334,-0.8592,-0.8586,-0.8318,-0.827,-0.8086,-0.7827,-0.6854,-0.6724,-0.7251,-0.6404,-0.6075,-0.6272,-0.706,-0.7386,-0.7517,-0.8495,-0.9087,-0.9548,-0.9734,-1.011,0.0,-1.0744,-1.0982,-1.1219,-1.078,-1.0654,-1.0654,-1.0654,-1.0654,-1.0717,-1.0919,-1.1115,-1.1303,-1.1303,-1.1428,-1.1553,-1.1553,-1.1553,-1.1553,-1.1553,-1.1768,-1.2071,-1.2475,-1.2158,-1.186,-1.2265,-1.1632,-1.1111,-1.1111,-1.1111,-1.1111,-1.1186,-1.1409,-1.1558,-1.1632,-1.1929,-1.2077,-1.2077,-1.2231,-1.2305,-1.2305,-1.2305,-1.2305,-1.2305,-1.2585,-1.3033,-1.3488,-1.3796,-1.4262,-1.4824,-1.4824,-1.4908,-1.4908,-1.5082,-1.5658,-1.655,-1.6944,-1.7917,-1.9301,-1.9618,-2.0089,-2.0566,-2.0411,-2.0186,-2.0029,-1.9715,-1.9152,-1.8567,-1.8487,-1.7342,-1.6049,0.0,0.0,0.0,0.0,0.0,0.0,0.0,0.0,0.0,0.0,0.0,0.0,0.0,0.0,0.0,0.0,0.0,0.0,-0.9961,-0.9531,-0.9562,-1.0186,-0.9821,-0.9733,-1.0084,-1.0725,-1.0705,-1.0045,-0.9901,-0.9476,-0.8832,-0.7363,-0.6985,-0.7577,-0.6276,-0.6009,-0.6658,-0.7316,-0.7582,-0.7647,-0.9022,-0.9606,-0.967,-1.0174,-1.0618,-1.1108,-1.1615,-1.212,-1.2436,-1.1428,-1.1108,-1.1108,-1.1108,-1.1108,-1.1108,-1.1108,-1.1428,-1.1864,-1.1864,-1.2182,-1.2621,-1.2621,-1.2621,-1.2629,-1.2645,-1.2721,-1.2923,-1.3475,-1.2812,-1.2231,0.0,0.0,-1.1111,-1.1111,-1.1111,-1.1186,-1.1409,-1.1558,-1.1781,0.0,0.0,0.0,0.0,0.0,-1.2305,-1.2305,-1.2305,-1.2311,-1.2325,-1.2605,-1.306,-1.3509,-1.3897,-1.4365,-1.509,-1.509,-1.5257,-1.5506,-1.5506,-1.5989,-1.6862,-1.7674,-1.8567,-1.9381,-2.0245,-2.0566,-2.0566,-2.042,-2.0342,-2.0264,-1.9794,-1.9636,-1.9566,-1.939,-1.8238,-1.6862,0.0,0.0,0.0,0.0,0.0,0.0,0.0,0.0,0.0,0.0,0.0,0.0,0.0,0.0,0.0,0.0,0.0,0.0,-1.0115,-0.9941,-1.0083,-1.0771,-1.0872,-1.1025,-1.1353,-1.1844,-1.1981,-1.1673,-1.1626,-1.1439,-1.1121,-1.0223,-1.016,-1.0808,-0.9654,-0.9273,-0.9464,-0.9875,-0.9818,-0.9418,-1.0281,-1.0787,-1.0961,-1.0856,-1.1303,-1.1926,-1.1864,-1.212,-1.2567,-1.2305,0.0,0.0,0.0,-1.2182,-1.2182,-1.2182,-1.2313,-1.2375,-1.2375,-1.2498,-1.2621,-1.2621,-1.2621,-1.2693,-1.2901,-1.3152,-1.3455,-1.3918,-1.3263,-1.2746,0.0,0.0,0.0,-1.1186,-1.1632,0.0,-1.1484,-1.1706,0.0,-1.2003,0.0,-1.2305,-1.2305,-1.2305,0.0,-1.2305,-1.2305,-1.2398,-1.2694,-1.2926,-1.3378,-1.4072,-1.4378,-1.4747,-1.534,-1.5347,-1.5665,-1.6378,-1.6378,-1.7188,-1.8647,-1.8895,-1.945,-2.0245,-2.0489,-2.0566,-2.0566,-2.0566,-2.042,-2.0264,-1.9951,-1.9715,-1.9566,-1.939,-1.8647,-1.7755,0.0,0.0,0.0,0.0,0.0,0.0,0.0,0.0,0.0,0.0,0.0,0.0,0.0,0.0,0.0,0.0,0.0,0.0,0.0,-1.0525,-1.078,-1.1562,-1.1718,-1.2014,-1.2472,-1.2991,-1.3373,-1.3494,-1.3114,-1.281,-1.2618,-1.1596,-1.1418,-1.1943,-1.0781,-1.0405,-1.0732,-1.0947,-1.0696,0.0,0.0,-1.1461,-1.1516,-1.1717,-1.2097,-1.2474,-1.2359,-1.2428,0.0,0.0,0.0,-1.2621,-1.2621,-1.2621,-1.2621,-1.2621,0.0,-1.2621,-1.2621,-1.2621,-1.2621,-1.2621,-1.2621,-1.2717,-1.3012,-1.3346,-1.3688,-1.4037,-1.3678,-1.3185,-1.2973,-1.2739,-1.2439,0.0,0.0,0.0,-1.2285,-1.2365,-1.2439,0.0,-1.2224,0.0,-1.2305,-1.2305,-1.2305,-1.2305,-1.2425,-1.2565,-1.2815,-1.3317,-1.3789,-1.4279,-1.4662,-1.4999,-1.5431,-1.5431,-1.5824,-1.6698,-1.6698,-1.7594,-1.9301,-1.9301,-1.9775,-2.0566,-2.0566,-2.0566,-2.0566,-2.0566,-2.0566,-2.042,-2.0186,-1.9942,-1.9715,-1.9469,-1.8816,-1.8158,0.0,0.0,0.0,0.0,0.0,0.0,0.0,0.0,0.0,0.0,0.0,0.0,0.0,0.0,0.0,0.0,0.0,0.0,0.0,0.0,-1.1531,-1.2407,-1.2522,-1.2815,-1.3438,-1.4204,-1.4687,-1.4953,-1.4296,-1.3897,-1.3648,-1.2318,-1.1905,-1.2258,-1.1009,-1.0816,-1.1425,-1.1356,-1.1169,-1.0989,-1.1881,-1.2074,-1.1888,0.0,-1.2895,-1.2956,-1.2972,-1.2867,0.0,0.0,-1.2621,-1.2621,-1.2621,-1.2621,-1.2621,-1.2621,-1.2621,-1.2621,-1.2621,-1.2621,-1.2621,-1.2621,-1.2621,-1.2733,-1.3068,-1.3378,-1.3696,-1.4101,-1.3993,-1.3615,-1.3112,-1.3251,-1.3244,-1.2792,0.0,-1.3803,-1.3375,-1.3382,-1.3164,-1.2659,-1.2519,-1.2445,-1.2445,-1.2372,-1.2318,-1.2358,-1.2639,-1.2882,-1.2882,-1.3566,-1.413,-1.443,-1.4864,-1.5257,-1.559,-1.559,-1.6064,-1.7025,-1.7025,-1.7917,-1.946,-1.946,-1.9854,-2.0566,-2.0566,-2.0566,-2.0566,-2.0566,-2.0566,-2.0566,-2.0342,-2.0108,-1.9863,-1.9636,-1.8984,-1.8238,0.0,0.0,0.0,0.0,0.0,0.0,0.0,0.0,0.0,0.0,-0.9494,-1.0286,0.0,0.0,0.0,0.0,0.0,0.0,0.0,0.0,0.0,-1.3339,-1.3681,-1.3942,-1.4042,-1.5341,-1.5615,-1.4667,-1.5349,-1.5284,-1.446,-1.4204,-1.4094,-1.407,-1.3494,-1.3364,-1.3442,-1.3191,-1.3,-1.3,-1.3191,-1.3381,-1.3571,-1.345,0.0,0.0,-1.3164,0.0,0.0,-1.2683,-1.2621,-1.2621,-1.2621,-1.2621,-1.2621,-1.2621,-1.2621,-1.2621,-1.2621,-1.2621,-1.2621,-1.2621,-1.2621,-1.2789,-1.3354,-1.3545,0.0,0.0,-1.4155,-1.376,-1.3688,-1.3251,-1.3105,-1.331,-1.36,-1.381,-1.4091,-1.4243,-1.4314,0.0,-1.3673,-1.3317,-1.3317,-1.2666,0.0,-1.2728,-1.2953,-1.3126,-1.3126,-1.3688,-1.4316,-1.4913,-1.5228,-1.5748,-1.646,-1.646,-1.7269,-1.8816,-1.8816,-1.9371,-2.0401,-2.0401,-2.0489,-2.0566,-2.0566,-2.0566,-2.0566,-2.0566,-2.0566,-2.0566,-2.0342,-2.0108,-1.9863,-1.9636,-1.939,-1.9134,0.0,0.0,0.0,0.0,0.0,0.0,0.0,-0.6943,-0.763,-0.8511,-0.9629,-1.0294,-1.022,-1.0311,-1.0532,0.0,0.0,0.0,0.0,0.0,0.0,0.0,-1.3769,-1.4143,-1.463,-1.5318,-1.5636,-1.5529,0.0,-1.5812,-1.5921,-1.5584,-1.5294,-1.5059,-1.4874,-1.4647,-1.4258,-1.407,-1.3941,-1.3761,-1.395,-1.401,-1.401,0.0,0.0,0.0,0.0,0.0,0.0,0.0,-1.2805,-1.2805,-1.2621,-1.2621,-1.2621,-1.2621,-1.2797,-1.2981,-1.2683,-1.2858,-1.2972,-1.2683,-1.2621,-1.2805,-1.3425,0.0,0.0,0.0,-1.4425,-1.4129,-1.3833,-1.4114,0.0,-1.397,-1.476,-1.5259,-1.4824,-1.5037,0.0,-1.4673,-1.4314,-1.4106,0.0,-1.3745,-1.366,-1.3998,-1.433,-1.4209,-1.3661,-1.4674,-1.5643,-1.6542,-1.6714,-1.6952,-1.735,-1.735,-1.7997,-1.9301,-1.9301,-1.9775,-2.0566,-2.0566,-2.0566,-2.0566,-2.0566,-2.0566,-2.0566,-2.0566,-2.0566,-2.0566,-2.0489,-2.0333,-2.0108,-2.0029,-1.9715,-1.9478,0.0,0.0,0.0,0.0,0.0,0.0,0.0,-0.7154,-0.787,-0.8773,-0.9521,-1.0003,-1.0089,-1.025,-1.0595,0.0,0.0,0.0,0.0,0.0,0.0,0.0,0.0,0.0,0.0,0.0,0.0,-1.6081,-1.5967,0.0,0.0,0.0,0.0,0.0,-1.5661,-1.5274,-1.4734,-1.4565,-1.4327,0.0,0.0,-1.4327,0.0,0.0,0.0,0.0,0.0,0.0,0.0,0.0,-1.3164,-1.2981,-1.2981,-1.2805,-1.2629,-1.2736,-1.3155,-1.345,-1.3094,-1.3277,-1.339,-1.292,-1.2683,-1.2789,-1.3338,-1.3537,0.0,-1.4395,-1.4514,-1.4497,-1.4194,0.0,-1.5338,0.0,-1.5762,-1.6333,-1.563,0.0,-1.5833,0.0,-1.4966,0.0,-1.4895,-1.4673,-1.4792,-1.5303,-1.5726,-1.5614,-1.4756,-1.5986,-1.7115,-1.7997,-1.7997,-1.8078,-1.8238,-1.8238,-1.8727,-1.9618,-1.9618,-1.9932,-2.0566,-2.0566,-2.0566,-2.0566,-2.0566,-2.0566,-2.0566,-2.0566,-2.0566,-2.0566,-2.0566,-2.0489,-2.0264,-2.0264,-2.0029,-1.9566,0.0,0.0,0.0,0.0,0.0,0.0,0.0,-0.7391,-0.807,-0.8414,-0.8847,-0.9386,-1.0034,-1.0895,-1.149,0.0,0.0,0.0,0.0,0.0,0.0,0.0,0.0,0.0,0.0,0.0,0.0,-1.5154,-1.6479,0.0,0.0,0.0,0.0,0.0,0.0,-1.5555,-1.5449,-1.4784,0.0,0.0,0.0,0.0,0.0,0.0,0.0,0.0,0.0,0.0,0.0,0.0,0.0,-1.3103,-1.3855,-1.339,-1.2683,-1.3277,0.0,0.0,-1.4172,-1.3932,-1.3511,-1.345,-1.3033,-1.2725,-1.3044,0.0,-1.3696,-1.4077,-1.4418,-1.4713,-1.4991,-1.4697,-1.484,-1.5912,-1.5833,-1.5895,-1.6621,0.0,0.0,-1.6691,0.0,0.0,-1.5692,-1.5037,-1.4887,-1.5578,-1.6626,-1.709,-1.696,-1.7398,-1.7747,-1.7997,-1.7997,-1.8399,-1.9143,-1.9143,-1.9618,-2.0479,-2.0479,-2.0489,-2.0566,-2.0566,-2.0566,-2.0566,-2.0566,-2.0566,-2.0566,-2.0566,-2.0566,-2.0566,-2.0566,-2.0489,-2.0264,-2.0264,-2.0029,-1.9566,0.0,0.0,0.0,0.0,0.0,0.0,-0.652,-0.7189,-0.7863,-0.8553,-0.9039,-0.9511,-0.9987,-1.0813,-1.1499,-1.203,0.0,0.0,0.0,0.0,0.0,0.0,0.0,0.0,0.0,0.0,-1.6077,-1.5949,-1.6196,0.0,0.0,0.0,0.0,0.0,0.0,-1.5911,-1.505,-1.4715,0.0,0.0,0.0,0.0,0.0,0.0,0.0,0.0,0.0,0.0,0.0,0.0,0.0,0.0,-1.4154,-1.3914,0.0,0.0,-1.4231,-1.4638,-1.4529,-1.4588,-1.446,-1.3683,-1.3329,-1.3133,-1.3132,0.0,-1.3688,-1.4037,-1.4395,-1.4713,-1.5133,-1.5196,-1.5409,-1.5912,-1.5833,-1.5903,-1.6482,-1.6342,0.0,-1.6839,-1.6621,0.0,0.0,0.0,-1.6295,-1.7076,-1.8213,-1.8886,-1.8886,-1.8727,-1.8966,-1.952,-1.952,-1.9766,-2.0089,-2.0089,-2.0245,-2.0566,-2.0566,-2.0566,-2.0566,-2.0566,-2.0566,-2.0566,-2.0566,-2.0566,-2.0566,-2.0566,-2.0566,-2.0566,-2.0566,-2.0566,-2.0489,-2.0489,-2.0177,-1.9794,0.0,0.0,0.0,0.0,0.0,-0.5996,-0.6435,-0.7112,-0.7821,-0.8553,-0.9039,-0.9487,-0.9813,-1.0387,-1.1118,-1.1955,-1.1796,0.0,0.0,0.0,0.0,0.0,0.0,0.0,0.0,0.0,-1.5972,-1.6344,-1.6115,-1.6373,0.0,0.0,-1.7146,-1.681,0.0,0.0,0.0,0.0,0.0,0.0,0.0,0.0,0.0,0.0,0.0,0.0,0.0,0.0,0.0,0.0,0.0,0.0,0.0,0.0,0.0,0.0,-1.4706,-1.5235,-1.5128,-1.5235,-1.5167,-1.4282,-1.3923,-1.3701,0.0,0.0,-1.3793,-1.3946,-1.4236,-1.4656,-1.5251,-1.5621,-1.5833,-1.6123,-1.6123,-1.6123,-1.6132,-1.6123,0.0,0.0,0.0,-1.6908,-1.6908,-1.7128,-1.7504,-1.8082,-1.9247,-1.9863,-1.9863,-1.9775,-1.9932,-2.0566,-2.0566,-2.0566,-2.0566,-2.0566,-2.0566,-2.0566,-2.0566,-2.0566,-2.0566,-2.0566,-2.0566,-2.0566,-2.0566,-2.0566,-2.0566,-2.0566,-2.0566,-2.0566,-2.0566,-2.0566,-2.0566,-2.0566,-2.0255,-1.9863,0.0,0.0,0.0,0.0,0.0,0.0,-0.6477,-0.7356,-0.8028,-0.8175,-0.8659,-0.9136,-0.9478,-0.9813,-1.031,-1.1063,-1.1773,0.0,0.0,0.0,0.0,0.0,0.0,0.0,0.0,0.0,-1.5792,-1.5804,-1.632,-1.6584,-1.6596,-1.7171,-1.77,-1.8154,0.0,0.0,0.0,0.0,0.0,0.0,0.0,0.0,0.0,0.0,0.0,0.0,0.0,0.0,0.0,0.0,0.0,0.0,0.0,0.0,0.0,0.0,-1.4893,-1.5128,-1.6134,-1.5894,-1.541,-1.5352,-1.4942,-1.4291,0.0,-1.3749,-1.3933,-1.3645,-1.387,-1.4429,-1.5624,-1.5833,-1.6044,-1.676,-1.6908,-1.6621,-1.5903,-1.6403,0.0,0.0,0.0,-1.6908,-1.6908,-1.7633,-1.8109,-1.8128,-1.9247,-1.9863,-1.9863,-2.0333,-2.0566,-2.0566,-2.0566,-2.0566,-2.0566,-2.0566,-2.0566,-2.0566,-2.0566,-2.0566,-2.0566,-2.0566,-2.0566,-2.0566,-2.0566,-2.0566,-2.0566,-2.0566,-2.0566,-2.0566,-2.0566,-2.0566,-2.0566,-2.0342,-2.0098,-1.9863,0.0,0.0,0.0,0.0,0.0,0.0,0.0,-0.6725,-0.7238,-0.7919,-0.848,-0.8926,-0.9248,-0.9646,-1.0048,-1.0508,-1.1312,0.0,0.0,0.0,0.0,0.0,0.0,0.0,0.0,0.0,-1.5468,-1.5792,-1.596,-1.6044,-1.6056,-1.6584,-1.6907,-1.7055,-1.6875,-1.6547,0.0,0.0,0.0,0.0,0.0,0.0,0.0,0.0,0.0,0.0,0.0,0.0,0.0,0.0,0.0,0.0,0.0,0.0,0.0,-1.5826,-1.5642,0.0,-1.6259,-1.6259,-1.5951,-1.5526,-1.5235,-1.4824,-1.3743,-1.374,-1.3857,-1.3348,-1.3711,-1.4279,-1.4947,-1.5452,-1.5982,-1.6412,-1.6263,-1.6263,0.0,0.0,0.0,-1.6542,-1.676,-1.6908,-1.6908,-1.7385,-1.7816,-1.81,-1.8833,-1.9484,-1.9854,-2.0177,-2.0489,-2.0566,-2.0566,-2.0566,-2.0566,-2.0566,-2.0566,-2.0566,-2.0566,-2.0566,-2.0566,-2.0566,-2.0566,-2.0566,-2.0566,-2.0566,-2.0566,-2.0566,-2.0566,-2.0566,-2.0566,-2.0566,-2.0566,-2.0342,-2.0098,-1.9863,0.0,0.0,0.0,0.0,0.0,0.0,0.0,-0.6465,-0.6979,-0.7572,-0.8267,-0.8765,-0.8926,-0.943,-0.9785,-0.9804,-1.0719,0.0,0.0,0.0,0.0,0.0,0.0,0.0,-1.4627,-1.4869,-1.5244,-1.5799,-1.5828,-1.5792,-1.5804,-1.6128,-1.6361,-1.6532,-1.6689,-1.6545,0.0,0.0,0.0,0.0,0.0,0.0,-1.692,0.0,0.0,0.0,0.0,0.0,0.0,0.0,0.0,0.0,0.0,0.0,0.0,0.0,-1.6218,-1.6056,0.0,-1.6431,-1.6316,-1.5941,-1.5826,0.0,-1.446,-1.4178,-1.4029,-1.3553,-1.3719,-1.4086,-1.4627,-1.5297,-1.5912,-1.6272,-1.6272,-1.6263,0.0,0.0,0.0,-1.6839,0.0,0.0,-1.6908,-1.7266,-1.7605,-1.7862,-1.862,-1.9277,-1.9618,-2.0168,-2.0498,-2.0566,-2.0566,-2.0566,-2.0566,-2.0566,-2.0566,-2.0566,-2.0566,-2.0566,-2.0644,-2.0944,-2.0867,-2.0644,-2.0944,-2.0867,0.0,-2.0566,-2.0566,-2.0566,-2.0566,-2.0566,-2.0566,-2.0264,-2.002,-1.9863,0.0,0.0,0.0,0.0,0.0,0.0,0.0,-0.6501,-0.7098,-0.714,-0.7972,-0.8553,-0.8439,-0.9191,-0.9509,-0.9056,0.0,0.0,0.0,0.0,0.0,0.0,0.0,0.0,-1.3884,-1.4468,-1.5074,-1.5806,-1.5787,-1.5792,-1.5792,-1.5792,-1.6068,-1.6525,-1.6483,-1.6537,-1.6578,-1.5701,-1.5802,-1.6595,-1.6087,-1.6458,0.0,0.0,0.0,0.0,0.0,0.0,0.0,0.0,0.0,0.0,0.0,0.0,0.0,0.0,0.0,0.0,0.0,-1.6534,-1.6431,0.0,0.0,0.0,-1.5536,-1.4942,0.0,-1.4027,-1.3753,-1.379,-1.4476,-1.5263,-1.5877,-1.6202,-1.6621,-1.6691,0.0,-1.6482,0.0,0.0,-1.6908,-1.6908,-1.6908,-1.7238,-1.7468,-1.7495,-1.8573,-1.9269,-1.9402,-2.0149,-2.0605,-2.0712,-2.0722,-2.0644,-2.0566,-2.0566,-2.0644,-2.0722,-2.0722,-2.0712,-2.0789,-2.1538,-2.1461,-2.0789,-2.1461,-2.1385,-2.0644,-2.0644,-2.0566,-2.0566,-2.0566,-2.0566,-2.0566,-2.0098,-1.9942,-1.9863,0.0,0.0,0.0,0.0,0.0,0.0,0.0,0.0,0.0,0.0,-0.7014,-0.7516,-0.7848,-0.839,-0.8805,0.0,0.0,0.0,0.0,0.0,0.0,0.0,0.0,0.0,-1.3894,-1.4029,-1.4674,-1.5806,-1.5787,-1.5792,-1.5792,-1.5792,-1.5861,-1.5986,-1.5971,-1.6412,-1.7098,-1.6531,-1.6599,-1.7145,-1.698,-1.7113,0.0,0.0,0.0,0.0,-1.7155,-1.7211,0.0,0.0,0.0,0.0,0.0,0.0,0.0,0.0,-1.6899,-1.6786,-1.6899,0.0,-1.6524,-1.6488,-1.6477,-1.6343,0.0,-1.4942,-1.4318,-1.3744,0.0,-1.3371,-1.3773,-1.468,-1.5515,-1.586,-1.6482,-1.6839,-1.6691,0.0,0.0,-1.6908,-1.6908,-1.6908,-1.6908,-1.6991,-1.7165,-1.7477,-1.7905,-1.8791,-2.0163,-2.0591,-2.0954,-2.1527,-2.1538,-2.1242,-2.0644,-2.0566,-2.0944,-2.1538,-2.1538,-2.1832,-2.2435,-2.266,-2.2585,-2.2435,-2.1983,-2.169,-2.1461,-2.0867,-2.0566,-2.0566,-2.0566,-2.0566,-2.0566,-2.0264,-2.0186,-2.0108,0.0,0.0,0.0,0.0,0.0,0.0,0.0,0.0,0.0,0.0,0.0,0.0,0.0,0.0,0.0,0.0,0.0,0.0,0.0,0.0,0.0,0.0,0.0,-1.3085,-1.3433,-1.3433,-1.4212,-1.5787,-1.5804,-1.582,-1.5792,-1.5792,-1.5799,-1.5796,-1.5542,-1.5992,-1.6818,-1.6895,-1.6928,-1.6965,-1.6961,0.0,0.0,0.0,0.0,0.0,-1.7278,-1.7278,0.0,-1.7278,-1.7278,-1.7278,0.0,0.0,0.0,0.0,-1.7078,-1.7011,-1.7011,-1.6853,-1.6694,-1.6591,-1.6581,-1.6457,-1.5951,0.0,0.0,0.0,0.0,-1.3324,-1.3983,-1.4949,-1.5881,-1.6531,-1.7226,0.0,0.0,0.0,-1.6908,-1.6908,-1.7107,-1.7235,-1.7235,-1.751,-1.7596,-1.7614,-1.8296,-1.9092,-1.9857,-2.0648,-2.1334,-2.1946,-2.1967,-2.1549,-2.0644,-2.0944,-2.1395,-2.1832,-2.2134,-2.2585,-2.3032,-2.3316,-2.3316,-2.2957,-2.251,-2.2134,-2.1766,-2.0944,-2.0789,-2.1165,-2.1165,-2.1165,-2.1165,-2.0934,-2.0566,-2.0108,0.0,0.0,0.0,0.0,0.0,0.0,0.0,0.0,0.0,0.0,0.0,0.0,0.0,0.0,0.0,0.0,0.0,0.0,0.0,0.0,0.0,0.0,-1.2471,-1.2774,-1.2881,-1.2907,-1.369,-1.5348,-1.567,-1.579,-1.5792,-1.5792,-1.5816,-1.5787,-1.5462,-1.5581,-1.6073,-1.6815,-1.6915,-1.6595,-1.6634,0.0,0.0,0.0,0.0,0.0,0.0,0.0,0.0,-1.7278,-1.7278,-1.7278,-1.7278,0.0,0.0,0.0,0.0,0.0,-1.7067,-1.6909,-1.6807,-1.6751,-1.6694,-1.6581,-1.6431,0.0,0.0,0.0,0.0,0.0,0.0,-1.5384,0.0,0.0,0.0,0.0,-1.791,-1.7442,-1.7176,-1.7176,-1.7579,-1.7842,-1.7842,-1.824,-1.8307,-1.7842,-1.9046,-1.9692,-1.942,-2.0695,-2.1706,-2.2259,-2.2281,-2.1775,-2.0834,-2.1573,-2.2059,-2.2134,-2.2872,-2.3243,-2.339,-2.3975,-2.3975,-2.3316,-2.3243,-2.2798,-2.2059,-2.1308,-2.1395,-2.1983,-2.1983,-2.1907,-2.1766,-2.1538,-2.0857,-1.9942,0.0,0.0,0.0,0.0,0.0,0.0,0.0,0.0,0.0,0.0,0.0,0.0,0.0,0.0,0.0,0.0,0.0,0.0,0.0,0.0,0.0,-1.1309,-1.1733,-1.2236,-1.2881,-1.2902,-1.3026,-1.3367,-1.4971,-1.5816,-1.5792,-1.5792,-1.5823,-1.5821,-1.6137,-1.5703,-1.4763,-1.5956,-1.6513,-1.6627,-1.7013,0.0,0.0,0.0,0.0,0.0,0.0,0.0,0.0,-1.7278,-1.7278,-1.7278,-1.7278,0.0,0.0,0.0,0.0,0.0,-1.7267,-1.7088,-1.6899,-1.6684,-1.6694,-1.6705,-1.6431,0.0,0.0,0.0,0.0,0.0,0.0,-1.4912,-1.5834,0.0,0.0,-1.8442,0.0,0.0,-1.824,-1.824,-1.8307,-1.8375,-1.8375,-1.8442,-1.8442,-1.8365,-1.9029,-1.9772,-2.0762,-2.1475,-2.2025,-2.2525,-2.2548,-2.2369,-2.1983,-2.2529,-2.3169,-2.3745,-2.3891,-2.4264,-2.4933,-2.5087,-2.5087,-2.4933,-2.4204,-2.3891,-2.3672,-2.2947,-2.2734,-2.2809,-2.2809,-2.2435,-2.1766,-2.1538,-2.0934,-2.0186,0.0,0.0,0.0,0.0,0.0,0.0,0.0,0.0,0.0,0.0,0.0,0.0,0.0,0.0,0.0,0.0,0.0,0.0,0.0,0.0,-1.019,-1.0753,-1.1436,-1.2144,-1.2881,-1.2898,-1.3135,-1.3669,-1.4545,-1.4994,-1.4994,-1.4994,-1.4584,-1.3835,-1.4473,-1.4673,-1.4566,-1.5806,-1.6446,-1.6637,0.0,0.0,0.0,0.0,0.0,0.0,0.0,0.0,0.0,0.0,-1.7278,-1.7278,-1.7278,0.0,0.0,0.0,0.0,0.0,-1.7145,-1.7078,-1.6955,-1.6751,-1.6751,-1.6761,-1.6648,-1.6056,0.0,0.0,0.0,0.0,0.0,0.0,-1.6562,-1.8109,0.0,-1.89,-1.89,-1.871,-1.8509,-1.8509,-1.8767,-1.89,-1.89,-1.9375,-1.9507,-1.9233,-2.0085,-2.0702,-2.098,-2.1672,-2.2315,-2.278,-2.2791,-2.2905,-2.3052,-2.3294,-2.3674,-2.412,-2.4564,-2.4933,-2.5312,-2.5312,-2.5312,-2.5241,-2.442,-2.4108,-2.4036,-2.3316,-2.3243,-2.361,-2.361,-2.301,-2.2113,-2.0924,-2.0255,-1.9872,0.0,0.0,0.0,0.0,0.0,0.0,0.0,0.0,0.0,0.0,0.0,0.0,0.0,0.0,0.0,0.0,0.0,0.0,0.0,0.0,-0.9769,-1.0293,-1.1091,-1.1972,-1.2871,-1.291,-1.3258,-1.3963,-1.3968,-1.3988,-1.3964,-1.41,-1.3414,-1.2234,-1.3077,-1.3799,-1.4397,-1.5719,-1.6401,-1.656,0.0,0.0,0.0,0.0,0.0,0.0,0.0,0.0,0.0,0.0,0.0,0.0,0.0,0.0,0.0,-1.7278,-1.7211,-1.7078,-1.7011,-1.7011,-1.6955,-1.6807,-1.6818,-1.6818,-1.6818,-1.6275,0.0,0.0,0.0,0.0,0.0,-1.6517,0.0,-1.9005,-1.9319,-1.938,-1.9497,-1.911,-1.8844,-1.8844,-1.9243,-1.9518,-1.9518,-2.0172,-2.0442,-2.0042,-2.1071,-2.1514,-2.1112,-2.1788,-2.2378,-2.2787,-2.2799,-2.3051,-2.358,-2.358,-2.3756,-2.406,-2.4778,-2.5119,-2.5131,-2.5252,-2.5312,-2.5241,-2.4636,-2.4409,-2.4337,-2.3756,-2.3902,-2.4337,-2.4276,-2.361,-2.2339,-2.0313,-1.9636,-1.9715,0.0,0.0,0.0,0.0,0.0,0.0,0.0,0.0,0.0,0.0,0.0,0.0,0.0,0.0,0.0,0.0,0.0,0.0,0.0,0.0,-0.9614,-1.002,-1.0493,-1.1451,-1.2889,-1.2899,-1.2924,-1.2982,-1.2983,-1.3006,-1.2996,-1.3465,-1.3236,-1.2512,-1.3571,-1.3814,-1.35,-1.5444,-1.6287,-1.6384,-1.7022,0.0,0.0,0.0,0.0,0.0,0.0,0.0,0.0,0.0,0.0,0.0,0.0,0.0,-1.7278,-1.7278,-1.7278,-1.7211,-1.7067,-1.7011,-1.6955,-1.6807,-1.6818,0.0,-1.6818,-1.6534,0.0,-1.5671,0.0,0.0,0.0,-1.6784,-1.7997,-1.8817,-1.9188,-1.9563,-2.0009,-2.0009,-2.0009,-2.0009,-2.0009,-2.0009,-2.0009,-2.0388,-2.0571,-2.0571,-2.1273,-2.1651,-2.1651,-2.1987,-2.2209,-2.2246,-2.2246,-2.2498,-2.3039,-2.3039,-2.3316,-2.3814,-2.435,-2.4578,-2.459,-2.5083,-2.5312,-2.5312,-2.5229,-2.5229,-2.5229,-2.5158,-2.5158,-2.517,-2.4849,-2.3886,-2.2467,-2.0333,-1.9863,-2.0079,0.0,0.0,0.0,0.0,0.0,0.0,0.0,0.0,0.0,0.0,0.0,0.0,0.0,0.0,0.0,0.0,0.0,0.0,0.0,-0.9256,-0.9361,-0.951,-1.0399,-1.1133,-1.1571,-1.2442,-1.2841,-1.2793,-1.284,-1.2859,-1.2695,-1.2956,-1.293,-1.2793,-1.3451,-1.4034,-1.4621,-1.5375,-1.6187,-1.6955,-1.7211,-1.7278,0.0,0.0,0.0,0.0,0.0,0.0,0.0,0.0,-1.7278,-1.7278,-1.7278,-1.7278,-1.7278,-1.7278,-1.7211,-1.7078,-1.7011,-1.729,-1.7457,-1.692,-1.7078,0.0,0.0,-1.6751,-1.6467,-1.6389,-1.6275,0.0,0.0,0.0,-1.8099,-1.8566,-1.9098,-1.9594,-2.0009,-2.0085,-2.0085,-2.0085,-2.0085,-2.0085,-2.0085,-2.0658,-2.0967,-2.0967,-2.16,-2.1987,-2.1987,-2.2123,-2.2197,-2.2197,-2.2197,-2.2294,-2.2486,-2.2486,-2.2594,-2.2799,-2.3652,-2.4049,-2.4061,-2.4254,-2.435,-2.435,-2.435,-2.453,-2.4819,-2.4819,-2.5011,-2.5229,-2.4227,-2.3361,-2.2467,-2.0634,-2.0089,-2.0167,0.0,0.0,0.0,0.0,0.0,0.0,0.0,0.0,0.0,0.0,0.0,0.0,0.0,0.0,0.0,0.0,0.0,0.0,-0.9106,-0.9159,-0.9106,-0.9061,-1.0218,-1.0821,-1.0744,-1.2116,-1.2774,-1.2676,-1.2774,-1.2725,-1.2569,-1.2702,-1.2821,-1.2898,-1.3403,-1.4162,-1.5079,-1.5298,-1.6167,-1.7277,-1.7277,-1.7153,0.0,0.0,0.0,0.0,0.0,0.0,0.0,0.0,-1.7278,-1.7278,-1.7278,-1.7278,-1.7278,-1.7278,-1.7312,-1.7279,-1.7056,-1.7457,-1.7788,-1.7245,0.0,0.0,-1.7224,-1.6853,-1.6581,-1.6694,-1.6637,-1.6581,-1.6797,0.0,0.0,-1.8235,-1.8761,-1.9353,-1.9781,-1.9987,-2.0085,-2.0085,-2.0085,-2.0085,-2.0085,-2.0646,-2.1031,-2.1158,-2.1737,-2.2061,-2.2185,-2.2197,-2.2197,-2.2197,-2.2197,-2.2197,-2.2197,-2.2197,-2.2197,-2.2197,-2.2919,-2.3364,-2.352,-2.3688,-2.3773,-2.3773,-2.3773,-2.3965,-2.4278,-2.4278,-2.4426,-2.4541,-2.3606,-2.3043,-2.2561,-2.1028,-2.0547,-2.0557,0.0,0.0,0.0,0.0,0.0,0.0,0.0,0.0,0.0,0.0,0.0,0.0,0.0,0.0,0.0,0.0,0.0,0.0,-0.9008,-0.9008,-0.8962,-0.8811,-0.9961,-1.061,-1.0618,-1.2008,-1.2676,-1.2676,-1.2676,-1.2627,-1.249,-1.2786,-1.288,-1.2917,-1.358,-1.4157,-1.4639,-1.5202,-1.6151,-1.7294,-1.7283,-1.6899,-1.6331,0.0,0.0,0.0,0.0,0.0,0.0,0.0,-1.7278,-1.7278,-1.7278,-1.7278,-1.7278,-1.7278,-1.7689,-1.7929,-1.7224,-1.7457,-1.7843,0.0,0.0,0.0,-1.7556,-1.7022,-1.6431,-1.6581,-1.6477,-1.6545,-1.6955,-1.6909,-1.7024,-1.7679,-1.8322,-1.8851,-1.9353,-1.977,-2.0074,-2.0085,-2.0085,-2.0085,-2.0085,-2.0388,-2.0775,-2.1158,-2.1526,-2.1851,-2.2185,-2.2197,-2.2197,-2.2197,-2.2197,-2.2197,-2.2197,-2.2197,-2.2197,-2.2197,-2.2197,-2.2474,-2.2991,-2.352,-2.3749,-2.3749,-2.3749,-2.3827,-2.3761,-2.3773,-2.3561,-2.3182,-2.3028,-2.2891,-2.2695,-2.1494,-2.1221,-2.1339,0.0,0.0,0.0,0.0,0.0,0.0,0.0,0.0,0.0,0.0,0.0,0.0,0.0,0.0,0.0,0.0,0.0,0.0,-0.8857,-0.8857,-0.8857,-0.8804,-0.9614,-1.0167,-1.0466,-1.176,-1.2529,-1.2676,-1.2676,-1.2578,-1.2391,-1.2744,-1.2986,-1.3184,-1.3709,-1.4297,-1.5071,-1.5517,-1.609,-1.6503,-1.5648,-1.5591,-1.5961,0.0,0.0,0.0,0.0,0.0,0.0,0.0,0.0,0.0,-1.7278,-1.7278,-1.7278,-1.7278,-1.7301,-1.729,-1.7256,-1.7523,0.0,-1.7335,0.0,0.0,0.0,-1.6751,0.0,0.0,-1.6705,-1.6761,-1.6955,-1.7088,-1.7318,-1.7737,-1.805,-1.849,-1.931,-1.9539,-1.9693,-2.0042,-2.0085,-2.0085,-2.0085,-2.0658,-2.1094,-2.1158,-2.1737,-2.2123,-2.2185,-2.2197,-2.2197,-2.2197,-2.2197,-2.2197,-2.2197,-2.2197,-2.2197,-2.2197,-2.2197,-2.227,-2.2426,-2.2582,-2.2654,-2.2654,-2.2654,-2.2871,-2.3244,-2.3616,-2.3561,-2.3226,-2.3152,-2.2937,-2.2477,-2.1246,-2.0803,-2.0668,0.0,0.0,0.0,0.0,0.0,0.0,0.0,0.0,0.0,0.0,0.0,0.0,0.0,0.0,0.0,0.0,0.0,0.0,0.0,-0.8804,-0.8804,-0.8804,-0.9413,-1.0072,-1.0838,-1.1859,-1.2421,-1.2529,-1.2529,-1.2506,-1.2475,-1.2883,-1.3238,-1.3543,-1.3956,-1.455,-1.5235,-1.5313,-1.5654,-1.6042,-1.4946,-1.4839,-1.5313,0.0,0.0,0.0,0.0,0.0,0.0,0.0,0.0,0.0,-1.7278,-1.7278,-1.7278,-1.7278,-1.7368,-1.739,-1.7323,-1.759,0.0,-1.7501,-1.739,-1.7234,-1.6684,0.0,0.0,0.0,-1.6694,-1.6807,-1.6955,-1.7078,-1.7242,-1.7546,-1.7821,-1.8206,-1.8774,-1.9179,-1.9528,-1.9759,-1.9966,-2.014,-2.027,-2.0711,-2.1094,-2.1348,-2.18,-2.2049,-2.2185,-2.2197,-2.2197,-2.2197,-2.2197,-2.2197,-2.2197,-2.2197,-2.2197,-2.2197,-2.2197,-2.2197,-2.2197,-2.2197,-2.2197,-2.2197,-2.2197,-2.2378,-2.269,-2.3015,-2.3006,-2.2823,-2.3024,-2.2897,-2.2375,-2.137,-2.0815,-2.0471,0.0,0.0,0.0,0.0,0.0,0.0,0.0,0.0,0.0,0.0,-0.3959,0.0,0.0,0.0,0.0,0.0,0.0,0.0,0.0,0.0,-0.8804,-0.8804,-0.9309,-1.0182,-1.1368,-1.2076,-1.2323,-1.2274,-1.2274,-1.2429,-1.2724,-1.3094,-1.3506,-1.3901,-1.4323,-1.4734,-1.5108,-1.4662,-1.4963,-1.5723,-1.4817,-1.4514,-1.4515,-1.4515,0.0,0.0,0.0,0.0,0.0,0.0,0.0,0.0,-1.7222,-1.7222,-1.7222,-1.7278,-1.7634,-1.7886,-1.7423,0.0,0.0,-1.7984,-1.7401,0.0,-1.6637,-1.6477,-1.6431,-1.6581,0.0,-1.6684,-1.6955,-1.7011,-1.7078,-1.7278,-1.7649,-1.7955,-1.7999,-1.8742,-1.931,-1.9342,-1.9715,-2.0139,-2.044,-2.0613,-2.0955,-2.1588,-2.1714,-2.1851,-2.2185,-2.2197,-2.2197,-2.2197,-2.2197,-2.2197,-2.2197,-2.2197,-2.2197,-2.2197,-2.2197,-2.2197,-2.2197,-2.2197,-2.2197,-2.2197,-2.2197,-2.2197,-2.2197,-2.2197,-2.2197,-2.2246,-2.2727,-2.2703,-2.2285,-2.1642,-2.1048,-2.0427,0.0,0.0,0.0,0.0,0.0,0.0,0.0,0.0,0.0,0.0,0.0,0.0,0.0,0.0,0.0,0.0,0.0,0.0,0.0,0.0,-0.8804,-0.8804,-0.9309,-0.9917,-1.0626,-1.1259,-1.1769,-1.2126,-1.2234,-1.2429,-1.2724,-1.3094,-1.3506,-1.3901,-1.4323,-1.4565,-1.4616,-1.4538,-1.4616,-1.4771,-1.4606,-1.4488,-1.4515,-1.4515,-1.456,0.0,0.0,0.0,0.0,0.0,0.0,0.0,-1.6751,-1.6751,-1.6797,-1.7022,-1.7123,-1.7224,-1.7123,-1.7123,0.0,0.0,-1.6965,-1.6581,-1.6477,-1.6431,-1.6431,-1.6581,-1.6694,-1.6807,-1.6955,-1.7145,-1.7267,-1.7278,-1.7366,-1.7573,-1.7955,-1.8185,-1.8447,-1.8807,-1.9277,-1.9572,-1.9635,-2.0475,-2.1158,-2.1285,-2.18,-2.2123,-2.2197,-2.2197,-2.2197,-2.2197,-2.2197,-2.2197,-2.2197,-2.2197,-2.2197,-2.2197,-2.2197,-2.2197,-2.2197,-2.2197,-2.2197,-2.2197,-2.2197,-2.2197,-2.2197,-2.2197,-2.2197,-2.2197,-2.2318,-2.2291,-2.2115,-2.0828,-2.0259,-1.9783,0.0,0.0,0.0,0.0,0.0,0.0,0.0,0.0,0.0,0.0,0.0,0.0,0.0,0.0,0.0,0.0,0.0,0.0,0.0,0.0,-0.8804,-0.8804,-0.9309,-0.9865,-1.0364,-1.0998,-1.1578,-1.2076,-1.2369,-1.2674,-1.2975,-1.3387,-1.3791,-1.4194,-1.4414,-1.4515,-1.4515,-1.4515,-1.4515,-1.4515,-1.4515,-1.4515,-1.4515,-1.4515,-1.4706,-1.4993,-1.5391,0.0,0.0,0.0,0.0,0.0,0.0,0.0,-1.6627,-1.6786,-1.6899,-1.7011,-1.7134,0.0,0.0,-1.6909,0.0,-1.6637,-1.6431,-1.6384,-1.6431,-1.6581,-1.6637,-1.6751,-1.6853,-1.7022,-1.7211,-1.7278,-1.7278,-1.7366,-1.7617,-1.7857,-1.8097,-1.8338,-1.8774,-1.9219,-1.9574,-2.0381,-2.1008,-2.1388,-2.1925,-2.2197,-2.2197,-2.2197,-2.2197,-2.2197,-2.2197,-2.2197,-2.2197,-2.2518,-2.2653,-2.2653,-2.2567,-2.2432,-2.2197,-2.2197,-2.2197,-2.2197,-2.2197,-2.2197,-2.2197,-2.2197,-2.2197,-2.2197,-2.2197,-2.2197,-2.2061,-2.0624,-1.9944,-1.9661,0.0,0.0,0.0,0.0,0.0,0.0,0.0,0.0,0.0,0.0,0.0,0.0,0.0,0.0,0.0,0.0,0.0,0.0,0.0,0.0,0.0,-0.8752,-0.9204,-0.971,-1.0364,-1.0897,-1.1444,-1.2027,-1.2416,-1.2761,-1.3065,-1.3614,-1.4045,-1.4327,-1.4446,-1.4515,-1.4515,-1.4515,-1.4515,-1.4515,-1.4515,-1.4515,-1.4515,-1.4515,-1.4812,-1.5215,-1.5099,-1.5868,-1.6854,-1.5982,0.0,0.0,0.0,0.0,-1.6255,-1.6513,-1.6684,-1.6955,-1.7211,0.0,-1.6955,-1.6864,-1.6807,0.0,-1.6545,-1.6488,-1.6488,-1.6581,-1.6627,-1.6694,-1.6807,-1.6965,-1.7134,-1.7278,-1.7278,-1.7278,-1.7278,-1.7628,-1.7879,-1.7879,-1.8283,-1.8841,-1.9593,-2.008,-2.0734,-2.1487,-2.1939,-2.2197,-2.2197,-2.2197,-2.2197,-2.2197,-2.2197,-2.2173,-2.2211,-2.2861,-2.3288,-2.3422,-2.308,-2.2665,-2.2197,-2.2247,-2.2247,-2.2197,-2.2197,-2.2197,-2.2197,-2.2197,-2.2197,-2.2197,-2.2197,-2.2197,-2.2061,-2.0752,-2.0139,-1.9922,0.0,0.0,0.0,0.0,0.0,0.0,0.0,0.0,0.0,0.0,0.0,0.0,0.0,0.0,0.0,0.0,0.0,0.0,-0.8421,0.0,0.0,-0.8626,-0.8679,-0.9242,-1.0364,-1.0466,-1.0943,-1.1747,-1.2178,-1.2268,-1.2107,-1.3332,-1.3803,-1.364,-1.4258,-1.4515,-1.4515,-1.4515,-1.4515,-1.4515,-1.4515,-1.4515,-1.4515,-1.4515,-1.4575,-1.4616,-1.4604,-1.507,-1.5527,-1.4906,-1.5206,0.0,0.0,0.0,-1.4984,-1.6026,-1.6353,-1.6513,0.0,0.0,-1.7011,0.0,-1.6909,-1.6818,0.0,0.0,-1.6761,0.0,-1.6751,-1.6807,-1.6955,-1.7145,-1.7278,-1.7278,-1.7278,-1.7278,-1.7278,-1.7333,-1.7376,-1.7376,-1.7802,-1.8225,-1.855,-1.967,-2.0584,-2.0981,-2.1737,-2.2197,-2.2197,-2.2197,-2.2197,-2.2197,-2.2197,-2.2175,-2.2189,-2.3056,-2.3974,-2.4715,-2.3482,-2.2665,-2.2197,-2.2616,-2.2604,-2.2197,-2.2197,-2.2197,-2.2197,-2.2197,-2.2197,-2.2197,-2.2197,-2.2197,-2.2123,-2.1262,-2.0869,-2.0655,0.0,0.0,0.0,0.0,0.0,0.0,0.0,0.0,0.0,0.0,0.0,0.0,0.0,0.0,0.0,-0.6691,-0.7557,-0.8156,-0.8368,-0.8156,-0.8203,-0.8573,-0.8685,-0.9099,-0.9909,-1.0151,-1.0584,-1.1276,-1.1784,-1.1845,0.0,-1.2915,-1.3595,-1.3511,-1.4198,-1.4515,-1.4515,-1.4515,-1.4515,-1.4515,-1.4515,-1.4387,-1.4198,-1.4198,-1.4148,-1.4088,-1.4118,-1.4186,-1.4359,-1.4469,-1.4478,-1.4369,-1.4506,0.0,0.0,0.0,-1.5874,0.0,-1.674,-1.7032,-1.7145,0.0,-1.6955,-1.6909,-1.6807,-1.6818,-1.6807,-1.6909,-1.6909,-1.6909,-1.7011,-1.7078,-1.7145,-1.7278,-1.7278,-1.7278,-1.7278,-1.7278,-1.7278,-1.7278,-1.7464,-1.7807,-1.8337,-1.9101,-1.9842,-2.0429,-2.126,-2.1753,-2.1753,-2.2041,-2.2197,-2.2197,-2.2212,-2.2177,-2.2213,-2.3646,-2.4603,-2.4975,-2.4047,-2.3386,-2.3005,-2.2896,-2.2665,-2.2197,-2.2494,-2.2432,-2.2197,-2.2197,-2.2197,-2.2197,-2.2197,-2.2197,-2.2123,-2.14,-2.106,-2.0996,0.0,0.0,0.0,0.0,0.0,0.0,0.0,0.0,0.0,0.0,0.0,0.0,0.0,0.0,0.0,0.0,-0.7503,-0.8096,-0.8049,-0.7729,-0.783,-0.8474,-0.8711,-0.9064,-0.9633,-0.9999,-1.0424,-1.0879,-1.1387,0.0,-1.0877,-1.2279,-1.2956,0.0,-1.4079,-1.4446,-1.4387,-1.4446,-1.4446,-1.4387,-1.4387,-1.4198,-1.401,-1.389,-1.3838,-1.3726,-1.3674,-1.3623,-1.364,-1.3907,-1.3614,-1.321,-1.3951,-1.4114,0.0,0.0,0.0,0.0,0.0,0.0,-1.7267,-1.7134,-1.7078,-1.7022,0.0,0.0,-1.6987,-1.7078,-1.7078,-1.7078,-1.7078,-1.7078,-1.7145,-1.7278,-1.7278,-1.7278,-1.7278,-1.7278,-1.7278,-1.7278,-1.7278,-1.7522,-1.8148,-1.8635,-1.916,-1.99,-2.0711,-2.126,-2.1392,-2.1886,-2.2225,-2.2445,-2.2262,-2.2431,-2.2927,-2.4281,-2.5033,-2.5016,-2.4514,-2.406,-2.3577,-2.3365,-2.2957,-2.2371,-2.2616,-2.2555,-2.2197,-2.2197,-2.2197,-2.2197,-2.2197,-2.2197,-2.2123,-2.1588,-2.1388,-2.1388,0.0,0.0,0.0,0.0,0.0,0.0,0.0,0.0,0.0,0.0,0.0,0.0,-0.4688,-0.5714,-0.6421,-0.6436,-0.6966,-0.7289,-0.7192,-0.7139,-0.7461,-0.8168,-0.8568,0.0,-0.9795,-1.0214,-1.0639,-1.0878,-1.0914,0.0,-1.0661,-1.117,-1.1483,-1.167,-1.364,-1.4327,-1.407,0.0,0.0,-1.401,-1.401,-1.401,-1.395,-1.3631,-1.3511,-1.3502,-1.3287,-1.3502,-1.3666,-1.2918,-1.2687,-1.2696,-1.3141,-1.3364,-1.3623,0.0,0.0,0.0,0.0,-1.7145,0.0,-1.7278,-1.7278,0.0,0.0,0.0,-1.7278,-1.7278,-1.7278,-1.7278,-1.7278,-1.7278,-1.7278,-1.7278,-1.7278,-1.7278,-1.7278,-1.7278,-1.7278,-1.7278,-1.7278,-1.739,-1.769,-1.8453,-1.9021,-1.9406,-2.0187,-2.0875,-2.138,-2.1866,-2.2434,-2.3032,-2.2476,-2.3035,-2.486,-2.4929,-2.5,-2.5016,-2.4945,-2.4477,-2.3636,-2.406,-2.3721,-2.2848,-2.2432,-2.2185,-2.2197,-2.2197,-2.2197,-2.2197,-2.2197,-2.2197,-2.2197,-2.2135,-2.2123,-2.2123,0.0,0.0,0.0,0.0,0.0,0.0,0.0,0.0,0.0,0.0,0.0,0.0,0.0,-0.5226,-0.5714,-0.5719,-0.6258,-0.6812,-0.7295,-0.7417,-0.7879,-0.8676,-0.9004,-0.9233,-0.9405,-0.9865,-1.0127,-1.0046,-1.0232,-1.0316,-1.0238,-1.085,-1.1226,-1.1428,-1.3025,-1.3571,-1.339,-1.4198,0.0,0.0,-1.3761,-1.3588,-1.2911,-1.3094,-1.3042,-1.2911,0.0,0.0,-1.2989,-1.2716,-1.2594,-1.2626,-1.2773,-1.285,-1.3094,-1.3872,0.0,0.0,0.0,0.0,0.0,-1.7278,-1.72,-1.7145,-1.7278,-1.72,-1.7145,-1.7278,-1.7278,-1.7278,-1.7278,-1.7278,-1.7278,-1.7278,-1.7278,-1.7278,-1.7278,-1.7278,-1.7278,-1.7278,-1.7278,-1.739,-1.7656,-1.8146,-1.8525,-1.8854,-1.9614,-2.0266,-2.0741,-2.123,-2.2191,-2.3683,-2.3321,-2.373,-2.5,-2.4989,-2.4989,-2.5,-2.5,-2.4832,-2.4465,-2.435,-2.3943,-2.3292,-2.2836,-2.2494,-2.2197,-2.2197,-2.2197,-2.2197,-2.2197,-2.2197,-2.2197,-2.2197,-2.2197,-2.2197,0.0,0.0,0.0,0.0,0.0,0.0,0.0,0.0,0.0,-0.2959,0.0,0.0,0.0,0.0,-0.5454,-0.5454,-0.5849,-0.6303,-0.6899,-0.7197,-0.7734,-0.8551,-0.912,-0.9354,-0.9294,-0.9665,-0.9807,-0.9711,-0.9869,-0.9964,-0.9983,-1.0415,-1.0661,-1.0926,-1.1965,-1.2581,0.0,0.0,0.0,-1.265,0.0,-1.2842,-1.2042,0.0,-1.2367,0.0,0.0,0.0,0.0,-1.252,-1.2597,-1.2621,-1.2621,-1.2621,-1.2805,0.0,0.0,0.0,-1.5989,0.0,0.0,0.0,0.0,-1.7011,-1.7145,-1.7145,-1.7134,-1.7211,-1.7267,-1.7278,-1.7278,-1.7278,-1.7278,-1.7278,-1.7278,-1.7278,-1.7278,-1.7278,-1.7278,-1.7278,-1.7278,-1.739,-1.7656,-1.792,-1.8247,-1.856,-1.9312,-1.9915,-2.0358,-2.1046,-2.2295,-2.4345,-2.4213,-2.4363,-2.5005,-2.5005,-2.5005,-2.5005,-2.5005,-2.5005,-2.5005,-2.465,-2.4163,-2.3577,-2.3245,-2.2775,-2.2197,-2.2197,-2.2197,-2.2197,-2.2197,-2.2197,-2.2197,-2.2197,-2.2197,-2.2197,0.0,0.0,0.0,0.0,0.0,0.0,0.0,0.0,-0.2912,-0.3527,0.0,0.0,0.0,0.0,0.0,-0.5743,-0.5804,-0.5808,-0.5812,-0.6473,-0.7081,-0.7752,-0.8817,-0.9383,-0.9383,-0.9585,-0.9786,-0.9989,-0.9786,-0.9792,-0.9983,-0.9862,-0.9862,-1.0047,-1.0528,-1.1406,-1.2421,0.0,-1.2089,-1.2243,0.0,-1.1973,-1.1516,0.0,0.0,0.0,-1.1615,-1.1802,0.0,-1.2436,0.0,0.0,0.0,0.0,0.0,0.0,0.0,0.0,0.0,0.0,0.0,0.0,0.0,0.0,-1.7011,-1.7145,-1.7211,-1.7067,-1.7145,-1.7278,-1.7278,-1.7278,-1.7278,-1.7278,-1.7278,-1.7278,-1.7278,-1.7278,-1.7278,-1.7278,-1.7334,-1.7434,-1.7656,-1.792,-1.8247,-1.856,-1.9186,-1.984,-2.0374,-2.1224,-2.267,-2.4819,-2.4956,-2.5025,-2.4991,-2.4991,-2.4991,-2.5005,-2.5005,-2.5005,-2.5005,-2.5005,-2.4465,-2.3636,-2.3577,-2.3053,-2.2185,-2.2197,-2.2197,-2.2197,-2.2197,-2.2197,-2.2197,-2.2197,-2.2197,-2.2197,0.0,0.0,0.0,0.0,0.0,0.0,-0.1857,-0.2722,-0.3421,0.0,0.0,0.0,-0.4857,-0.5012,-0.5157,-0.5157,-0.5566,-0.6103,-0.6789,-0.7424,-0.8118,-0.8937,-0.9454,-0.9617,-0.9497,-0.9693,-0.973,-0.9606,-0.9603,-0.9603,-0.9612,-0.9612,-0.9676,-0.9862,-0.9856,-1.0295,-1.1108,-1.171,0.0,-1.0926,-1.1469,-1.1469,0.0,0.0,0.0,0.0,0.0,-1.2375,-1.2375,0.0,-1.2621,-1.2621,0.0,0.0,0.0,0.0,0.0,0.0,-1.4451,0.0,0.0,0.0,0.0,0.0,-1.7145,-1.7145,-1.7134,-1.72,-1.7267,-1.7278,-1.7278,-1.7278,-1.7278,-1.7278,-1.7278,-1.7278,-1.7278,-1.7278,-1.7278,-1.7278,-1.749,-1.7601,-1.7711,-1.8139,-1.8506,-1.8614,-1.8934,-1.947,-2.0193,-2.1455,-2.2197,-2.2398,-2.41,-2.498,-2.5012,-2.5012,-2.5011,-2.5005,-2.5005,-2.5005,-2.5005,-2.454,-2.4189,-2.3909,-2.3356,-2.2957,-2.2665,-2.2309,-2.2197,-2.2247,-2.2555,-2.2494,-2.2247,-2.2604,-2.2494,-2.2197,0.0,0.0,0.0,0.0,0.0,-0.168,-0.2515,-0.3225,-0.3753,0.0,0.0,0.0,-0.4968,-0.5038,-0.5104,-0.5104,-0.5413,-0.601,-0.6812,-0.7458,-0.8159,-0.9075,-0.9478,-0.9612,-0.9484,-0.9497,-0.9497,-0.9484,-0.937,-0.937,-0.9484,-0.9484,-0.9548,-0.9676,-0.9548,0.0,0.0,0.0,0.0,0.0,-1.1031,0.0,0.0,-1.149,-1.1872,0.0,0.0,0.0,-1.1988,-1.2436,-1.2621,0.0,0.0,0.0,0.0,0.0,0.0,0.0,0.0,0.0,0.0,0.0,0.0,0.0,-1.6807,-1.7032,-1.7145,-1.7145,-1.7211,-1.7278,-1.7278,-1.7278,-1.7278,-1.7278,-1.7278,-1.7278,-1.7278,-1.739,-1.749,-1.749,-1.7711,-1.792,-1.8084,-1.8398,-1.8667,-1.8774,-1.9198,-1.9862,-2.0673,-2.1502,-2.1763,-2.1422,-2.2763,-2.348,-2.3487,-2.4518,-2.4984,-2.4983,-2.5007,-2.5005,-2.4991,-2.4231,-2.3839,-2.3675,-2.3305,-2.2957,-2.2616,-2.2555,-2.2494,-2.2494,-2.2787,-2.2616,-2.2247,-2.2739,-2.2604,-2.2197,0.0,0.0,-0.0617,-0.191,-0.2225,-0.26,-0.3459,-0.3779,-0.4036,0.0,-0.47,-0.4955,-0.514,-0.5292,-0.5428,-0.5428,-0.5428,-0.5686,-0.6334,-0.6924,-0.7647,-0.849,-0.9087,-0.942,-0.9484,-0.9238,-0.9232,-0.9484,-0.9232,-0.9238,-0.9484,-0.9484,-0.9484,-0.9484,-0.9484,0.0,0.0,0.0,0.0,-1.0244,-1.0674,-1.0611,0.0,0.0,-1.1428,-1.117,-1.1615,-1.1553,-1.1303,-1.2305,-1.2621,0.0,0.0,0.0,0.0,0.0,-1.2621,0.0,0.0,0.0,0.0,0.0,-1.5459,0.0,-1.6181,-1.6705,-1.7099,-1.6899,-1.7032,-1.7155,-1.7211,-1.7211,-1.7222,-1.7278,-1.7278,-1.7278,-1.7278,-1.7545,-1.7711,-1.7711,-1.7986,-1.8302,-1.856,-1.8667,-1.8827,-1.904,-1.9811,-2.0573,-2.1326,-2.1375,-2.1399,-2.1419,-2.1369,-2.1389,-2.1407,-2.3554,-2.4722,-2.501,-2.4763,-2.4745,-2.4937,-2.3905,-2.3335,-2.3183,-2.3369,-2.304,-2.2359,-2.2726,-2.2848,-2.2848,-2.2969,-2.2665,-2.2247,-2.2787,-2.2665,-2.2197,0.0,0.0,-0.1787,-0.2029,-0.308,-0.3906,-0.4094,-0.437,-0.4561,-0.4552,-0.4835,-0.5127,-0.5289,-0.5362,-0.5428,-0.5428,-0.5428,-0.5686,-0.6334,-0.6531,-0.7181,-0.842,-0.8619,-0.8952,-0.9484,-0.943,-0.943,-0.9484,-0.943,-0.943,-0.9484,-0.9484,-0.9484,-0.9484,-0.9484,-0.9484,0.0,0.0,0.0,-0.9676,-0.9734,-0.9989,-1.0301,-1.0491,-1.1052,-1.1677,-1.174,-1.1996,-1.2313,-1.2498,-1.2621,-1.2621,0.0,0.0,0.0,-1.2621,0.0,0.0,0.0,0.0,0.0,0.0,-1.4864,0.0,-1.5874,-1.6104,-1.6161,-1.6104,-1.6161,-1.6285,-1.6694,-1.6751,-1.6864,-1.7222,-1.7278,-1.7278,-1.7278,-1.7545,-1.7711,-1.7711,-1.8182,-1.8506,-1.8614,-1.9093,-1.946,-1.946,-2.0207,-2.0759,-2.0908,-2.1215,-2.1402,-2.1407,-2.1407,-2.1408,-2.1414,-2.1845,-2.3101,-2.5012,-2.3031,-2.3138,-2.4957,-2.3027,-2.2667,-2.347,-2.2755,-2.2807,-2.3292,-2.3017,-2.2665,-2.2432,-2.3185,-2.2944,-2.2309,-2.3173,-2.2944,-2.2197,0.0,-0.2617,-0.3223,-0.3215,-0.3781,-0.4284,-0.4284,-0.453,-0.4634,-0.4498,-0.4761,-0.5027,-0.5223,-0.5359,-0.5428,-0.5428,-0.5428,-0.5686,-0.6334,-0.6728,-0.7381,-0.8425,-0.8818,-0.9151,-0.9484,-0.9484,-0.9484,-0.9484,-0.9484,-0.9484,-0.9484,-0.9484,-0.9484,-0.9484,-0.9484,-0.9484,0.0,0.0,-0.9484,-0.9548,-0.9798,0.0,-1.0308,-1.0555,-1.0989,-1.1428,-1.1428,-1.174,-1.212,-1.1622,-1.1809,-1.212,-1.1872,-1.1996,-1.2182,0.0,-1.2375,-1.2621,0.0,0.0,0.0,-1.3743,-1.4273,0.0,0.0,-1.5758,-1.5874,-1.5874,-1.5874,-1.6046,-1.6513,-1.6684,-1.6965,-1.7434,-1.749,-1.7557,-1.7656,-1.7711,-1.7711,-1.7711,-1.8247,-1.8614,-1.8614,-1.9186,-1.9759,-2.0156,-2.0547,-2.0908,-2.1104,-2.1264,-2.1423,-2.1423,-2.1423,-2.1394,-2.1394,-2.1406,-2.1998,-2.319,-2.1957,-2.2036,-2.3192,-2.2211,-2.2734,-2.4226,-2.3134,-2.2896,-2.3245,-2.3245,-2.3065,-2.2811,-2.3636,-2.3352,-2.2604,-2.3352,-2.3005,-2.2197,-0.1883,0.0,-0.4241,-0.4303,-0.43,-0.43,-0.43,-0.4431,-0.4495,-0.4367,-0.4564,-0.4827,-0.5024,-0.516,-0.5296,-0.5296,-0.5296,-0.5488,-0.6075,-0.6728,-0.7451,-0.8226,-0.8952,-0.935,-0.9484,-0.9484,-0.9484,-0.9484,-0.9484,-0.9484,-0.9484,-0.9484,-0.9484,-0.9484,-0.9484,-0.9484,0.0,0.0,0.0,-0.9548,0.0,-1.018,-1.018,-1.0548,-1.08,-1.0863,-1.0982,-1.1303,-1.149,-1.0737,-1.0989,-1.1553,-1.1115,-1.1365,0.0,0.0,0.0,0.0,0.0,0.0,0.0,-1.3329,-1.3803,-1.4213,0.0,0.0,0.0,-1.5642,-1.5642,-1.5758,-1.6285,-1.6616,-1.7011,-1.7534,-1.77,-1.7877,-1.8084,-1.792,-1.781,-1.7865,-1.829,-1.8614,-1.8667,-1.9291,-2.0016,-2.0759,-2.0858,-2.1068,-2.1361,-2.1423,-2.1423,-2.1423,-2.1423,-2.1423,-2.1423,-2.1421,-2.1392,-2.1392,-2.1417,-2.1407,-2.1433,-2.1628,-2.2776,-2.4585,-2.358,-2.311,-2.3157,-2.3495,-2.3579,-2.3551,-2.4105,-2.3826,-2.3125,-2.3471,-2.3113,-2.242,-0.2406,-0.3149,0.0,-0.4233,-0.43,-0.43,-0.43,-0.43,-0.4364,-0.4561,-0.4625,-0.4694,-0.4827,-0.4831,0.0,0.0,-0.4897,-0.4897,-0.496,-0.5749,-0.6597,-0.7312,-0.8161,-0.8888,-0.9484,-0.9484,-0.9484,-0.9484,-0.9484,-0.9484,-0.9484,-0.9484,-0.9484,-0.9484,-0.9484,0.0,0.0,0.0,-0.9484,0.0,-0.9548,-0.9612,-0.9612,-0.967,-0.9989,-1.0428,-1.0863,-1.1052,-1.1045,-1.0989,-1.0982,-1.1108,-1.1045,-1.1365,-1.1677,-1.1233,0.0,0.0,0.0,0.0,-1.2744,-1.3329,-1.3571,-1.3752,-1.4437,0.0,-1.4684,-1.4684,0.0,-1.4852,-1.541,0.0,0.0,-1.719,-1.77,-1.8096,-1.8084,-1.8084,-1.8139,-1.8452,-1.856,-1.8667,-1.8934,-1.9668,-2.0321,-2.0746,-2.1104,-2.1361,-2.1423,-2.1423,-2.1423,-2.1423,-2.1423,-2.1423,-2.1423,-2.1402,-2.1415,-2.1415,-2.1407,-2.1372,-2.1387,-2.1414,-2.215,-2.3378,-2.3245,-2.3455,-2.396,-2.3846,-2.396,-2.4163,-2.4292,-2.4105,-2.3859,-2.3695,-2.3518,-2.3352,-0.2889,-0.3493,0.0,0.0,-0.43,-0.43,-0.43,-0.43,-0.4367,-0.4561,-0.4625,-0.4628,0.0,0.0,0.0,0.0,0.0,-0.4831,0.0,0.0,-0.6137,-0.6461,-0.7642,-0.8431,-0.8759,-0.9022,-0.9285,-0.9484,-0.9098,-0.9092,-0.9484,-0.9285,-0.9285,-0.9484,-0.9484,0.0,-0.9484,0.0,-0.9484,0.0,-0.9484,-0.9484,-0.9484,-0.9484,-0.9612,-0.9862,-1.0047,-1.0364,-1.0555,-1.0238,-1.0364,-1.0548,-1.0238,-1.0491,-1.0863,-1.0681,0.0,0.0,-1.1872,-1.2182,-1.2683,-1.3103,-1.3338,-1.3631,-1.407,-1.4387,-1.4515,-1.4515,0.0,0.0,0.0,0.0,0.0,0.0,-1.7897,-1.8452,-1.8614,-1.8302,-1.8193,-1.8398,-1.8506,-1.8827,-1.9303,-2.0016,-2.051,-2.0795,-2.1313,-2.1568,-2.1423,-2.1423,-2.1423,-2.1423,-2.1423,-2.1423,-2.1423,-2.1423,-2.1423,-2.1423,-2.1423,-2.1394,-2.1417,-2.1417,-2.1934,-2.2831,-2.2692,-2.2937,-2.3433,-2.3487,-2.3784,-2.4282,-2.4545,-2.4428,-2.4163,-2.4221,-2.3813,-2.3125,-0.3092,0.0,0.0,0.0,-0.43,-0.43,-0.43,-0.43,-0.4364,-0.4495,-0.4495,0.0,-0.4631,-0.4631,0.0,0.0,-0.4631,-0.4631,0.0,0.0,-0.5807,-0.5807,-0.7251,-0.8037,-0.8037,-0.8565,-0.8958,-0.9227,-0.8711,-0.8776,-0.9227,-0.9087,-0.9151,-0.935,-0.9484,-0.9484,-0.9484,0.0,-0.9484,-0.9484,-0.9484,-0.9484,-0.9484,-0.9484,-0.9484,-0.9484,-0.9484,-0.974,-1.0053,-0.9612,-0.9734,-0.9989,-0.9606,-0.9862,-1.0238,-1.0117,0.0,0.0,-1.1428,-1.1872,-1.2436,-1.2744,-1.3155,-1.3571,-1.3941,-1.4258,-1.4515,-1.4515,-1.4515,0.0,0.0,0.0,-1.6856,-1.7224,0.0,-1.8774,-1.8987,-1.8614,-1.8398,-1.8494,-1.8667,-1.904,-1.9708,-2.0258,-2.066,-2.0894,-2.1396,-2.1616,-2.1423,-2.1423,-2.1423,-2.1423,-2.1423,-2.1423,-2.1423,-2.1423,-2.1423,-2.1423,-2.1423,-2.1423,-2.1423,-2.1423,-2.1743,-2.2269,-2.2156,-2.2417,-2.2997,-2.3265,-2.3661,-2.4226,-2.4868,-2.483,-2.4366,-2.4627,-2.4105,-2.3258,-0.2686,-0.356,0.0,0.0,0.0,-0.43,-0.43,-0.43,-0.43,0.0,0.0,0.0,0.0,0.0,0.0,0.0,0.0,-0.43,-0.43,0.0,-0.5617,-0.5617,-0.699,-0.7707,0.0,-0.8247,-0.8511,-0.8517,-0.8517,-0.8517,-0.8517,-0.8829,-0.9017,-0.9017,-0.935,-0.9484,-0.9484,-0.9484,-0.9484,-0.9484,-0.9484,-0.9484,-0.9484,-0.9484,-0.9484,-0.9484,-0.9484,-0.9484,-0.9548,-0.9484,-0.9484,-0.9548,-0.9484,-0.9862,-1.018,-0.967,-1.0238,-1.0926,-1.0491,-1.1052,-1.1934,-1.2243,-1.2903,-1.3571,-1.3941,-1.4258,-1.4515,-1.4515,-1.4515,-1.4565,-1.4715,-1.5776,-1.6754,-1.7,-1.8104,0.0,0.0,-1.8987,-1.8987,-1.8999,-1.9105,-1.946,-2.0131,-2.0308,-2.061,-2.1126,-2.1348,-2.1423,-2.1423,-2.1423,-2.1423,-2.1423,-2.1423,-2.1423,-2.1423,-2.1423,-2.1423,-2.1423,-2.1423,-2.1423,-2.1423,-2.1423,-2.1423,-2.145,-2.1767,-2.2374,-2.3111,-2.3376,-2.3716,-2.4137,-2.5293,-2.5228,-2.449,-2.4649,-2.4509,-2.4118,0.0,0.0,0.0,0.0,0.0,0.0,0.0,-0.43,0.0,0.0,-0.43,0.0,0.0,-0.43,-0.43,0.0,0.0,-0.43,-0.43,-0.4564,0.0,-0.4761,-0.5745,-0.6334,0.0,-0.6859,-0.7386,-0.7977,-0.7526,-0.7727,-0.8517,-0.8376,-0.8565,-0.9017,-0.9151,-0.9285,0.0,0.0,0.0,0.0,-0.9484,-0.9484,-0.9484,-0.9484,-0.9484,-0.9484,-0.9484,-0.9484,-0.9484,-0.9484,-0.9484,-0.9484,-0.9484,-0.9606,-0.9734,-0.9548,-0.9989,-1.0491,-1.0364,-1.08,-1.1365,-1.1864,-1.2359,-1.285,-1.3511,-1.395,-1.4198,-1.4446,-1.4515,-1.4506,-1.4556,-1.5738,-1.6743,-1.681,-1.8038,-1.8987,0.0,-1.9052,-1.917,-1.9263,-1.9604,-1.9901,-1.994,-2.0446,-2.0759,-2.056,-2.1006,-2.1202,-2.1006,-2.1264,-2.1423,-2.1423,-2.1423,-2.1423,-2.1423,-2.1423,-2.1423,-2.1423,-2.1423,-2.1423,-2.1423,-2.1423,-2.152,-2.1664,-2.1949,-2.2339,-2.28,-2.2991,-2.3316,-2.3723,-2.4312,-2.4554,-2.4571,-2.5273,-2.4794,-2.3695,-0.2757,0.0,0.0,0.0,0.0,0.0,0.0,0.0,0.0,0.0,-0.43,0.0,-0.43,0.0,-0.43,0.0,-0.43,-0.43,-0.43,-0.43,0.0,-0.43,-0.5024,0.0,0.0,-0.5943,-0.647,-0.706,-0.6609,-0.6937,-0.7857,-0.7792,-0.8047,-0.863,-0.8888,-0.9151,-0.935,-0.942,-0.9484,0.0,-0.9484,-0.9484,-0.9484,-0.9484,-0.9484,-0.9484,-0.9484,-0.9484,-0.9484,-0.9484,-0.9484,-0.9484,-0.9484,-0.9484,-0.9484,-0.9484,-0.9734,-0.9989,-0.9989,-1.0364,-1.08,-1.1178,-1.167,-1.222,-1.2903,-1.339,-1.383,-1.407,-1.4327,-1.4446,-1.4198,-1.5323,-1.6337,-1.6507,-1.7699,-1.8721,0.0,-1.9117,-1.9223,-1.9368,-1.9914,-2.0194,-2.0003,-2.0709,-2.0908,-2.0372,-2.0908,-2.114,-2.0795,-2.1166,-2.1423,-2.1423,-2.1423,-2.1423,-2.1423,-2.1423,-2.1423,-2.1423,-2.152,-2.1582,-2.1568,-2.1664,-2.1793,-2.1949,-2.2231,-2.2417,-2.2615,-2.2797,-2.3057,-2.332,-2.3757,-2.3949,-2.4121,-2.514,-2.483,-2.3754,-0.2087,0.0,0.0,0.0,-0.4097,0.0,0.0,0.0,-0.43,0.0,-0.43,-0.43,-0.43,-0.43,-0.43,-0.43,-0.43,-0.43,-0.43,-0.43,0.0,0.0,-0.4761,-0.5087,-0.5087,-0.5557,0.0,-0.5888,-0.5888,-0.6152,-0.6675,-0.7003,-0.7461,-0.7987,-0.863,-0.8952,-0.9022,-0.9285,-0.9484,-0.9484,-0.9484,-0.9484,-0.9484,-0.9484,-0.9484,-0.9484,-0.9484,-0.9484,-0.9484,-0.9484,-0.9484,-0.9484,-0.9484,-0.9484,-0.9484,-0.9484,-0.9484,-0.9484,-0.9484,-0.9862,-1.0238,-1.0301,-1.085,-1.1586,-1.2174,-1.272,-1.326,-1.3381,-1.395,-1.4198,-1.3571,-1.4619,-1.5718,-1.6213,-1.7202,-1.817,-1.8881,-1.9117,-1.9275,-1.9368,-1.9965,-2.0422,-2.0422,-2.1019,-2.1166,-2.066,-2.1068,-2.1166,-2.0795,-2.1166,-2.1423,-2.1423,-2.1423,-2.1423,-2.1423,-2.1423,-2.1423,-2.1423,-2.1739,-2.1882,-2.1841,-2.2091,-2.2184,-2.2231,-2.2509,-2.2615,-2.2615,-2.2797,-2.2888,-2.2946,-2.3601,-2.3545,-2.3273,-2.4399,-2.4614,-2.4234,-0.188,-0.2619,-0.336,0.0,-0.4097,-0.43,-0.43,-0.43,0.0,0.0,-0.43,-0.43,-0.43,-0.43,-0.43,-0.43,-0.43,0.0,0.0,0.0,0.0,-0.43,-0.4434,-0.4498,-0.4498,-0.4631,-0.4894,-0.5286,-0.5286,-0.5554,-0.6086,-0.6218,-0.6675,-0.74,-0.7591,-0.8052,-0.8641,-0.8705,-0.8899,-0.9151,-0.9414,-0.9484,-0.9484,-0.9484,-0.9484,-0.9484,-0.9484,-0.9484,-0.9484,-0.9484,-0.9484,-0.9484,-0.9484,-0.9484,-0.9484,-0.9484,-0.9484,-0.9484,-0.9484,-0.9612,-0.9798,-1.018,-1.0485,-1.0793,-1.1524,-1.1826,-1.2012,-1.232,-1.2826,-1.326,-1.3329,-1.4501,-1.5545,-1.5968,-1.7058,-1.8101,-1.8869,-1.9146,-1.9303,-1.9368,-1.9965,-2.051,-2.0795,-2.0993,-2.0957,-2.061,-2.0709,-2.066,-2.0372,-2.1215,-2.1616,-2.1423,-2.1423,-2.1423,-2.1423,-2.1423,-2.1533,-2.1787,-2.163,-2.1712,-2.2091,-2.1949,-2.2137,-2.2509,-2.2555,-2.2661,-2.2843,-2.2888,-2.2888,-2.2917,-2.2925,-2.3144,-2.3506,-2.3703,-2.4016,-2.4234,-0.1477,-0.2351,0.0,-0.3491,-0.3828,-0.4097,-0.4097,-0.4097,-0.4164,-0.43,-0.43,0.0,-0.43,-0.43,-0.43,-0.43,-0.43,0.0,-0.43,0.0,0.0,-0.43,-0.43,-0.43,-0.43,-0.43,0.0,-0.4761,-0.4761,-0.5027,-0.5554,-0.5554,-0.5951,-0.6613,-0.6802,-0.726,-0.7927,-0.8317,-0.8576,-0.8829,-0.9151,-0.928,0.0,-0.942,-0.9484,-0.9484,-0.9484,-0.9484,-0.9484,-0.9484,-0.9484,-0.9484,-0.9484,-0.9484,-0.9484,-0.9484,-0.9484,-0.9484,-0.9484,-0.9484,-0.9548,-0.9862,-0.9926,-1.011,-1.085,-1.1087,-1.1267,-1.1524,-1.202,-1.2389,-1.2336,-1.3399,-1.4563,-1.537,-1.7088,-1.8507,-1.8959,-1.9095,-1.9218,-1.938,-1.9965,-2.061,-2.114,-2.0944,-2.0795,-2.0795,-2.0845,-2.0795,-2.066,-2.1361,-2.1664,-2.1423,-2.152,-2.1568,-2.1568,-2.1568,-2.1712,-2.2024,-2.1712,-2.1841,-2.237,-2.2231,-2.237,-2.2752,-2.2752,-2.2797,-2.2888,-2.2888,-2.2888,-2.2843,-2.2555,-2.2836,-2.3377,-2.3339,-2.3872,-2.4593,-0.1076,0.0,0.0,0.0,0.0,-0.3489,-0.3623,-0.3758,-0.3961,-0.4233,-0.43,-0.43,-0.43,-0.4314,-0.4322,-0.4322,-0.4338,-0.4346,-0.4346,-0.4346,-0.4346,-0.4346,-0.4346,-0.4346,-0.4346,-0.4346,-0.4346,-0.4346,-0.4346,-0.4613,-0.5075,-0.5075,-0.5346,-0.5822,-0.614,0.0,0.0,-0.8032,-0.8343,-0.8382,-0.8694,-0.8823,-0.8882,-0.9087,-0.9221,-0.9285,-0.9221,-0.935,-0.9484,-0.9484,-0.9484,-0.9484,-0.9484,-0.9484,-0.9484,-0.9484,-0.9484,-0.9484,-0.9484,-0.9484,-0.9484,-0.9484,-0.9484,-0.9606,-1.0117,-1.0415,-1.0654,-1.0793,-1.1344,-1.1648,-1.1108,-1.2135,-1.3417,-1.4657,-1.6882,-1.8517,-1.8499,0.0,0.0,0.0,-1.9759,0.0,-2.1272,-2.0944,-2.0795,-2.1091,-2.1237,-2.1237,-2.114,-2.1589,-2.1712,-2.1313,-2.1616,-2.1746,-2.1793,-2.1793,-2.1949,-2.2231,-2.1996,-2.2137,-2.2661,-2.2615,-2.2706,-2.2888,-2.2843,-2.2843,-2.2888,-2.2843,-2.2797,-2.2752,-2.2324,-2.2482,-2.3013,-2.3166,-2.3933,-2.4896,-0.0941,0.0,0.0,0.0,0.0,-0.1949,-0.2551,-0.3558,-0.4233,-0.43,-0.43,-0.43,-0.43,-0.4384,-0.4439,-0.4439,-0.4534,-0.4662,-0.4662,-0.4662,-0.4662,-0.4662,-0.4662,-0.4662,-0.4662,-0.4662,-0.4662,-0.4662,-0.4662,-0.4662,-0.4802,-0.4802,-0.5015,-0.5516,-0.5583,0.0,-0.6975,-0.7441,-0.7545,-0.7466,-0.7777,-0.7902,-0.7902,-0.7707,-0.7907,-0.8247,-0.7912,-0.8495,-0.9484,-0.9484,-0.9484,-0.9484,-0.9484,-0.9484,-0.9484,-0.9484,-0.9484,-0.9484,-0.9484,-0.9484,-0.9484,-0.9484,-0.9484,-0.9548,-0.9612,-0.967,-0.9728,-0.9734,-1.0238,-1.0737,-1.1066,-1.2825,-1.421,-1.4194,-1.5052,-1.5783,-1.5925,-1.6406,0.0,0.0,-1.8513,-1.9322,-2.1077,-2.1126,-2.1286,-2.1793,-2.1841,-2.1541,-2.0759,-2.1589,-2.1732,-2.0957,-2.1264,-2.1568,-2.1793,-2.1793,-2.2044,-2.2509,-2.2278,-2.237,-2.2843,-2.2661,-2.2706,-2.2888,-2.2509,-2.2555,-2.2843,-2.2463,-2.2324,-2.2278,-2.1996,-2.2118,-2.2487,-2.3011,-2.3622,-2.4354,-0.0274,0.0,0.0,0.0,-0.1192,-0.1541,-0.28,-0.3151,-0.3554,-0.4327,-0.4444,-0.4485,-0.4485,-0.4531,-0.4635,-0.4635,-0.469,-0.4726,-0.4726,-0.4726,-0.4726,-0.4726,-0.4726,-0.4726,-0.4726,-0.4726,-0.4581,-0.4364,-0.4581,-0.4581,-0.4364,-0.4581,-0.4798,-0.5012,-0.5228,-0.5647,-0.6127,-0.6443,-0.6556,-0.6544,-0.6859,-0.7055,-0.7051,-0.7181,-0.7381,-0.7582,-0.7451,-0.7847,-0.8495,-0.8823,-0.8952,-0.9017,-0.9414,-0.9484,-0.9484,-0.9484,-0.9484,-0.9484,-0.9484,-0.9484,-0.9484,-0.9484,-0.9484,-0.9484,-0.9484,-0.9484,-0.9484,-0.9484,-0.9734,-0.997,-1.0286,-1.1203,-1.2234,-1.3126,-1.4096,-1.476,-1.485,-1.5625,-1.6465,0.0,0.0,0.0,-2.008,-2.0631,-2.1259,-2.1935,-2.1996,-2.1589,-2.066,-2.1636,-2.1779,-2.0845,-2.1313,-2.1664,-2.1793,-2.1793,-2.1996,-2.237,-2.2137,-2.2278,-2.2752,-2.2661,-2.2706,-2.2888,-2.2661,-2.2615,-2.2706,-2.237,-2.2184,-2.2184,-2.1902,-2.189,-2.215,-2.2888,-2.3365,-2.373,0.0,0.0141,0.0,0.0,-0.08,-0.1163,-0.2616,-0.2411,-0.2614,-0.4029,-0.438,-0.4437,-0.4068,-0.431,-0.4473,-0.4398,-0.464,-0.473,-0.4654,-0.473,-0.473,-0.4654,-0.473,-0.473,-0.473,-0.4654,-0.4509,-0.4215,-0.4436,-0.4423,-0.4181,-0.4496,-0.4654,-0.48,-0.5063,-0.5281,-0.5383,-0.5655,-0.5773,-0.5803,-0.6024,-0.6137,-0.6137,-0.6527,-0.6789,-0.6854,-0.6929,-0.6994,-0.706,-0.7837,-0.8161,-0.8361,-0.8888,-0.9157,-0.9285,-0.9285,-0.9414,-0.9484,-0.9484,-0.9484,-0.9484,-0.9484,-0.9484,-0.9484,-0.9484,-0.9484,-0.9484,-0.9484,-0.9484,-0.9512,-0.9517,-0.9506,-1.0122,-1.1974,-1.3391,-1.4305,-1.4363,-1.5109,-1.5941,0.0,0.0,0.0,-1.9077,-2.0054,-2.0953,-2.1732,-2.1935,-2.1602,-2.0759,-2.1541,-2.1684,-2.0858,-2.1444,-2.1841,-2.1949,-2.1841,-2.1949,-2.2184,-2.1996,-2.2137,-2.2615,-2.2615,-2.2706,-2.2888,-2.2797,-2.2615,-2.2417,-2.2184,-2.2137,-2.2091,-2.1793,-2.1712,-2.1849,-2.2831,-2.3122,-2.3245,0.1089,0.0,0.1018,0.0947,0.0583,0.0073,-0.0436,-0.0964,-0.1789,-0.3051,-0.3636,-0.3425,-0.1963,-0.3117,-0.3841,-0.3462,-0.438,-0.4825,-0.4433,-0.4748,-0.4825,-0.4433,-0.4748,-0.4982,-0.4982,-0.459,-0.459,-0.4905,-0.4203,-0.4157,-0.4745,-0.454,-0.459,-0.4982,-0.5049,-0.5205,-0.5596,-0.5463,-0.5403,-0.5343,-0.5272,-0.5219,-0.5219,-0.5093,-0.5355,-0.5745,-0.562,-0.5557,-0.5686,-0.64,-0.699,-0.7517,-0.7582,-0.8037,-0.8619,-0.8619,-0.9017,-0.9484,-0.9484,-0.9484,-0.9484,-0.9484,-0.9484,-0.9484,-0.9484,-0.9484,-0.9484,-0.9484,-0.9484,-0.9512,-0.9517,-0.9493,-0.9862,-1.0946,-1.2509,-1.364,-1.3838,-1.4327,-1.4902,-1.5671,0.0,0.0,-1.8802,-1.9851,-2.061,-2.1042,-2.1636,-2.1684,-2.0993,-2.1396,-2.141,-2.0795,-2.1444,-2.1996,-2.2324,-2.1996,-2.1949,-2.2184,-2.2184,-2.2324,-2.2615,-2.2615,-2.2706,-2.2888,-2.2463,-2.2137,-2.1841,-2.1841,-2.1841,-2.1793,-2.1568,-2.1423,-2.1572,-2.278,-2.2911,-2.2789,0.119,0.1194,0.105,0.0761,0.0839,0.0534,-0.0685,-0.023,-0.0077,-0.1294,-0.213,-0.2433,-0.1824,-0.2301,-0.2621,-0.2467,-0.2877,-0.3207,-0.3443,-0.36,-0.3759,-0.3995,-0.4231,-0.4311,-0.4311,-0.4153,-0.3997,-0.3845,-0.3843,-0.3824,-0.3789,-0.421,-0.4621,-0.5015,-0.4939,-0.4955,-0.5121,-0.4994,-0.4938,-0.4812,-0.476,-0.4695,-0.4631,-0.4764,-0.496,-0.516,-0.5359,-0.5428,-0.5428,-0.5686,-0.6272,-0.6859,-0.7256,-0.7582,-0.7842,-0.7842,-0.8366,-0.8888,-0.8888,-0.9215,-0.9484,-0.9484,-0.9484,-0.9484,-0.9484,-0.9484,-0.9484,-0.9484,-0.9484,-0.9466,-0.9488,-0.9479,-1.0045,-1.1707,-1.2805,-1.3666,-1.4125,-1.4381,-1.4625,-1.4893,0.0,-1.6337,-1.7357,-1.8602,-1.962,-2.0333,-2.1479,-2.1779,-2.1042,-2.1396,-2.1506,-2.1299,-2.1251,-2.1444,-2.2044,-2.1698,-2.1616,-2.1698,-2.1888,-2.2044,-2.2137,-2.2278,-2.2417,-2.2463,-2.1874,-2.1684,-2.1793,-2.1616,-2.1568,-2.1568,-2.1423,-2.1423,-2.151,-2.2469,-2.2858,-2.3018,0.1221,0.1225,0.1078,0.0705,0.1021,0.0864,-0.0314,0.0471,0.1021,0.0235,-0.047,-0.0939,-0.0939,-0.1174,-0.133,-0.1408,-0.1486,-0.18,-0.2348,-0.2504,-0.2662,-0.3056,-0.3212,-0.321,-0.321,-0.3292,-0.3214,-0.2981,-0.3294,-0.3359,-0.3262,-0.4031,-0.4513,-0.4854,-0.4849,-0.4887,-0.4879,-0.4757,-0.4635,-0.452,-0.4485,-0.4401,-0.43,-0.4631,-0.4761,-0.4761,-0.5096,-0.5229,-0.5229,-0.5292,-0.5617,-0.6137,-0.6666,-0.6929,-0.7125,-0.7125,-0.7642,-0.8166,-0.8166,-0.8495,-0.8958,-0.9151,-0.9215,-0.9285,-0.9484,-0.9484,-0.9484,-0.9484,-0.9484,-0.9484,-0.9484,-0.9515,-0.9989,-1.1423,-1.2567,-1.3545,-1.4351,-1.4399,-1.4387,-1.4556,-1.5069,-1.568,-1.6404,-1.7698,-1.8891,-1.9825,-2.0979,-2.1382,-2.0795,-2.1042,-2.1202,-2.1202,-2.0908,-2.1006,-2.1506,-2.1215,-2.1068,-2.1068,-2.1264,-2.1361,-2.1458,-2.1732,-2.1827,-2.1827,-2.1237,-2.1188,-2.1458,-2.1264,-2.1215,-2.1215,-2.1361,-2.1423,-2.1461,-2.2247,-2.263,-2.2856,0.1335,0.1335,0.1257,0.1257,0.1257,0.1257,0.1257,0.1257,0.1257,0.1257,0.1257,0.1257,0.1257,0.0471,-0.0078,-0.0313,-0.0627,-0.094,-0.1332,-0.1721,-0.1721,-0.1332,-0.1721,-0.1955,-0.1955,-0.2115,-0.243,-0.2818,-0.2586,-0.2866,-0.3628,-0.4009,-0.4289,-0.4462,-0.4857,-0.5015,-0.5007,-0.4882,-0.4762,-0.4712,-0.452,-0.4401,-0.43,-0.4495,-0.4625,-0.4625,-0.4761,-0.4831,-0.4831,-0.5024,-0.5087,-0.5156,-0.5359,-0.5881,-0.64,-0.64,-0.6859,-0.7386,-0.7386,-0.7386,-0.7582,-0.8361,-0.849,-0.8683,-0.935,-0.9484,-0.9484,-0.9484,-0.9484,-0.9484,-0.9484,-0.9515,-0.9499,-0.9562,-1.1243,-1.3025,-1.4291,-1.421,-1.4189,-1.4647,-1.541,-1.6046,-1.6436,-1.76,-1.8697,-1.9567,-1.9978,-2.0232,-2.0232,-2.0232,-2.0232,-2.0232,-2.0446,-2.066,-2.0795,-2.0422,-2.0233,-2.0233,-2.0233,-2.0372,-2.061,-2.0894,-2.0993,-2.0993,-2.0759,-2.061,-2.061,-2.0759,-2.0795,-2.0858,-2.1264,-2.1423,-2.1461,-2.2247,-2.2185,-2.201,0.1335,0.1335,0.1335,0.1335,0.1335,0.1335,0.1335,0.1335,0.1335,0.1335,0.1335,0.1335,0.1335,0.1021,0.0864,0.0785,0.0706,0.0392,-0.0157,-0.0314,-0.0549,-0.0785,-0.0941,-0.102,-0.102,-0.1099,-0.1177,-0.1333,-0.1725,-0.2343,-0.3258,-0.3413,-0.3814,-0.4384,-0.4543,-0.4779,-0.5015,-0.4974,-0.4841,-0.4723,-0.4682,-0.4477,-0.43,-0.4495,-0.4625,-0.4625,-0.4761,-0.4831,-0.4831,-0.5024,-0.5087,-0.5156,-0.5359,-0.5557,-0.5686,-0.5686,-0.6207,-0.6728,-0.6728,-0.7055,-0.7451,-0.7712,-0.8102,-0.8554,-0.8753,-0.9151,-0.9484,-0.9484,-0.9484,-0.9484,-0.9484,-0.9482,-0.9971,-1.1353,-1.2011,-1.2728,-1.3839,-1.3985,-1.413,-1.4497,-1.4793,-1.5128,-1.5575,-1.6187,-1.7079,-1.8167,-1.8744,-1.953,-2.0683,-2.0283,-2.0283,-2.0733,-2.0207,-2.0169,-2.066,-2.0372,-2.0182,-2.0182,-2.0182,-2.0233,-2.0321,-2.0105,-2.0207,-2.0409,-2.0067,-2.0067,-2.0321,-2.0372,-2.0372,-2.0422,-2.0523,-2.0573,-2.0666,-2.138,-2.1746,-2.1954,0.1335,0.1335,0.1335,0.1335,0.1335,0.1335,0.1335,0.1335,0.1335,0.1335,0.1335,0.1335,0.1335,0.1335,0.1335,0.1335,0.1335,0.11,0.0707,0.0707,0.0471,0.0157,0.0079,0.0079,0.0079,-0.0157,-0.0236,-0.0236,-0.0942,-0.1569,-0.2198,-0.2353,-0.2823,-0.3522,-0.3912,-0.4384,-0.5018,-0.5018,-0.4876,-0.4726,-0.4726,-0.4512,-0.43,-0.4431,-0.4495,-0.4498,-0.4564,-0.4631,-0.4631,-0.4824,-0.4891,-0.4957,-0.5093,-0.5226,-0.5292,-0.5362,-0.5686,-0.6009,-0.6009,-0.6338,-0.6732,-0.699,-0.7381,-0.7832,-0.8361,-0.9017,-0.9484,-0.9484,-0.9484,-0.9484,-0.9484,-0.95,-0.9933,-1.1248,-1.1512,-1.1958,-1.305,-1.3407,-1.3761,-1.4327,-1.4497,-1.4784,-1.5235,-1.5633,-1.6187,-1.7146,-1.7633,-1.8424,-1.9517,-1.9722,-1.9901,-2.0245,-1.9695,-1.9552,-2.0003,-1.9811,-1.9772,-1.9772,-1.9772,-1.9772,-1.9759,-1.9512,-1.95,-1.972,-1.946,-1.9512,-1.9772,-1.9926,-1.9978,-1.9978,-2.0131,-2.0182,-2.0258,-2.0944,-2.1412,-2.1675,0.1335,0.1335,0.1335,0.1335,0.1335,0.1335,0.1335,0.1335,0.1335,0.1335,0.1335,0.1335,0.1335,0.1335,0.1335,0.1335,0.1335,0.1335,0.1335,0.1335,0.1335,0.1335,0.1335,0.1335,0.1335,0.0707,0.0314,0.0314,-0.0236,-0.055,-0.0628,-0.102,-0.1568,-0.2117,-0.2893,-0.3832,-0.4859,-0.4859,-0.4801,-0.4726,-0.4726,-0.4512,-0.4303,-0.43,-0.43,-0.43,-0.43,-0.43,-0.43,-0.4561,-0.4625,-0.4625,-0.4761,-0.4957,-0.5156,-0.5292,-0.5362,-0.5428,-0.5428,-0.5428,-0.5557,-0.6207,-0.64,-0.6854,-0.8161,-0.9017,-0.9484,-0.9484,-0.9484,-0.9484,-0.9484,-0.9506,-0.9533,-0.9591,-1.0103,-1.0878,-1.2035,-1.2528,-1.3139,-1.407,-1.4478,-1.4834,-1.5303,-1.5642,-1.5989,-1.6436,-1.6775,-1.7,-1.7202,-1.8536,-1.9146,-1.8934,-1.8987,-1.8987,-1.8987,-1.8987,-1.8987,-1.8987,-1.8987,-1.8987,-1.8987,-1.8987,-1.8987,-1.8987,-1.8987,-1.8987,-1.904,-1.9396,-1.9552,-1.9617,-1.9978,-2.0156,-2.0258,-2.0914,-2.1156,-2.1284,0.1335,0.1335,0.1335,0.1335,0.1335,0.1335,0.1335,0.1335,0.1335,0.1335,0.1335,0.1335,0.1335,0.1335,0.1335,0.1335,0.1335,0.1335,0.1335,0.1335,0.1335,0.1335,0.1335,0.1335,0.1335,0.1178,0.0786,0.0314,0.0157,-0.0157,-0.0628,-0.0707,-0.102,-0.1489,-0.1723,-0.2504,-0.3752,-0.3521,-0.3962,-0.4737,-0.4589,-0.445,-0.4311,-0.4303,-0.43,-0.43,-0.43,-0.43,-0.43,-0.4561,-0.4625,-0.4625,-0.4957,-0.5087,-0.5087,-0.5156,-0.5292,-0.5428,-0.5428,-0.5428,-0.5428,-0.5624,-0.6408,-0.7386,-0.8291,-0.9017,-0.9484,-0.9484,-0.9484,-0.9484,-0.9484,-0.9472,-0.9658,-1.0168,-1.0295,-1.0793,-1.2112,-1.2597,-1.3139,-1.395,-1.4318,-1.4565,-1.4675,-1.4793,-1.5196,-1.5979,-1.6197,-1.6585,-1.7146,-1.7655,-1.7984,-1.8309,-1.8762,-1.8987,-1.8987,-1.8987,-1.8987,-1.8987,-1.8987,-1.8987,-1.8987,-1.8987,-1.8987,-1.8987,-1.8987,-1.8987,-1.8987,-1.9093,-1.9146,-1.9146,-1.9251,-1.9548,-1.9946,-2.0516,-2.0967,-2.1414,0.1569,0.1414,0.1335,0.1335,0.1335,0.1335,0.1335,0.1335,0.1335,0.1335,0.1335,0.1335,0.1335,0.1335,0.1335,0.1335,0.1335,0.1335,0.1335,0.1335,0.1335,0.1335,0.1335,0.1335,0.1335,0.1335,0.11,0.0786,0.0786,0.0628,0.0236,0.0236,0.0157,-0.0157,-0.0627,-0.133,-0.2267,-0.2738,-0.3275,-0.379,-0.3642,-0.3886,-0.4247,-0.356,-0.3694,-0.43,-0.43,-0.43,-0.43,-0.4431,-0.4495,-0.4625,-0.4824,-0.4954,-0.5087,-0.5087,-0.5223,-0.5428,-0.5428,-0.5428,-0.5428,-0.5428,-0.621,-0.7055,-0.7442,-0.8296,-0.9017,-0.9017,-0.9285,-0.9484,-0.9484,-0.9484,-0.9612,-0.9996,-0.9996,-1.0301,-1.124,-1.1965,-1.2704,-1.339,-1.407,-1.4515,-1.4515,-1.4515,-1.4734,-1.5294,-1.5517,-1.5806,-1.6265,-1.6652,-1.7146,-1.7644,-1.7984,-1.8201,-1.8201,-1.8201,-1.8321,-1.859,-1.859,-1.8709,-1.8987,-1.8987,-1.8987,-1.8987,-1.8987,-1.8987,-1.8987,-1.8987,-1.8987,-1.8987,-1.8987,-1.9312,-1.9841,-2.0406,-2.0947,-2.1488,0.196,0.1649,0.1414,0.1414,0.1335,0.1335,0.1335,0.1335,0.1335,0.1335,0.1335,0.1335,0.1335,0.1335,0.1335,0.1335,0.1335,0.1335,0.1335,0.1335,0.1335,0.1335,0.1335,0.1335,0.1335,0.1335,0.1335,0.1335,0.1335,0.1335,0.1335,0.1335,0.1335,0.1257,0.0314,-0.0313,-0.0861,-0.1872,-0.2582,-0.2987,-0.2393,-0.2744,-0.3569,-0.2485,-0.2751,-0.3694,-0.4167,-0.4303,-0.4303,-0.4303,-0.4431,-0.4561,-0.4631,-0.4827,-0.502,-0.5153,-0.5223,-0.5359,-0.5362,-0.5428,-0.5428,-0.5428,-0.5881,-0.64,-0.64,-0.7377,-0.8361,-0.849,-0.8952,-0.935,-0.9484,-0.9484,-0.9484,-0.9484,-0.9484,-0.967,-1.0244,-1.1219,-1.2074,-1.2589,-1.364,-1.4327,-1.4327,-1.4446,-1.4556,-1.4715,-1.4902,-1.5039,-1.5215,-1.5816,-1.6415,-1.6922,-1.709,-1.7202,-1.7202,-1.7202,-1.7479,-1.7984,-1.7984,-1.8267,-1.8881,-1.8881,-1.8934,-1.8987,-1.8987,-1.8987,-1.8987,-1.8987,-1.8987,-1.8987,-1.8987,-1.936,-1.9961,-2.043,-2.0995,-2.1584,0.2431,0.2118,0.1803,0.1803,0.1492,0.1335,0.1335,0.1335,0.1335,0.1335,0.1335,0.1335,0.1335,0.1335,0.1335,0.1335,0.1335,0.1335,0.1335,0.1335,0.1335,0.1335,0.1335,0.1335,0.1335,0.1335,0.1335,0.1335,0.1335,0.1335,0.1335,0.1335,0.1335,0.1257,0.11,0.0392,-0.0704,0.023,-0.1423,-0.4387,-0.1565,-0.0484,-0.0741,-0.1745,-0.1476,-0.1007,-0.3431,-0.4311,-0.4311,-0.4311,-0.4306,-0.4434,-0.4843,-0.4837,-0.4758,-0.5226,-0.5226,-0.5156,-0.5359,-0.5428,-0.5428,-0.5428,-0.5881,-0.64,-0.64,-0.699,-0.7777,-0.8361,-0.8554,-0.8818,-0.9414,-0.9484,-0.9484,-0.9484,-0.9484,-0.967,-1.0244,-1.078,-1.1329,-1.1919,-1.2964,-1.364,-1.364,-1.4198,-1.4556,-1.4715,-1.4902,-1.5039,-1.5215,-1.542,-1.5575,-1.569,-1.6698,-1.7202,-1.7202,-1.7202,-1.7257,-1.7313,-1.7313,-1.7655,-1.8267,-1.8267,-1.8536,-1.8987,-1.8987,-1.8987,-1.8987,-1.8987,-1.8987,-1.8987,-1.8987,-1.9588,-2.0511,-2.0538,-2.1211,-2.2077,0.2511,0.2353,0.2117,0.196,0.1961,0.1884,0.1649,0.1649,0.157,0.1335,0.1335,0.1335,0.1335,0.1335,0.1335,0.1335,0.1335,0.1335,0.1335,0.1335,0.1335,0.1335,0.1335,0.1335,0.1335,0.1335,0.1335,0.1335,0.1335,0.1335,0.1335,0.1335,0.1335,0.1335,0.1335,0.0942,0.0392,0.0765,-0.0075,-0.1528,-0.0425,0.0,-0.0067,-0.074,-0.0538,-0.0202,-0.1478,-0.2485,-0.3092,-0.3092,-0.309,-0.3288,-0.4303,-0.4837,-0.5033,-0.5226,-0.5226,-0.5292,-0.5362,-0.5428,-0.5428,-0.5428,-0.562,-0.5881,-0.5881,-0.6404,-0.699,-0.7312,-0.7967,-0.8619,-0.8888,-0.9285,-0.9484,-0.9484,-0.9484,-0.9612,-0.9862,-1.0471,-1.1024,-1.1344,-1.2274,-1.2887,-1.2948,-1.326,-1.3631,-1.4052,-1.424,-1.4547,-1.5039,-1.5205,-1.5303,-1.541,-1.5911,-1.6255,-1.6255,-1.6255,-1.6358,-1.6698,-1.6698,-1.7034,-1.7644,-1.7644,-1.7918,-1.8536,-1.8536,-1.8709,-1.8987,-1.8987,-1.8987,-1.8987,-1.8987,-1.9648,-2.0586,-2.0586,-2.1272,-2.2123,0.2824,0.2746,0.2511,0.2196,0.2353,0.2431,0.2117,0.2038,0.1961,0.1649,0.1571,0.1571,0.1571,0.1571,0.1571,0.1414,0.1492,0.1492,0.1335,0.1414,0.1414,0.1335,0.1335,0.1335,0.1335,0.1335,0.1335,0.1335,0.1335,0.1335,0.1335,0.1335,0.1335,0.1335,0.1335,0.1254,0.1245,0.0759,0.074,0.0937,0.0281,0.0,0.0,0.0,0.0,0.0,0.0,-0.0672,-0.1612,-0.1612,-0.1611,-0.1945,-0.383,-0.4776,-0.5243,-0.5163,-0.5292,-0.5428,-0.5428,-0.5428,-0.5428,-0.5428,-0.5428,-0.5428,-0.5428,-0.5818,-0.6207,-0.64,-0.7246,-0.8096,-0.842,-0.8952,-0.935,-0.9484,-0.9484,-0.9484,-0.9484,-1.0098,-1.0591,-1.0773,-1.1524,-1.2151,-1.2266,-1.2389,-1.2757,-1.345,-1.3631,-1.4052,-1.4902,-1.5088,-1.5264,-1.541,-1.541,-1.541,-1.541,-1.541,-1.5633,-1.6083,-1.6083,-1.6415,-1.6978,-1.6978,-1.7313,-1.7875,-1.7875,-1.8201,-1.8762,-1.8762,-1.8869,-1.8987,-1.8987,-1.966,-2.061,-2.061,-2.1224,-2.2061,0.3684,0.3374,0.3062,0.2984,0.2746,0.251,0.2431,0.2431,0.2431,0.2433,0.2433,0.2433,0.2433,0.2433,0.2275,0.1882,0.2196,0.2119,0.1335,0.1648,0.1726,0.1335,0.1335,0.1335,0.1335,0.1335,0.1335,0.1335,0.1335,0.1335,0.1335,0.1335,0.1335,0.1335,0.1335,0.1241,0.1213,0.0739,0.0432,0.007,0.0,0.0,0.0,0.0,0.0,0.0,0.0,-0.0067,-0.0135,-0.0135,-0.0135,-0.0671,-0.3703,-0.4718,-0.4843,-0.5243,-0.5369,-0.5428,-0.5428,-0.5428,-0.5428,-0.5428,-0.5428,-0.5428,-0.5428,-0.5428,-0.5624,-0.6268,-0.6461,-0.692,-0.8226,-0.8554,-0.8753,-0.9414,-0.9484,-0.9484,-0.9484,-0.9734,-0.9926,-1.0047,-1.0863,-1.1428,-1.1545,-1.2151,-1.2757,-1.345,-1.3631,-1.3992,-1.4715,-1.5029,-1.5264,-1.541,-1.541,-1.541,-1.541,-1.541,-1.541,-1.5468,-1.5468,-1.5806,-1.6368,-1.6368,-1.6698,-1.7257,-1.7257,-1.7589,-1.8159,-1.8159,-1.8494,-1.8987,-1.8987,-1.966,-2.061,-2.061,-2.1093,-2.1663,0.3452,0.3452,0.3452,0.3141,0.3217,0.3215,0.2904,0.2904,0.2668,0.2196,0.2353,0.2276,0.1805,0.2198,0.2276,0.157,0.1883,0.196,0.1726,0.1569,0.1492,0.1335,0.1335,0.1335,0.1335,0.1335,0.1335,0.1335,0.1335,0.1335,0.1335,0.1335,0.1335,0.1335,0.1335,0.1241,0.121,0.1032,0.0574,0.0,0.0,0.0,0.0,0.0,0.0,0.0,0.0,0.0,0.0,0.0,0.0,-0.0337,-0.2423,-0.3094,-0.3355,-0.4631,-0.5033,-0.503,-0.503,-0.5229,-0.5428,-0.5428,-0.5428,-0.5428,-0.5428,-0.5428,-0.5491,-0.5752,-0.6141,-0.6593,-0.7116,-0.7902,-0.8554,-0.8818,-0.9215,-0.9484,-0.9484,-0.9548,-0.9734,-0.9983,-1.0301,-1.0618,-1.0933,-1.1483,-1.2151,-1.2826,-1.3321,-1.3932,-1.4647,-1.5029,-1.5215,-1.5264,-1.5362,-1.541,-1.541,-1.541,-1.541,-1.541,-1.541,-1.5526,-1.5748,-1.5748,-1.6083,-1.6641,-1.6641,-1.6978,-1.7534,-1.7435,-1.771,-1.8247,-1.8626,-1.9295,-2.003,-2.0606,-2.1052,-2.1348,0.3295,0.3374,0.3294,0.2982,0.3215,0.3294,0.2982,0.2904,0.2746,0.2195,0.2353,0.2276,0.1727,0.2198,0.2198,0.157,0.1883,0.196,0.1726,0.1492,0.1335,0.1335,0.1414,0.1414,0.1335,0.1335,0.1335,0.1335,0.1335,0.1335,0.1335,0.1335,0.1335,0.1335,0.1247,0.1226,0.1196,0.1165,0.078,0.0138,0.0068,0.0,0.0,0.0,0.0,0.0,0.0,0.0,0.0,0.0,0.0,-0.0202,-0.1145,-0.2084,-0.3023,-0.4364,-0.4767,-0.4767,-0.4764,-0.503,-0.5229,-0.5229,-0.5229,-0.5229,-0.5229,-0.5229,-0.5292,-0.5292,-0.5749,-0.6137,-0.6334,-0.7181,-0.7967,-0.8425,-0.8882,-0.9285,-0.9484,-0.9484,-0.9612,-0.9926,-0.9983,-1.0117,-1.0498,-1.1115,-1.1663,-1.2143,-1.3009,-1.3863,-1.4647,-1.4961,-1.5156,-1.5215,-1.5303,-1.541,-1.541,-1.541,-1.541,-1.541,-1.541,-1.541,-1.541,-1.541,-1.5633,-1.6026,-1.6026,-1.6368,-1.6877,-1.6775,-1.7056,-1.7656,-1.8329,-1.8999,-1.9677,-2.0447,-2.0846,-2.0967,0.3606,0.3136,0.2511,0.2511,0.2511,0.2511,0.2511,0.2511,0.2511,0.2511,0.2511,0.2511,0.251,0.2511,0.2353,0.196,0.2275,0.2119,0.1335,0.1335,0.1335,0.1335,0.1648,0.1726,0.1335,0.1335,0.1335,0.1335,0.1335,0.1335,0.1335,0.1335,0.1335,0.1334,0.1226,0.1195,0.1164,0.1134,0.0898,0.0472,0.0135,0.0,0.0,0.0,0.0,0.0,0.0,0.0,0.0,0.0,0.0,0.0,0.0,-0.1952,-0.4314,-0.4576,-0.4709,-0.4709,-0.4767,-0.4764,-0.4831,-0.4831,-0.4831,-0.4831,-0.4831,-0.496,-0.5087,-0.5087,-0.5292,-0.5624,-0.6268,-0.64,-0.6854,-0.8226,-0.849,-0.8753,-0.9414,-0.9484,-0.9548,-0.9804,-0.9926,-1.011,-1.0308,-1.1052,-1.1483,-1.1483,-1.2712,-1.3872,-1.4647,-1.4843,-1.5039,-1.5215,-1.5303,-1.541,-1.541,-1.541,-1.541,-1.541,-1.541,-1.541,-1.541,-1.541,-1.541,-1.541,-1.541,-1.5642,-1.6114,-1.6114,-1.6606,-1.7434,-1.7977,-1.8755,-1.9677,-2.0217,-2.0483,-2.0506,0.4229,0.3995,0.3759,0.345,0.3139,0.2904,0.2904,0.2668,0.2431,0.2117,0.2353,0.2276,0.1728,0.2198,0.2198,0.157,0.1883,0.1883,0.1335,0.1806,0.1884,0.1335,0.1414,0.1414,0.1335,0.1335,0.1335,0.1335,0.1335,0.1335,0.1335,0.1335,0.1245,0.1225,0.1216,0.1183,0.1134,0.1125,0.1036,0.0877,0.027,0.0,0.0,0.0,0.0,0.0,0.0,0.0,0.0,0.0,0.0,0.0,0.0,-0.0605,-0.1478,-0.2551,-0.3627,-0.4436,-0.4434,-0.4434,-0.45,-0.4764,-0.4831,-0.4831,-0.4957,-0.5087,-0.5156,-0.5292,-0.5359,-0.5491,-0.5686,-0.6075,-0.6531,-0.6985,-0.7832,-0.8554,-0.8753,-0.9215,-0.9548,-0.9804,-0.9926,-1.011,-1.0308,-1.1052,-1.1483,-1.1483,-1.2336,-1.2879,-1.3122,-1.3373,-1.3734,-1.4341,-1.4519,-1.4815,-1.541,-1.541,-1.541,-1.541,-1.541,-1.541,-1.541,-1.541,-1.541,-1.541,-1.541,-1.542,-1.5439,-1.5371,-1.5594,-1.6107,-1.741,-1.8162,-1.857,-1.9583,-1.9846,-1.9639,0.4849,0.4382,0.3915,0.3446,0.3137,0.2826,0.2668,0.2589,0.2353,0.196,0.2117,0.2041,0.1335,0.1727,0.1806,0.1335,0.1492,0.157,0.1335,0.1727,0.1805,0.1335,0.1335,0.1335,0.1335,0.1335,0.1335,0.1335,0.1335,0.1251,0.1239,0.1239,0.1223,0.1194,0.1181,0.1155,0.112,0.1109,0.1095,0.1079,0.0607,0.027,0.0,0.0,0.0,0.0,0.0,0.0,0.0,0.0,0.0,0.0,0.0,0.0,-0.0135,-0.1007,-0.1878,-0.2818,-0.3961,-0.43,-0.4367,-0.4564,-0.4631,-0.4631,-0.4824,-0.4957,-0.5024,-0.5226,-0.5359,-0.5428,-0.5428,-0.5752,-0.6075,-0.6334,-0.7116,-0.7772,-0.8037,-0.8689,-0.9145,-0.9274,-0.9728,-1.0047,-1.0174,-1.0989,-1.1608,-1.1911,-1.2027,-1.2205,-1.2512,-1.2704,-1.307,-1.3614,-1.3726,-1.4213,-1.5059,-1.5059,-1.5177,-1.541,-1.541,-1.541,-1.541,-1.541,-1.541,-1.541,-1.5362,-1.5254,-1.5088,-1.497,-1.5069,-1.5439,-1.6768,-1.743,-1.7792,-1.8898,-1.9166,-1.8911,0.5541,0.4535,0.3522,0.3129,0.2898,0.2586,0.2194,0.243,0.2431,0.2194,0.2037,0.1804,0.1492,0.1414,0.1335,0.1414,0.1335,0.1335,0.1414,0.1335,0.1335,0.1492,0.1414,0.1414,0.1492,0.1414,0.1335,0.1335,0.1411,0.1393,0.1287,0.136,0.134,0.1306,0.1204,0.1189,0.1115,0.1089,0.1079,0.1079,0.1079,0.0674,0.0067,0.0,0.0,0.0,0.0,0.0,0.0,0.0,0.0,0.0,0.0,0.0,0.0,0.0,0.0,-0.0604,-0.3493,-0.4303,-0.43,-0.43,-0.43,-0.4364,-0.4561,-0.4694,-0.4827,-0.5024,-0.5223,-0.5362,-0.5362,-0.5362,-0.5624,-0.6207,-0.6334,-0.6597,-0.7256,-0.7972,-0.8425,-0.849,-0.9332,-0.9919,-0.9983,-1.0863,-1.1663,-1.2266,-1.1787,-1.1663,-1.2328,-1.252,-1.2704,-1.2887,-1.3009,-1.3494,-1.441,-1.4469,-1.4824,-1.541,-1.541,-1.541,-1.541,-1.541,-1.5362,-1.5362,-1.5264,-1.5098,-1.497,-1.4775,-1.4883,-1.5204,-1.6162,-1.6743,-1.7229,-1.8111,-1.8432,-1.8375,0.6086,0.5777,0.5464,0.5076,0.4691,0.4457,0.438,0.3679,0.3366,0.3828,0.2974,0.251,0.2901,0.2273,0.1883,0.2198,0.1961,0.1883,0.2198,0.1649,0.1883,0.3209,0.2586,0.2586,0.3209,0.2586,0.1962,0.1335,0.2462,0.266,0.2041,0.2591,0.2531,0.1976,0.1964,0.166,0.1085,0.1079,0.1078,0.1079,0.0742,0.0742,0.0809,0.0202,0.0,0.0,0.0,0.0,0.0,0.0,0.0,0.0,0.0,0.0,0.0,0.0,0.0,-0.0605,-0.3504,-0.4311,-0.43,-0.43,-0.43,-0.4364,-0.4561,-0.4625,-0.4694,-0.4827,-0.5027,-0.5156,-0.5156,-0.5292,-0.5428,-0.5624,-0.6075,-0.6465,-0.6597,-0.7186,-0.7842,-0.8425,-0.8935,-0.9454,-0.9919,-1.0491,-1.087,-1.0989,-1.087,-1.087,-1.0989,-1.1052,-1.1413,-1.2197,-1.2258,-1.2757,-1.3692,-1.4231,-1.4824,-1.541,-1.541,-1.541,-1.541,-1.5313,-1.5264,-1.5264,-1.5088,-1.497,-1.4775,-1.4715,-1.4666,-1.4758,-1.6047,-1.6553,-1.6724,-1.7589,-1.7833,-1.7774,0.6861,0.6556,0.6244,0.5851,0.5467,0.5234,0.5004,0.4691,0.4533,0.4686,0.4144,0.3756,0.3832,0.3441,0.3207,0.3365,0.313,0.3052,0.3365,0.2898,0.3054,0.4062,0.3482,0.3308,0.3766,0.3575,0.3121,0.2312,0.3079,0.3169,0.2767,0.316,0.2884,0.2125,0.2125,0.1769,0.1076,0.1077,0.1078,0.1079,0.0472,0.0404,0.0539,0.0135,0.0,0.0,0.0,0.0,0.0,0.0,0.0,0.0,0.0,0.0,0.0,0.0,0.0,-0.0336,-0.1817,-0.3232,-0.4314,-0.4308,-0.4303,-0.4364,-0.4561,-0.4625,-0.4691,-0.4894,-0.5024,-0.5153,-0.5223,-0.5359,-0.5428,-0.5428,-0.5686,-0.6009,-0.6334,-0.699,-0.7707,-0.8484,-0.9128,-0.9716,-1.0238,-1.0498,-1.0624,-1.0624,-1.0624,-1.0624,-1.0624,-1.0624,-1.0933,-1.1538,-1.16,-1.2027,-1.3009,-1.3373,-1.3846,-1.4392,-1.505,-1.541,-1.541,-1.5264,-1.5215,-1.5215,-1.4961,-1.4784,-1.4715,-1.4606,-1.4667,-1.4854,-1.5757,-1.6251,-1.6505,-1.7069,-1.7304,-1.7304,0.7484,0.7099,0.6633,0.6237,0.6005,0.5777,0.5467,0.5622,0.5699,0.5467,0.5234,0.5002,0.4763,0.4683,0.4528,0.445,0.43,0.4377,0.4606,0.4281,0.4271,0.4732,0.4246,0.4043,0.4192,0.4605,0.4315,0.3452,0.3582,0.3639,0.3491,0.3613,0.3221,0.248,0.2347,0.1879,0.1277,0.1145,0.1079,0.1012,0.0404,0.0135,0.0067,0.0067,0.0067,0.0067,0.0067,0.0135,0.0202,0.0067,0.0,0.0,0.0,0.0,0.0,0.0,0.0,0.0,0.0,-0.1749,-0.3713,-0.4182,-0.4105,-0.4028,-0.4428,-0.4561,-0.4691,-0.4957,-0.5087,-0.5156,-0.5292,-0.5362,-0.5428,-0.5428,-0.5428,-0.5624,-0.6137,-0.6732,-0.7381,-0.8285,-0.9262,-1.0047,-1.0561,-1.0624,-1.0624,-1.0624,-1.0624,-1.0624,-1.0624,-1.0624,-1.0744,-1.1059,-1.1059,-1.1483,-1.2266,-1.2389,-1.2634,-1.3061,-1.4382,-1.505,-1.5167,-1.502,-1.5029,-1.5088,-1.4784,-1.4656,-1.4656,-1.4565,-1.4744,-1.5139,-1.5533,-1.5945,-1.6367,-1.6762,-1.6908,-1.6908,0.7484,0.7403,0.733,0.7326,0.7249,0.7249,0.7173,0.6788,0.6637,0.7096,0.6167,0.5702,0.6247,0.578,0.5154,0.4448,0.4688,0.5002,0.5389,0.4591,0.4763,0.6204,0.5246,0.5029,0.5761,0.5553,0.4768,0.3362,0.4624,0.4905,0.4186,0.4836,0.4706,0.3951,0.3349,0.2614,0.1946,0.1344,0.1078,0.1079,0.0742,0.0539,0.0404,0.0404,0.0404,0.0404,0.0404,0.0674,0.0877,0.0202,0.0,0.0,0.0,0.0,0.0,0.0,0.0,0.0,0.0,-0.0269,-0.121,-0.3645,-0.3366,-0.2751,-0.4028,-0.4495,-0.4625,-0.4625,-0.4891,-0.5087,-0.5156,-0.5292,-0.5428,-0.5428,-0.5428,-0.5428,-0.5491,-0.5624,-0.6017,-0.6868,-0.8425,-0.9722,-1.0491,-1.0624,-1.0624,-1.0624,-1.0624,-1.0624,-1.0624,-1.0624,-1.0688,-1.087,-1.0996,-1.1247,-1.1483,-1.2027,-1.2389,-1.2451,-1.3061,-1.3614,-1.4213,-1.3983,-1.4231,-1.4775,-1.4616,-1.4506,-1.4506,-1.4506,-1.4744,-1.5139,-1.5533,-1.5945,-1.6367,-1.6762,-1.6908,-1.6908,0.7484,0.7484,0.7484,0.7484,0.7484,0.7484,0.7484,0.7253,0.7176,0.7484,0.7019,0.6784,0.7099,0.6861,0.6549,0.6157,0.6086,0.6194,0.65,0.5902,0.5895,0.6779,0.6111,0.5818,0.618,0.5809,0.5213,0.4447,0.5151,0.5325,0.4913,0.5256,0.5024,0.4287,0.3951,0.3149,0.2079,0.1812,0.1412,0.1079,0.0944,0.0877,0.0809,0.0809,0.0809,0.0809,0.0607,0.128,0.2087,0.101,0.0471,0.0269,0.0269,0.0135,0.0,0.0,0.0,0.0,0.0,0.0,-0.0337,-0.155,-0.202,-0.2488,-0.3976,-0.4372,-0.4498,-0.4694,-0.4827,-0.5024,-0.5226,-0.5359,-0.5428,-0.5428,-0.5428,-0.5557,-0.5881,-0.5947,-0.6338,-0.7316,-0.8156,-0.8871,-0.9396,-0.9396,-0.9588,-0.9977,-0.9977,-1.0168,-1.0561,-1.0624,-1.0681,-1.0807,-1.087,-1.0996,-1.1185,-1.1483,-1.1538,-1.1476,-1.1663,-1.2573,-1.3965,-1.3803,-1.4052,-1.4715,-1.4556,-1.4515,-1.4515,-1.4515,-1.4873,-1.545,-1.5615,-1.6083,-1.667,-1.6844,-1.6908,-1.6908]}]]